AA2402 / N939NN 7700 Squawk Report (10th of October, 2018)

Aircraft B738 Reg No. N939NN Age 5 years old
Model 737 Jet engines 2 First flight 18-09-13
Registered 10-12-13 Rollout N/A Delivered 10-12-13
Construction No. 33491 Line No. 4629 Series 823
ADSHEX AD0851 Airline name American Airlines Owner Bank of Utah Trustee
Airfield based Dallas-Fort Worth~TX~N First tracked 2013-09-18 19:32:02

Flight history for N939NN

Route Flight No Date Playback
Washington Dulles Intl (IAD) - Dallas Fort Worth Intl (DFW) AA2784 2018-10-16 02:56:00
Dallas Fort Worth Intl (DFW) - Denver Intl (DEN) - Dallas Fort Worth Intl (DFW) AA1622 2018-10-15 20:30:00
Kansas City Intl (MCI) - Dallas Fort Worth Intl (DFW) AA1098 2018-10-15 14:24:00
Dallas Fort Worth Intl (DFW) - Kansas City Intl (MCI) AA2267 2018-10-15 10:42:00
Dallas Fort Worth Intl (DFW) - El Paso Intl (ELP) - Dallas Fort Worth Intl (DFW) AA2743 2018-10-15 01:06:00
Dallas Fort Worth Intl (DFW) - Licenciado Gustavo Diaz Ordaz Intl (PVR) - Dallas Fort Worth Intl (DFW) AA353 2018-10-14 19:34:00
Tampa Intl (TPA) - Dallas Fort Worth Intl (DFW) AA1189 2018-10-14 14:03:00
Dallas Fort Worth Intl (DFW) - Tampa Intl (TPA) AA1619 2018-10-13 23:47:00
Tampa Intl (TPA) - Dallas Fort Worth Intl (DFW) AA1351 2018-10-13 20:03:00
Richmond Intl (RIC) - Dallas Fort Worth Intl (DFW) AA2316 2018-10-13 12:42:00
Southwest Florida Intl (RSW) - Dallas Fort Worth Intl (DFW) AA2818 2018-10-12 18:33:00
Los Angeles Intl (LAX) - Dallas Fort Worth Intl (DFW) AA1116 2018-10-12 04:48:00
Chicago Ohare Intl (ORD) - Los Angeles Intl (LAX) AA1375 2018-10-12 01:21:00
John Wayne Arpt Orange Co (SNA) - Chicago Ohare Intl (ORD) AA2285 2018-10-11 21:06:00
???? N/A 2018-10-11 01:07:00
Dallas Fort Worth Intl (DFW) - John Wayne Arpt Orange Co (SNA) - Dallas Fort Worth Intl (DFW) AA2402 2018-10-10 20:32:00
Phoenix Sky Harbor Intl (PHX) - John Wayne Arpt Orange Co (SNA) - Dallas Fort Worth Intl (DFW) AA1477 2018-10-10 01:44:00
Ronald Reagan Washington Natl (DCA) - Phoenix Sky Harbor Intl (PHX) AA1218 2018-10-09 21:01:00
Dallas Fort Worth Intl (DFW) - Ronald Reagan Washington Natl (DCA) AA202 2018-10-09 13:43:00
Phoenix Sky Harbor Intl (PHX) - John Wayne Arpt Orange Co (SNA) - Dallas Fort Worth Intl (DFW) AA1477 2018-10-09 02:09:00
Time Lat Lon Altitude Heading Speed Vertical Rate
2018-10-10 20:31:46 GMT 32.873051 -97.030128 725 0 146 -704
2018-10-10 20:31:37 GMT 32.867249 -97.030151 825 0 145 -704
2018-10-10 20:31:24 GMT 32.858433 -97.030182 975 0 145 -960
2018-10-10 20:31:16 GMT 32.852287 -97.030128 1,075 0 145 -768
2018-10-10 20:31:11 GMT 32.847015 -97.030258 1,175 0 145 -960
2018-10-10 20:31:03 GMT 32.844040 -97.030258 1,250 0 146 -512
2018-10-10 20:30:52 GMT 32.836945 -97.030258 1,350 0 146 -896
2018-10-10 20:30:44 GMT 32.831711 -97.030296 1,475 0 148 -768
2018-10-10 20:30:41 GMT 32.829334 -97.030296 1,725 0 154 -960
2018-10-10 20:30:34 GMT 32.824261 -97.030350 1,625 0 154 -960
2018-10-10 20:30:31 GMT 32.822571 -97.030373 1,700 0 157 -960
2018-10-10 20:30:28 GMT 32.819935 -97.030411 1,700 0 160 -1024
2018-10-10 20:30:20 GMT 32.814301 -97.030411 1,825 0 165 -832
2018-10-10 20:30:12 GMT 32.807877 -97.030426 1,975 0 170 -1088
2018-10-10 20:30:09 GMT 32.805504 -97.030464 2,025 1 171 -896
2018-10-10 20:30:01 GMT 32.798309 -97.030479 2,200 0 177 -832
2018-10-10 20:29:58 GMT 32.797119 -97.030479 2,275 0 182 -960
2018-10-10 20:29:49 GMT 32.788834 -97.030479 2,375 0 187 -768
2018-10-10 20:29:38 GMT 32.780037 -97.030632 2,500 0 193 -1024
2018-10-10 20:29:35 GMT 32.777573 -97.030647 2,550 0 194 -1024
2018-10-10 20:29:28 GMT 32.770588 -97.030746 2,700 1 194 -1088
2018-10-10 20:29:14 GMT 32.757923 -97.030861 2,875 0 191 -704
2018-10-10 20:29:05 GMT 32.749603 -97.030701 2,950 0 191 -192
2018-10-10 20:28:53 GMT 32.739304 -97.030479 2,975 357 193 -832
2018-10-10 20:28:44 GMT 32.730560 -97.030319 2,975 358 194 -320
2018-10-10 20:28:32 GMT 32.719940 -97.029602 3,100 357 194 -384
2018-10-10 20:28:21 GMT 32.709789 -97.028839 3,150 357 191 128
2018-10-10 20:28:10 GMT 32.700386 -97.028282 3,100 359 189 512
2018-10-10 20:28:00 GMT 32.689541 -97.028168 3,000 3 189 192
2018-10-10 20:27:49 GMT 32.682678 -97.029549 3,000 17 190 64
2018-10-10 20:27:39 GMT 32.673523 -97.033119 3,000 18 191 0
2018-10-10 20:27:35 GMT 32.671478 -97.033943 3,000 18 191 0
2018-10-10 20:27:28 GMT 32.664261 -97.036858 3,075 19 192 -576
2018-10-10 20:27:25 GMT 32.661072 -97.038170 3,075 19 192 -576
2018-10-10 20:27:17 GMT 32.655075 -97.041031 3,150 26 196 -512
2018-10-10 20:27:13 GMT 32.651787 -97.042969 3,175 29 196 -512
2018-10-10 20:27:05 GMT 32.646149 -97.046684 3,250 29 197 -576
2018-10-10 20:27:01 GMT 32.643036 -97.048775 3,275 29 198 -512
2018-10-10 20:26:53 GMT 32.636765 -97.053055 3,375 35 203 -704
2018-10-10 20:26:49 GMT 32.633972 -97.054977 3,375 29 199 -576
2018-10-10 20:26:43 GMT 32.628799 -97.058441 3,450 29 200 -576
2018-10-10 20:26:38 GMT 32.624725 -97.061241 3,500 29 200 -640
2018-10-10 20:26:33 GMT 32.619873 -97.064484 3,550 29 199 -576
2018-10-10 20:26:28 GMT 32.615936 -97.067177 3,600 29 200 -576
2018-10-10 20:26:21 GMT 32.611195 -97.070374 3,650 29 200 -576
2018-10-10 20:26:16 GMT 32.606689 -97.073441 3,700 29 201 -640
2018-10-10 20:26:11 GMT 32.602753 -97.076019 3,750 28 202 -576
2018-10-10 20:26:05 GMT 32.597351 -97.079590 3,825 31 202 -704
2018-10-10 20:26:00 GMT 32.593830 -97.082199 4,025 45 205 -576
2018-10-10 20:25:53 GMT 32.588661 -97.087524 3,950 50 206 -576
2018-10-10 20:25:49 GMT 32.586426 -97.090836 3,975 56 208 -448
2018-10-10 20:25:42 GMT 32.582932 -97.097824 4,000 68 212 128
2018-10-10 20:25:38 GMT 32.581352 -97.102776 3,975 71 214 64
2018-10-10 20:25:29 GMT 32.578949 -97.111618 3,975 72 216 64
2018-10-10 20:25:25 GMT 32.577396 -97.117516 3,975 72 218 0
2018-10-10 20:25:19 GMT 32.575813 -97.123398 3,975 72 224 -128
2018-10-10 20:25:16 GMT 32.574371 -97.128700 4,000 72 228 -512
2018-10-10 20:25:08 GMT 32.572449 -97.136002 4,100 72 231 -1280
2018-10-10 20:25:05 GMT 32.571396 -97.140015 4,175 72 231 -1280
2018-10-10 20:24:58 GMT 32.568924 -97.149574 4,325 72 231 -1280
2018-10-10 20:24:54 GMT 32.567898 -97.153442 4,400 72 232 -1344
2018-10-10 20:24:46 GMT 32.564686 -97.165718 4,625 72 232 -1280
2018-10-10 20:24:42 GMT 32.563843 -97.169128 4,675 73 232 -1280
2018-10-10 20:24:34 GMT 32.561600 -97.177971 4,900 73 235 -1088
2018-10-10 20:24:30 GMT 32.560310 -97.183151 4,900 73 235 -1088
2018-10-10 20:24:22 GMT 32.557480 -97.194618 5,075 73 238 -1024
2018-10-10 20:24:10 GMT 32.554028 -97.208321 5,200 73 241 -704
2018-10-10 20:24:00 GMT 32.550488 -97.221939 5,350 72 245 -704
2018-10-10 20:23:50 GMT 32.547184 -97.234779 5,450 73 250 -704
2018-10-10 20:23:47 GMT 32.546356 -97.238174 5,475 73 250 -704
2018-10-10 20:23:39 GMT 32.543930 -97.247681 5,575 73 254 -704
2018-10-10 20:23:35 GMT 32.542419 -97.253670 5,625 73 255 -704
2018-10-10 20:23:27 GMT 32.539780 -97.264374 5,725 73 260 -704
2018-10-10 20:23:16 GMT 32.535778 -97.280235 5,850 72 264 -704
2018-10-10 20:23:05 GMT 32.531433 -97.296516 5,975 72 268 -640
2018-10-10 20:22:52 GMT 32.527084 -97.312553 6,100 72 269 -640
2018-10-10 20:22:43 GMT 32.523209 -97.327095 6,250 72 273 -640
2018-10-10 20:22:32 GMT 32.519440 -97.341560 6,300 72 276 -512
2018-10-10 20:22:22 GMT 32.514175 -97.361282 6,425 72 280 -512
2018-10-10 20:22:10 GMT 32.510502 -97.375191 6,500 72 287 -576
2018-10-10 20:22:01 GMT 32.506916 -97.388641 6,600 72 294 -512
2018-10-10 20:21:58 GMT 32.506165 -97.391602 6,600 72 295 -512
2018-10-10 20:21:50 GMT 32.502502 -97.405388 6,725 72 300 -1088
2018-10-10 20:21:47 GMT 32.501312 -97.409950 6,725 72 300 -1088
2018-10-10 20:21:39 GMT 32.497925 -97.423019 6,975 73 303 -1216
2018-10-10 20:21:36 GMT 32.496674 -97.427765 6,975 73 303 -1216
2018-10-10 20:21:27 GMT 32.493393 -97.440598 7,150 73 304 -1216
2018-10-10 20:21:23 GMT 32.491928 -97.446365 7,200 73 305 -1216
2018-10-10 20:21:16 GMT 32.488995 -97.458038 7,425 73 306 -1152
2018-10-10 20:21:13 GMT 32.487503 -97.463974 7,425 73 307 -1152
2018-10-10 20:21:06 GMT 32.484665 -97.475296 7,575 73 308 -1152
2018-10-10 20:21:00 GMT 32.482288 -97.484657 7,675 73 309 -1152
2018-10-10 20:20:53 GMT 32.479843 -97.494598 7,825 73 311 -1152
2018-10-10 20:20:49 GMT 32.478237 -97.500916 7,875 72 311 -1344
2018-10-10 20:20:44 GMT 32.475166 -97.511566 8,050 65 311 -1472
2018-10-10 20:20:38 GMT 32.471676 -97.519753 8,175 56 310 -1408
2018-10-10 20:20:28 GMT 32.463203 -97.532700 8,375 45 309 -1344
2018-10-10 20:20:21 GMT 32.456223 -97.541016 8,550 45 311 -1344
2018-10-10 20:20:13 GMT 32.447708 -97.551010 8,725 44 312 -1344
2018-10-10 20:20:10 GMT 32.445141 -97.553993 8,775 44 313 -1344
2018-10-10 20:20:05 GMT 32.440392 -97.559547 8,875 44 315 -1344
2018-10-10 20:19:58 GMT 32.433197 -97.567932 9,050 44 316 -1344
2018-10-10 20:19:54 GMT 32.428116 -97.573700 9,150 43 317 -1408
2018-10-10 20:19:47 GMT 32.420654 -97.582108 9,325 43 319 -1408
2018-10-10 20:19:35 GMT 32.407654 -97.596497 9,575 42 321 -1280
2018-10-10 20:19:26 GMT 32.397812 -97.607651 9,800 49 328 -1472
2018-10-10 20:19:20 GMT 32.391651 -97.616890 9,950 58 334 -1408
2018-10-10 20:19:15 GMT 32.388107 -97.623795 10,050 75 342 -1664
2018-10-10 20:19:08 GMT 32.383667 -97.637367 10,250 72 340 -1600
2018-10-10 20:19:03 GMT 32.382343 -97.644577 10,475 85 348 -1536
2018-10-10 20:18:59 GMT 32.381504 -97.653488 10,475 86 349 -1472
2018-10-10 20:18:53 GMT 32.381084 -97.663635 10,675 87 351 -1536
2018-10-10 20:18:49 GMT 32.380245 -97.685837 11,675 87 360 -1600
2018-10-10 20:18:41 GMT 32.380245 -97.685837 10,900 87 352 -1536
2018-10-10 20:18:36 GMT 32.379776 -97.698341 11,075 87 353 -1536
2018-10-10 20:18:30 GMT 32.379360 -97.708588 11,200 87 354 -1536
2018-10-10 20:18:19 GMT 32.378571 -97.729332 11,675 87 360 -1600
2018-10-10 20:18:14 GMT 32.378014 -97.741661 11,625 87 358 -1536
2018-10-10 20:18:11 GMT 32.377872 -97.745140 11,675 87 359 -1536
2018-10-10 20:18:08 GMT 32.377548 -97.753212 11,775 87 359 -1600
2018-10-10 20:18:03 GMT 32.377213 -97.760635 11,950 87 362 -1536
2018-10-10 20:17:57 GMT 32.376755 -97.771675 12,025 87 361 -1536
2018-10-10 20:17:50 GMT 32.376251 -97.785515 12,225 87 363 -1536
2018-10-10 20:17:46 GMT 32.375919 -97.794014 12,325 87 364 -1600
2018-10-10 20:17:41 GMT 32.375565 -97.804794 12,525 87 365 -1600
2018-10-10 20:17:33 GMT 32.375061 -97.820122 12,675 87 365 -1600
2018-10-10 20:17:29 GMT 32.374802 -97.827705 12,775 87 365 -1600
2018-10-10 20:17:23 GMT 32.374241 -97.842049 12,975 86 366 -1600
2018-10-10 20:17:18 GMT 32.373871 -97.850830 13,350 86 369 -1600
2018-10-10 20:17:12 GMT 32.373230 -97.864670 13,275 86 368 -1600
2018-10-10 20:17:09 GMT 32.372986 -97.869682 13,350 86 369 -1600
2018-10-10 20:17:02 GMT 32.372452 -97.882034 13,500 87 371 -1600
2018-10-10 20:16:56 GMT 32.371948 -97.893349 13,650 87 372 -1600
2018-10-10 20:16:50 GMT 32.371353 -97.909203 13,850 87 374 -1600
2018-10-10 20:16:45 GMT 32.371124 -97.916771 13,950 87 378 -1664
2018-10-10 20:16:42 GMT 32.370804 -97.925369 14,075 87 376 -1600
2018-10-10 20:16:37 GMT 32.370529 -97.932571 14,175 87 376 -1664
2018-10-10 20:16:34 GMT 32.370331 -97.938744 14,325 87 378 -1664
2018-10-10 20:16:27 GMT 32.369820 -97.952927 14,550 87 379 -1600
2018-10-10 20:16:24 GMT 32.369541 -97.960999 14,550 87 379 -1600
2018-10-10 20:16:20 GMT 32.369308 -97.967445 14,675 87 381 -1664
2018-10-10 20:16:16 GMT 32.369026 -97.975571 14,775 87 382 -1664
2018-10-10 20:16:13 GMT 32.368744 -97.984314 14,850 87 382 -1664
2018-10-10 20:16:09 GMT 32.368469 -97.991821 15,100 87 383 -1664
2018-10-10 20:16:06 GMT 32.368237 -97.997879 15,100 87 384 -1664
2018-10-10 20:16:02 GMT 32.367828 -98.007935 15,175 87 385 -1664
2018-10-10 20:15:58 GMT 32.367538 -98.014862 15,250 87 386 -1664
2018-10-10 20:15:53 GMT 32.367188 -98.024139 15,350 87 394 -1664
2018-10-10 20:15:50 GMT 32.366867 -98.031502 15,475 87 388 -1664
2018-10-10 20:15:45 GMT 32.366375 -98.044456 15,650 87 389 -1664
2018-10-10 20:15:38 GMT 32.365864 -98.055725 15,800 87 390 -1664
2018-10-10 20:15:34 GMT 32.365356 -98.067429 15,950 87 391 -1664
2018-10-10 20:15:28 GMT 32.364838 -98.080055 16,100 87 393 -1664
2018-10-10 20:15:23 GMT 32.364418 -98.090141 16,250 87 394 -1664
2018-10-10 20:15:15 GMT 32.363766 -98.104774 16,425 87 396 -1728
2018-10-10 20:15:11 GMT 32.363396 -98.113625 16,475 87 396 -1728
2018-10-10 20:15:04 GMT 32.362743 -98.128540 16,750 87 398 -1728
2018-10-10 20:15:00 GMT 32.362335 -98.137680 16,925 87 398 -1728
2018-10-10 20:14:54 GMT 32.361393 -98.160378 17,225 87 402 -1728
2018-10-10 20:14:50 GMT 32.361393 -98.160378 17,150 87 402 -1728
2018-10-10 20:14:43 GMT 32.360687 -98.177292 17,375 87 404 -1792
2018-10-10 20:14:40 GMT 32.360367 -98.185036 17,500 87 405 -1792
2018-10-10 20:14:34 GMT 32.360001 -98.195633 17,625 87 408 -1792
2018-10-10 20:14:31 GMT 32.359726 -98.202499 17,725 87 407 -1728
2018-10-10 20:14:28 GMT 32.359440 -98.210037 17,825 87 407 -1792
2018-10-10 20:14:21 GMT 32.358833 -98.226067 18,125 87 410 -1792
2018-10-10 20:14:18 GMT 32.357807 -98.250954 18,275 87 411 -1792
2018-10-10 20:14:10 GMT 32.357807 -98.250954 18,375 87 413 -1792
2018-10-10 20:14:05 GMT 32.357437 -98.260239 18,675 87 413 -1792
2018-10-10 20:13:58 GMT 32.356831 -98.274895 18,675 87 415 -1856
2018-10-10 20:13:55 GMT 32.356476 -98.283035 18,800 87 416 -1792
2018-10-10 20:13:47 GMT 32.355621 -98.303085 19,050 87 418 -1792
2018-10-10 20:13:44 GMT 32.355480 -98.306732 19,050 87 425 -1856
2018-10-10 20:13:35 GMT 32.354504 -98.329933 19,400 87 423 -1856
2018-10-10 20:13:32 GMT 32.354324 -98.334557 19,425 87 423 -1856
2018-10-10 20:13:26 GMT 32.353638 -98.350708 19,675 87 425 -1856
2018-10-10 20:13:22 GMT 32.353340 -98.357681 19,775 87 426 -1856
2018-10-10 20:13:13 GMT 32.352318 -98.381226 20,075 87 429 -1856
2018-10-10 20:13:02 GMT 32.351212 -98.406570 20,425 87 432 -1856
2018-10-10 20:12:51 GMT 32.350113 -98.433327 20,775 87 436 -1920
2018-10-10 20:12:40 GMT 32.348965 -98.459251 21,125 86 438 -1856
2018-10-10 20:12:29 GMT 32.347706 -98.485764 21,475 86 438 -1920
2018-10-10 20:12:18 GMT 32.346497 -98.511604 21,800 86 439 -1920
2018-10-10 20:12:07 GMT 32.345242 -98.538002 22,150 86 440 -1856
2018-10-10 20:11:56 GMT 32.343891 -98.566422 22,525 86 443 -1920
2018-10-10 20:11:45 GMT 32.342789 -98.591637 22,875 87 447 -1984
2018-10-10 20:11:36 GMT 32.341644 -98.618004 23,225 87 449 -2112
2018-10-10 20:11:27 GMT 32.340958 -98.633499 23,450 86 453 -2112
2018-10-10 20:11:21 GMT 32.340305 -98.648033 23,675 86 452 -2112
2018-10-10 20:11:14 GMT 32.339420 -98.668327 23,950 86 454 -2112
2018-10-10 20:11:11 GMT 32.339188 -98.673035 24,025 86 455 -2176
2018-10-10 20:11:06 GMT 32.338535 -98.687943 24,250 87 458 -2176
2018-10-10 20:11:01 GMT 32.338070 -98.698708 24,400 87 458 -2176
2018-10-10 20:10:55 GMT 32.336861 -98.726006 24,825 87 462 -2176
2018-10-10 20:10:51 GMT 32.336861 -98.726006 24,800 87 461 -2176
2018-10-10 20:10:44 GMT 32.336105 -98.743362 25,050 87 463 -2112
2018-10-10 20:10:39 GMT 32.335556 -98.755005 25,200 87 464 -2112
2018-10-10 20:10:33 GMT 32.334915 -98.770004 25,425 87 467 -2176
2018-10-10 20:10:29 GMT 32.334393 -98.781441 25,575 87 468 -2176
2018-10-10 20:10:18 GMT 32.333183 -98.808792 25,950 86 471 -2176
2018-10-10 20:10:11 GMT 32.332390 -98.827347 26,325 86 474 -2240
2018-10-10 20:10:05 GMT 32.331787 -98.840012 26,400 86 474 -2240
2018-10-10 20:09:58 GMT 32.330807 -98.861542 26,725 86 477 -2240
2018-10-10 20:09:55 GMT 32.330624 -98.865181 26,775 86 477 -2240
2018-10-10 20:09:48 GMT 32.329693 -98.885246 27,325 86 482 -2176
2018-10-10 20:09:44 GMT 32.329330 -98.893600 27,175 86 480 -2176
2018-10-10 20:09:37 GMT 32.328369 -98.913536 27,525 86 484 -2176
2018-10-10 20:09:34 GMT 32.326904 -98.945786 27,850 86 488 -2240
2018-10-10 20:09:25 GMT 32.326904 -98.945786 27,900 86 488 -2240
2018-10-10 20:09:22 GMT 32.326572 -98.952682 28,000 86 488 -2240
2018-10-10 20:09:14 GMT 32.325439 -98.977425 28,350 86 491 -2240
2018-10-10 20:09:11 GMT 32.325211 -98.982529 28,400 86 490 -2240
2018-10-10 20:09:03 GMT 32.323837 -99.011208 28,800 86 494 -2240
2018-10-10 20:08:53 GMT 32.322968 -99.030045 29,075 86 496 -2240
2018-10-10 20:08:49 GMT 32.321365 -99.064766 29,475 86 507 -2304
2018-10-10 20:08:41 GMT 32.321365 -99.064766 30,025 86 511 -2240
2018-10-10 20:08:38 GMT 32.321091 -99.070755 29,850 86 507 -2304
2018-10-10 20:08:30 GMT 32.320103 -99.092590 29,850 86 502 -2304
2018-10-10 20:08:27 GMT 32.319729 -99.101387 30,050 86 503 -2240
2018-10-10 20:08:20 GMT 32.318848 -99.119804 30,400 86 506 -2304
2018-10-10 20:08:17 GMT 32.318287 -99.131935 30,475 86 507 -2304
2018-10-10 20:08:10 GMT 32.317356 -99.150993 30,725 86 509 -2304
2018-10-10 20:08:05 GMT 32.316833 -99.161552 30,875 86 510 -2368
2018-10-10 20:07:59 GMT 32.315353 -99.191635 31,225 86 511 -2240
2018-10-10 20:07:55 GMT 32.315353 -99.191635 31,325 86 511 -2176
2018-10-10 20:07:49 GMT 32.314041 -99.217751 31,850 86 509 -2752
2018-10-10 20:07:43 GMT 32.313816 -99.221901 31,775 86 509 -3008
2018-10-10 20:07:39 GMT 32.313126 -99.236099 32,025 86 508 -3008
2018-10-10 20:07:36 GMT 32.312607 -99.245781 32,200 86 508 -3008
2018-10-10 20:07:32 GMT 32.312233 -99.253235 32,350 86 507 -2944
2018-10-10 20:07:25 GMT 32.311211 -99.274536 32,675 87 503 -3008
2018-10-10 20:07:21 GMT 32.310791 -99.283340 32,900 87 503 -3008
2018-10-10 20:07:17 GMT 32.310287 -99.295639 33,125 87 501 -3136
2018-10-10 20:07:13 GMT 32.309830 -99.306297 33,375 87 500 -3072
2018-10-10 20:07:10 GMT 32.309509 -99.313660 33,450 87 500 -2944
2018-10-10 20:07:07 GMT 32.308960 -99.326515 33,750 86 500 -2752
2018-10-10 20:07:03 GMT 32.308510 -99.335747 33,825 86 500 -2688
2018-10-10 20:07:00 GMT 32.308090 -99.344475 33,950 86 500 -2688
2018-10-10 20:06:53 GMT 32.306648 -99.374535 34,325 86 503 -1856
2018-10-10 20:06:49 GMT 32.306648 -99.374535 34,325 86 503 -1856
2018-10-10 20:06:44 GMT 32.306042 -99.386581 34,525 86 504 -1408
2018-10-10 20:06:41 GMT 32.305576 -99.396172 34,650 86 505 -1152
2018-10-10 20:06:38 GMT 32.305157 -99.404182 34,650 86 506 -1024
2018-10-10 20:06:33 GMT 32.304504 -99.417694 34,825 86 509 -960
2018-10-10 20:06:30 GMT 32.304043 -99.427391 34,825 86 508 -960
2018-10-10 20:06:26 GMT 32.303650 -99.434563 34,850 86 508 -960
2018-10-10 20:06:21 GMT 32.302876 -99.450371 34,925 86 509 -960
2018-10-10 20:06:18 GMT 32.302505 -99.458130 34,975 86 509 -960
2018-10-10 20:06:15 GMT 32.302139 -99.464775 35,025 86 509 -960
2018-10-10 20:06:11 GMT 32.301498 -99.477303 35,175 86 510 -960
2018-10-10 20:06:06 GMT 32.300831 -99.490898 35,175 86 510 -960
2018-10-10 20:06:02 GMT 32.300179 -99.503395 35,275 86 512 -960
2018-10-10 20:05:59 GMT 32.299850 -99.509270 35,275 86 511 -960
2018-10-10 20:05:53 GMT 32.298843 -99.528496 35,400 86 511 -960
2018-10-10 20:05:50 GMT 32.298386 -99.537125 35,425 86 512 -896
2018-10-10 20:05:43 GMT 32.297287 -99.558273 35,550 86 512 -960
2018-10-10 20:05:37 GMT 32.296547 -99.571953 35,600 86 512 -896
2018-10-10 20:05:33 GMT 32.295849 -99.585571 35,700 86 510 -960
2018-10-10 20:05:30 GMT 32.295475 -99.593079 35,875 86 509 -960
2018-10-10 20:05:26 GMT 32.294449 -99.612267 35,850 86 509 -960
2018-10-10 20:05:22 GMT 32.294449 -99.612267 35,875 86 509 -960
2018-10-10 20:05:19 GMT 32.293808 -99.624191 35,925 86 508 -960
2018-10-10 20:05:15 GMT 32.293472 -99.631363 36,000 86 504 -960
2018-10-10 20:05:12 GMT 32.292774 -99.644089 36,050 86 507 -960
2018-10-10 20:05:06 GMT 32.292126 -99.657372 36,275 86 504 -960
2018-10-10 20:05:00 GMT 32.291191 -99.675308 36,225 86 505 -960
2018-10-10 20:04:57 GMT 32.290695 -99.685768 36,375 86 504 -960
2018-10-10 20:04:51 GMT 32.289871 -99.702248 36,375 86 504 -960
2018-10-10 20:04:47 GMT 32.289551 -99.708290 36,425 86 504 -960
2018-10-10 20:04:43 GMT 32.289005 -99.719818 36,475 86 504 -960
2018-10-10 20:04:39 GMT 32.288261 -99.734673 36,600 86 504 -960
2018-10-10 20:04:35 GMT 32.287842 -99.743195 36,650 86 505 -1024
2018-10-10 20:04:32 GMT 32.287468 -99.750648 36,675 86 507 -1024
2018-10-10 20:04:25 GMT 32.286304 -99.773743 36,800 86 506 -1024
2018-10-10 20:04:22 GMT 32.286072 -99.778168 36,825 86 507 -1024
2018-10-10 20:04:16 GMT 32.285019 -99.797501 36,925 86 508 -896
2018-10-10 20:04:13 GMT 32.284653 -99.804146 36,975 86 509 -640
2018-10-10 20:04:05 GMT 32.283371 -99.827652 37,000 86 509 0
2018-10-10 20:04:02 GMT 32.283005 -99.834579 37,000 86 509 0
2018-10-10 20:03:59 GMT 32.282639 -99.841225 37,000 86 509 0
2018-10-10 20:03:54 GMT 32.281677 -99.858910 37,000 86 508 0
2018-10-10 20:03:51 GMT 32.281322 -99.865555 37,000 86 508 0
2018-10-10 20:03:47 GMT 32.280670 -99.876877 37,000 85 508 64
2018-10-10 20:03:41 GMT 32.279388 -99.893738 37,000 84 509 0
2018-10-10 20:03:36 GMT 32.278393 -99.905350 37,000 84 508 0
2018-10-10 20:03:29 GMT 32.276669 -99.925194 37,000 84 508 0
2018-10-10 20:03:26 GMT 32.275955 -99.933510 37,000 84 508 0
2018-10-10 20:03:19 GMT 32.274216 -99.953339 37,000 84 508 -64
2018-10-10 20:03:16 GMT 32.273392 -99.963005 37,000 84 508 0
2018-10-10 20:03:09 GMT 32.271687 -99.982590 37,000 84 507 0
2018-10-10 20:03:05 GMT 32.270756 -99.993301 37,000 84 507 64
2018-10-10 20:02:57 GMT 32.268906 -100.014206 37,000 84 506 0
2018-10-10 20:02:53 GMT 32.267899 -100.026016 37,000 84 506 0
2018-10-10 20:02:47 GMT 32.266472 -100.042236 37,000 84 505 0
2018-10-10 20:02:43 GMT 32.265404 -100.054001 37,000 84 505 0
2018-10-10 20:02:38 GMT 32.264282 -100.067154 37,000 84 504 0
2018-10-10 20:02:32 GMT 32.262749 -100.084381 37,000 84 504 64
2018-10-10 20:02:25 GMT 32.261261 -100.101051 37,000 84 503 0
2018-10-10 20:02:21 GMT 32.260002 -100.115547 37,000 84 502 0
2018-10-10 20:02:15 GMT 32.258789 -100.129173 37,000 83 502 0
2018-10-10 20:02:10 GMT 32.257347 -100.145256 37,000 83 502 0
2018-10-10 20:02:04 GMT 32.256138 -100.158600 37,000 83 502 0
2018-10-10 20:01:59 GMT 32.254715 -100.174660 37,000 84 502 0
2018-10-10 20:01:52 GMT 32.253159 -100.192123 37,000 84 502 0
2018-10-10 20:01:48 GMT 32.251995 -100.205177 37,000 84 502 0
2018-10-10 20:01:42 GMT 32.250923 -100.217735 37,000 84 502 0
2018-10-10 20:01:39 GMT 32.249954 -100.228600 37,000 84 502 0
2018-10-10 20:01:32 GMT 32.248398 -100.246017 37,000 84 501 0
2018-10-10 20:01:24 GMT 32.246567 -100.266724 37,000 83 501 0
2018-10-10 20:01:21 GMT 32.245850 -100.274849 37,000 83 501 0
2018-10-10 20:01:18 GMT 32.244781 -100.286568 37,000 83 501 0
2018-10-10 20:01:10 GMT 32.242813 -100.308304 37,000 84 501 0
2018-10-10 20:01:04 GMT 32.241348 -100.324898 37,000 84 501 0
2018-10-10 20:01:01 GMT 32.240639 -100.333031 37,000 84 501 0
2018-10-10 20:00:58 GMT 32.239975 -100.340111 37,000 83 501 64
2018-10-10 20:00:50 GMT 32.238052 -100.361862 37,000 84 501 0
2018-10-10 20:00:46 GMT 32.237137 -100.371971 37,000 83 501 0
2018-10-10 20:00:36 GMT 32.234528 -100.401031 37,000 83 501 0
2018-10-10 20:00:28 GMT 32.232815 -100.420364 37,000 83 501 0
2018-10-10 20:00:24 GMT 32.231934 -100.429840 37,000 83 501 0
2018-10-10 20:00:17 GMT 32.230022 -100.450523 37,000 83 501 64
2018-10-10 20:00:14 GMT 32.229218 -100.459206 37,000 83 502 64
2018-10-10 20:00:06 GMT 32.227203 -100.480957 36,975 83 502 0
2018-10-10 20:00:02 GMT 32.226067 -100.493233 37,000 83 501 -64
2018-10-10 19:59:55 GMT 32.224503 -100.510071 37,000 83 502 0
2018-10-10 19:59:51 GMT 32.223679 -100.519081 37,000 83 502 0
2018-10-10 19:59:44 GMT 32.221737 -100.540039 37,000 83 502 0
2018-10-10 19:59:40 GMT 32.220932 -100.548744 37,000 83 502 0
2018-10-10 19:59:33 GMT 32.219036 -100.569687 37,000 83 502 0
2018-10-10 19:59:30 GMT 32.218292 -100.578156 37,000 83 502 0
2018-10-10 19:59:22 GMT 32.215546 -100.608368 37,000 83 503 0
2018-10-10 19:59:12 GMT 32.213730 -100.627983 37,000 83 502 0
2018-10-10 19:59:07 GMT 32.212521 -100.641045 37,000 83 503 0
2018-10-10 19:59:01 GMT 32.210999 -100.657341 37,000 83 503 0
2018-10-10 19:58:55 GMT 32.209625 -100.672066 37,000 83 503 0
2018-10-10 19:58:49 GMT 32.208004 -100.689247 37,000 83 503 0
2018-10-10 19:58:43 GMT 32.206604 -100.704475 37,000 83 503 -64
2018-10-10 19:58:38 GMT 32.205368 -100.717819 37,000 83 503 0
2018-10-10 19:58:33 GMT 32.204094 -100.731461 37,000 83 503 0
2018-10-10 19:58:27 GMT 32.202530 -100.748093 37,000 83 503 0
2018-10-10 19:58:23 GMT 32.201393 -100.760323 37,000 83 503 0
2018-10-10 19:58:16 GMT 32.199810 -100.777473 37,000 83 503 0
2018-10-10 19:58:11 GMT 32.198460 -100.791656 37,000 83 503 0
2018-10-10 19:58:06 GMT 32.197174 -100.805824 37,000 83 503 0
2018-10-10 19:58:01 GMT 32.195663 -100.821587 37,000 83 503 0
2018-10-10 19:57:55 GMT 32.194290 -100.836311 37,000 83 503 0
2018-10-10 19:57:50 GMT 32.192871 -100.851303 37,000 83 503 0
2018-10-10 19:57:45 GMT 32.191570 -100.865143 37,000 83 503 64
2018-10-10 19:57:38 GMT 32.189987 -100.882065 37,000 83 503 64
2018-10-10 19:57:33 GMT 32.188732 -100.895409 37,000 83 503 0
2018-10-10 19:57:25 GMT 32.186554 -100.917992 37,000 83 503 0
2018-10-10 19:57:22 GMT 32.185890 -100.925064 37,000 83 503 0
2018-10-10 19:57:15 GMT 32.184029 -100.944679 37,000 83 503 0
2018-10-10 19:57:12 GMT 32.183144 -100.954208 37,000 83 503 0
2018-10-10 19:57:04 GMT 32.181282 -100.973770 37,000 83 503 0
2018-10-10 19:57:01 GMT 32.180397 -100.983299 37,000 83 503 0
2018-10-10 19:56:54 GMT 32.178394 -101.004486 37,000 83 503 0
2018-10-10 19:56:50 GMT 32.177605 -101.012390 37,000 83 503 0
2018-10-10 19:56:42 GMT 32.175659 -101.032799 37,000 83 502 0
2018-10-10 19:56:39 GMT 32.174652 -101.043678 37,000 83 502 0
2018-10-10 19:56:29 GMT 32.172112 -101.070572 37,000 83 502 0
2018-10-10 19:56:21 GMT 32.169159 -101.101028 37,000 83 502 0
2018-10-10 19:56:10 GMT 32.166962 -101.123604 37,000 83 502 0
2018-10-10 19:56:07 GMT 32.166321 -101.130356 37,000 83 502 0
2018-10-10 19:55:59 GMT 32.163548 -101.158913 37,000 83 502 0
2018-10-10 19:55:46 GMT 32.160645 -101.189079 37,000 83 502 0
2018-10-10 19:55:34 GMT 32.157776 -101.218445 37,000 83 502 0
2018-10-10 19:55:24 GMT 32.154980 -101.247475 37,000 83 502 0
2018-10-10 19:55:13 GMT 32.152176 -101.276260 37,000 83 502 0
2018-10-10 19:55:02 GMT 32.149246 -101.306358 37,000 83 502 0
2018-10-10 19:54:52 GMT 32.146183 -101.337334 37,000 83 502 0
2018-10-10 19:54:40 GMT 32.143433 -101.365028 37,000 83 502 0
2018-10-10 19:54:30 GMT 32.140640 -101.393478 37,000 83 502 0
2018-10-10 19:54:20 GMT 32.137848 -101.422043 37,000 83 502 0
2018-10-10 19:54:09 GMT 32.135056 -101.450836 37,000 83 502 0
2018-10-10 19:53:58 GMT 32.132172 -101.480431 37,000 83 502 0
2018-10-10 19:53:47 GMT 32.129150 -101.511147 37,000 83 502 0
2018-10-10 19:53:36 GMT 32.126175 -101.541306 37,000 83 503 0
2018-10-10 19:53:24 GMT 32.123138 -101.571739 37,000 83 503 0
2018-10-10 19:53:15 GMT 32.120224 -101.601120 37,000 83 503 0
2018-10-10 19:53:04 GMT 32.117413 -101.628860 37,000 83 503 0
2018-10-10 19:52:52 GMT 32.114479 -101.658569 37,000 83 504 0
2018-10-10 19:52:41 GMT 32.111454 -101.688782 37,000 83 504 0
2018-10-10 19:52:31 GMT 32.108551 -101.717690 37,000 83 504 0
2018-10-10 19:52:21 GMT 32.105728 -101.745728 37,000 83 504 0
2018-10-10 19:52:10 GMT 32.102600 -101.776520 37,000 83 504 0
2018-10-10 19:51:59 GMT 32.099583 -101.805931 37,000 83 504 0
2018-10-10 19:51:46 GMT 32.096138 -101.839447 37,000 83 504 0
2018-10-10 19:51:37 GMT 32.093491 -101.865616 37,000 83 504 0
2018-10-10 19:51:26 GMT 32.090412 -101.896172 37,000 83 505 -64
2018-10-10 19:51:14 GMT 32.087402 -101.925659 37,000 83 505 0
2018-10-10 19:51:05 GMT 32.084545 -101.953461 37,000 83 505 0
2018-10-10 19:51:02 GMT 32.084106 -101.957848 37,000 83 505 0
2018-10-10 19:50:52 GMT 32.081268 -101.985367 37,000 83 505 0
2018-10-10 19:50:41 GMT 32.078217 -102.014893 37,000 83 505 0
2018-10-10 19:50:31 GMT 32.075134 -102.044914 37,000 83 505 0
2018-10-10 19:50:21 GMT 32.072205 -102.073044 37,000 83 506 0
2018-10-10 19:50:10 GMT 32.069183 -102.102318 37,000 82 506 0
2018-10-10 19:49:59 GMT 32.066067 -102.131821 37,000 82 506 0
2018-10-10 19:49:47 GMT 32.062820 -102.162743 37,000 82 506 0
2018-10-10 19:49:37 GMT 32.059525 -102.193619 37,000 82 506 0
2018-10-10 19:49:26 GMT 32.056149 -102.225319 37,000 82 506 0
2018-10-10 19:49:17 GMT 32.053894 -102.246681 37,000 82 506 0
2018-10-10 19:49:14 GMT 32.052986 -102.255196 37,000 82 507 0
2018-10-10 19:49:06 GMT 32.049725 -102.286636 37,000 83 507 0
2018-10-10 19:48:55 GMT 32.047726 -102.305809 37,000 82 507 0
2018-10-10 19:48:52 GMT 32.046513 -102.317299 37,000 82 507 0
2018-10-10 19:48:45 GMT 32.044373 -102.337593 37,000 82 507 0
2018-10-10 19:48:40 GMT 32.043255 -102.348244 37,000 82 506 0
2018-10-10 19:48:33 GMT 32.041397 -102.366043 37,000 82 506 0
2018-10-10 19:48:29 GMT 32.040321 -102.375877 37,000 82 506 0
2018-10-10 19:48:23 GMT 32.038322 -102.395042 37,000 82 506 0
2018-10-10 19:48:18 GMT 32.037018 -102.407379 37,000 82 506 0
2018-10-10 19:48:12 GMT 32.035263 -102.424057 37,000 82 506 0
2018-10-10 19:48:08 GMT 32.033890 -102.436905 37,000 82 506 0
2018-10-10 19:48:01 GMT 32.031944 -102.455246 37,000 82 506 0
2018-10-10 19:47:56 GMT 32.030407 -102.469429 37,000 82 506 0
2018-10-10 19:47:51 GMT 32.028870 -102.483948 37,000 82 506 0
2018-10-10 19:47:45 GMT 32.027206 -102.499527 37,000 82 506 0
2018-10-10 19:47:39 GMT 32.025742 -102.513428 37,000 82 506 0
2018-10-10 19:47:35 GMT 32.024216 -102.527382 37,000 82 505 0
2018-10-10 19:47:29 GMT 32.022633 -102.542404 37,000 82 506 0
2018-10-10 19:47:24 GMT 32.021049 -102.557152 37,000 82 506 0
2018-10-10 19:47:18 GMT 32.019379 -102.572151 37,000 82 506 0
2018-10-10 19:47:13 GMT 32.017651 -102.587975 37,000 82 506 0
2018-10-10 19:47:08 GMT 32.016174 -102.601646 37,000 82 506 0
2018-10-10 19:47:02 GMT 32.014435 -102.617470 37,000 82 506 0
2018-10-10 19:46:56 GMT 32.012718 -102.632988 37,000 82 506 0
2018-10-10 19:46:51 GMT 32.011093 -102.648010 37,000 82 506 0
2018-10-10 19:46:46 GMT 32.009506 -102.662193 37,000 82 506 0
2018-10-10 19:46:38 GMT 32.007523 -102.680420 37,000 82 505 0
2018-10-10 19:46:34 GMT 32.006470 -102.689980 37,000 82 505 64
2018-10-10 19:46:27 GMT 32.004318 -102.709038 37,000 82 505 64
2018-10-10 19:46:24 GMT 32.003128 -102.720192 37,000 82 505 0
2018-10-10 19:46:16 GMT 32.001034 -102.739265 37,000 82 505 0
2018-10-10 19:46:12 GMT 31.999786 -102.750679 37,000 82 505 -64
2018-10-10 19:46:06 GMT 31.997820 -102.768356 37,000 82 505 -64
2018-10-10 19:46:03 GMT 31.996719 -102.778694 37,000 82 505 -64
2018-10-10 19:45:55 GMT 31.994568 -102.798302 37,000 82 504 0
2018-10-10 19:45:51 GMT 31.993469 -102.808357 37,000 82 504 0
2018-10-10 19:45:44 GMT 31.991364 -102.827911 37,000 82 504 0
2018-10-10 19:45:40 GMT 31.990278 -102.837692 37,000 82 504 0
2018-10-10 19:45:33 GMT 31.987885 -102.859390 37,000 82 503 0
2018-10-10 19:45:30 GMT 31.987106 -102.866417 37,000 82 503 0
2018-10-10 19:45:23 GMT 31.984772 -102.887840 37,000 82 503 64
2018-10-10 19:45:20 GMT 31.984131 -102.893829 37,000 82 503 64
2018-10-10 19:45:11 GMT 31.981339 -102.919044 37,000 82 503 0
2018-10-10 19:45:07 GMT 31.980286 -102.928543 37,000 82 503 0
2018-10-10 19:44:58 GMT 31.977617 -102.953499 37,000 82 502 0
2018-10-10 19:44:49 GMT 31.974871 -102.978386 37,000 82 502 0
2018-10-10 19:44:46 GMT 31.974289 -102.983810 37,000 82 502 0
2018-10-10 19:44:36 GMT 31.971100 -103.012466 37,000 82 501 0
2018-10-10 19:44:26 GMT 31.967972 -103.040550 37,000 82 501 0
2018-10-10 19:44:14 GMT 31.964584 -103.070488 37,000 82 501 0
2018-10-10 19:44:03 GMT 31.961323 -103.099625 37,000 82 500 0
2018-10-10 19:43:53 GMT 31.958158 -103.127426 37,000 82 500 0
2018-10-10 19:43:43 GMT 31.954666 -103.158424 37,000 82 500 0
2018-10-10 19:43:32 GMT 31.951502 -103.187012 37,000 82 501 0
2018-10-10 19:43:21 GMT 31.948242 -103.216385 37,000 82 500 0
2018-10-10 19:43:10 GMT 31.943541 -103.258987 37,000 82 500 0
2018-10-10 19:42:59 GMT 31.942062 -103.272690 37,000 82 499 0
2018-10-10 19:42:54 GMT 31.940231 -103.289665 37,000 82 499 0
2018-10-10 19:42:49 GMT 31.938858 -103.302078 37,000 82 499 -64
2018-10-10 19:42:41 GMT 31.936844 -103.320923 37,000 82 499 0
2018-10-10 19:42:38 GMT 31.935814 -103.330620 37,000 82 499 0
2018-10-10 19:42:30 GMT 31.933456 -103.352180 37,000 82 499 0
2018-10-10 19:42:27 GMT 31.932648 -103.359428 37,000 82 499 0
2018-10-10 19:42:19 GMT 31.930040 -103.383644 37,000 82 499 64
2018-10-10 19:42:16 GMT 31.929436 -103.389305 37,000 82 499 64
2018-10-10 19:42:06 GMT 31.926270 -103.418121 37,000 82 499 0
2018-10-10 19:41:57 GMT 31.923616 -103.442673 37,000 82 500 0
2018-10-10 19:41:54 GMT 31.923019 -103.448311 37,000 82 500 0
2018-10-10 19:41:44 GMT 31.919891 -103.476578 37,000 82 500 0
2018-10-10 19:41:35 GMT 31.917160 -103.501152 37,000 82 500 0
2018-10-10 19:41:32 GMT 31.916540 -103.506516 37,000 82 500 0
2018-10-10 19:41:25 GMT 31.914026 -103.528091 37,000 82 500 0
2018-10-10 19:41:22 GMT 31.913189 -103.535324 37,000 82 500 0
2018-10-10 19:41:14 GMT 31.910488 -103.557968 37,000 81 501 0
2018-10-10 19:41:11 GMT 31.909603 -103.565254 37,000 81 501 0
2018-10-10 19:41:03 GMT 31.906672 -103.588684 37,000 81 502 0
2018-10-10 19:40:59 GMT 31.905832 -103.595413 37,000 81 502 0
2018-10-10 19:40:52 GMT 31.902946 -103.617554 37,000 80 502 0
2018-10-10 19:40:48 GMT 31.901783 -103.626411 37,000 80 502 0
2018-10-10 19:40:41 GMT 31.898991 -103.646927 37,000 82 502 0
2018-10-10 19:40:38 GMT 31.897873 -103.655785 37,000 82 502 0
2018-10-10 19:40:31 GMT 31.895050 -103.685066 37,000 84 502 0
2018-10-10 19:40:27 GMT 31.895050 -103.685066 37,000 86 502 0
2018-10-10 19:40:18 GMT 31.893997 -103.707092 37,000 88 501 -64
2018-10-10 19:40:15 GMT 31.893869 -103.716881 37,000 90 500 -64
2018-10-10 19:40:08 GMT 31.894287 -103.737000 37,000 92 500 -64
2018-10-10 19:40:03 GMT 31.894661 -103.747597 37,000 92 500 0
2018-10-10 19:39:57 GMT 31.895359 -103.767662 37,000 92 501 0
2018-10-10 19:39:51 GMT 31.895782 -103.781250 37,000 92 501 0
2018-10-10 19:39:45 GMT 31.896378 -103.798660 37,000 92 501 0
2018-10-10 19:39:40 GMT 31.896744 -103.810364 37,000 92 501 0
2018-10-10 19:39:35 GMT 31.897266 -103.825844 37,000 92 502 0
2018-10-10 19:39:31 GMT 31.897593 -103.835938 37,000 92 502 0
2018-10-10 19:39:27 GMT 31.898012 -103.848991 37,000 92 502 0
2018-10-10 19:39:24 GMT 31.898254 -103.856949 37,000 92 503 0
2018-10-10 19:39:19 GMT 31.898621 -103.867271 37,000 92 503 0
2018-10-10 19:39:15 GMT 31.898991 -103.878197 37,000 92 503 0
2018-10-10 19:39:12 GMT 31.899261 -103.886391 37,000 92 504 0
2018-10-10 19:39:08 GMT 31.899689 -103.899498 37,000 92 504 0
2018-10-10 19:39:05 GMT 31.899921 -103.906334 37,000 92 504 64
2018-10-10 19:39:02 GMT 31.900248 -103.915924 37,000 92 504 64
2018-10-10 19:38:58 GMT 31.900635 -103.926872 37,000 92 504 0
2018-10-10 19:38:55 GMT 31.900955 -103.936432 37,000 92 504 0
2018-10-10 19:38:51 GMT 31.901272 -103.946304 37,000 92 504 0
2018-10-10 19:38:47 GMT 31.901737 -103.958916 37,000 92 504 0
2018-10-10 19:38:43 GMT 31.901962 -103.966316 37,000 92 504 0
2018-10-10 19:38:40 GMT 31.902328 -103.976425 37,000 92 504 0
2018-10-10 19:38:35 GMT 31.902714 -103.987671 37,000 92 505 64
2018-10-10 19:38:29 GMT 31.903336 -104.007622 37,000 92 505 64
2018-10-10 19:38:23 GMT 31.903793 -104.021629 37,000 92 505 64
2018-10-10 19:38:18 GMT 31.904249 -104.036659 37,000 92 505 0
2018-10-10 19:38:13 GMT 31.904663 -104.048767 37,000 92 505 -64
2018-10-10 19:38:07 GMT 31.905212 -104.067390 37,000 92 506 -64
2018-10-10 19:37:56 GMT 31.906128 -104.097328 37,000 91 506 -64
2018-10-10 19:37:43 GMT 31.907043 -104.130043 37,025 91 507 -64
2018-10-10 19:37:37 GMT 31.907593 -104.150116 37,025 91 507 0
2018-10-10 19:37:32 GMT 31.907928 -104.160591 37,000 91 507 0
2018-10-10 19:37:25 GMT 31.908487 -104.180939 37,000 91 508 64
2018-10-10 19:37:22 GMT 31.908766 -104.190018 37,000 91 508 64
2018-10-10 19:37:16 GMT 31.909195 -104.205765 37,000 91 508 64
2018-10-10 19:37:12 GMT 31.909561 -104.219276 37,000 91 509 64
2018-10-10 19:37:08 GMT 31.909883 -104.230881 37,000 91 510 64
2018-10-10 19:37:01 GMT 31.910395 -104.249718 36,975 91 510 64
2018-10-10 19:36:56 GMT 31.910660 -104.260201 36,975 91 510 0
2018-10-10 19:36:49 GMT 31.911280 -104.281555 37,000 91 510 -64
2018-10-10 19:36:46 GMT 31.911575 -104.290962 37,000 91 510 -128
2018-10-10 19:36:38 GMT 31.912170 -104.312271 37,000 91 509 0
2018-10-10 19:36:35 GMT 31.912399 -104.320297 37,000 91 509 0
2018-10-10 19:36:28 GMT 31.912949 -104.340729 37,000 91 509 0
2018-10-10 19:36:23 GMT 31.913269 -104.352097 37,000 91 509 0
2018-10-10 19:36:17 GMT 31.913773 -104.370834 37,000 91 509 -64
2018-10-10 19:36:14 GMT 31.914047 -104.379951 37,000 91 509 -64
2018-10-10 19:36:05 GMT 31.914679 -104.402908 37,000 91 509 -64
2018-10-10 19:36:02 GMT 31.914911 -104.411430 37,000 91 509 -64
2018-10-10 19:35:55 GMT 31.915516 -104.432671 37,000 91 508 0
2018-10-10 19:35:51 GMT 31.915842 -104.443993 37,000 92 508 0
2018-10-10 19:35:44 GMT 31.916401 -104.462769 37,000 92 508 0
2018-10-10 19:35:39 GMT 31.916794 -104.476028 37,000 92 509 0
2018-10-10 19:35:33 GMT 31.917286 -104.491753 37,000 92 509 0
2018-10-10 19:35:28 GMT 31.917755 -104.506950 37,000 92 509 0
2018-10-10 19:35:22 GMT 31.918213 -104.522171 37,000 91 509 0
2018-10-10 19:35:16 GMT 31.918634 -104.538445 37,000 91 509 64
2018-10-10 19:35:10 GMT 31.919054 -104.553070 37,000 91 509 64
2018-10-10 19:34:59 GMT 31.919846 -104.582611 37,000 91 508 64
2018-10-10 19:34:52 GMT 31.920450 -104.605537 37,000 91 508 64
2018-10-10 19:34:48 GMT 31.920731 -104.614616 37,000 91 508 64
2018-10-10 19:34:44 GMT 31.921057 -104.627625 37,000 91 508 0
2018-10-10 19:34:38 GMT 31.921417 -104.641922 37,000 91 508 0
2018-10-10 19:34:33 GMT 31.922195 -104.672241 37,000 91 508 64
2018-10-10 19:34:27 GMT 31.922195 -104.672241 37,000 91 508 64
2018-10-10 19:34:16 GMT 31.922964 -104.703407 37,000 91 508 -64
2018-10-10 19:34:06 GMT 31.923660 -104.732063 37,000 91 507 -64
2018-10-10 19:33:58 GMT 31.924118 -104.751892 37,000 91 507 0
2018-10-10 19:33:55 GMT 31.924393 -104.762604 37,000 91 507 0
2018-10-10 19:33:47 GMT 31.924850 -104.781334 37,000 91 507 0
2018-10-10 19:33:44 GMT 31.925152 -104.793991 37,000 91 507 0
2018-10-10 19:33:36 GMT 31.925583 -104.811874 37,000 91 507 0
2018-10-10 19:33:32 GMT 31.926178 -104.835281 37,000 91 507 -64
2018-10-10 19:33:26 GMT 31.926270 -104.840508 37,000 91 507 -64
2018-10-10 19:33:22 GMT 31.926641 -104.854805 37,000 91 507 -64
2018-10-10 19:33:14 GMT 31.927155 -104.875153 37,000 91 507 -64
2018-10-10 19:33:10 GMT 31.927368 -104.882851 37,000 91 506 64
2018-10-10 19:33:03 GMT 31.927944 -104.905701 37,000 91 506 64
2018-10-10 19:32:59 GMT 31.928146 -104.914490 37,000 91 507 64
2018-10-10 19:32:54 GMT 31.928596 -104.930702 37,000 91 507 64
2018-10-10 19:32:49 GMT 31.928879 -104.942833 37,000 91 507 64
2018-10-10 19:32:43 GMT 31.929295 -104.959625 37,000 91 507 64
2018-10-10 19:32:38 GMT 31.929611 -104.973373 37,000 91 507 0
2018-10-10 19:32:32 GMT 31.929977 -104.989914 37,000 91 508 0
2018-10-10 19:32:28 GMT 31.930252 -105.001778 37,000 91 507 -64
2018-10-10 19:32:21 GMT 31.930664 -105.019409 37,000 91 507 0
2018-10-10 19:32:17 GMT 31.930939 -105.032921 37,000 91 507 0
2018-10-10 19:32:11 GMT 31.931305 -105.049454 37,000 91 507 0
2018-10-10 19:32:06 GMT 31.931623 -105.062927 37,000 91 508 0
2018-10-10 19:32:01 GMT 31.931902 -105.075317 37,000 91 508 0
2018-10-10 19:31:55 GMT 31.932266 -105.092690 37,000 91 508 0
2018-10-10 19:31:50 GMT 31.932541 -105.105103 37,000 91 508 0
2018-10-10 19:31:46 GMT 31.932816 -105.115868 37,000 91 508 0
2018-10-10 19:31:43 GMT 31.932953 -105.122787 37,000 91 508 0
2018-10-10 19:31:39 GMT 31.933207 -105.134903 37,000 91 508 0
2018-10-10 19:31:36 GMT 31.933346 -105.142357 37,000 91 508 0
2018-10-10 19:31:33 GMT 31.933548 -105.152290 37,000 91 508 0
2018-10-10 19:31:28 GMT 31.934143 -105.181839 37,000 91 509 0
2018-10-10 19:31:22 GMT 31.934143 -105.181839 37,000 91 509 0
2018-10-10 19:31:18 GMT 31.934372 -105.193436 37,000 91 509 0
2018-10-10 19:31:11 GMT 31.934742 -105.211693 37,000 91 509 0
2018-10-10 19:31:08 GMT 31.934967 -105.222435 37,000 91 509 0
2018-10-10 19:31:03 GMT 31.935196 -105.233261 37,000 91 509 0
2018-10-10 19:31:00 GMT 31.935394 -105.242630 37,000 91 509 0
2018-10-10 19:30:57 GMT 31.935579 -105.252838 37,000 91 509 0
2018-10-10 19:30:53 GMT 31.935766 -105.262535 37,000 91 509 0
2018-10-10 19:30:50 GMT 31.936020 -105.273575 37,000 91 509 0
2018-10-10 19:30:46 GMT 31.936186 -105.282433 37,000 91 509 64
2018-10-10 19:30:39 GMT 31.936604 -105.302887 37,000 91 510 0
2018-10-10 19:30:35 GMT 31.936790 -105.311462 37,000 91 510 0
2018-10-10 19:30:28 GMT 31.937302 -105.334450 37,000 91 510 -64
2018-10-10 19:30:24 GMT 31.937439 -105.341362 37,000 91 510 -64
2018-10-10 19:30:17 GMT 31.937908 -105.363480 37,000 91 510 -64
2018-10-10 19:30:13 GMT 31.938080 -105.372620 37,000 91 510 0
2018-10-10 19:30:06 GMT 31.938538 -105.393936 37,000 91 510 0
2018-10-10 19:29:53 GMT 31.939304 -105.430183 37,000 91 510 64
2018-10-10 19:29:44 GMT 31.939863 -105.456528 37,000 91 511 0
2018-10-10 19:29:41 GMT 31.939957 -105.460960 37,000 91 511 0
2018-10-10 19:29:31 GMT 31.940552 -105.490067 37,000 91 511 0
2018-10-10 19:29:20 GMT 31.941214 -105.521156 37,000 91 511 0
2018-10-10 19:29:10 GMT 31.941788 -105.547798 37,000 91 511 -64
2018-10-10 19:29:00 GMT 31.942423 -105.577271 37,000 91 511 -64
2018-10-10 19:28:49 GMT 31.943121 -105.608093 37,000 91 512 0
2018-10-10 19:28:36 GMT 31.943802 -105.640633 37,000 91 512 0
2018-10-10 19:28:27 GMT 31.944378 -105.668182 37,000 91 513 64
2018-10-10 19:28:15 GMT 31.945030 -105.699684 37,000 91 514 0
2018-10-10 19:28:04 GMT 31.945587 -105.730667 37,000 91 514 0
2018-10-10 19:27:56 GMT 31.945999 -105.754944 37,000 91 514 0
2018-10-10 19:27:51 GMT 31.946182 -105.766426 37,000 91 514 0
2018-10-10 19:27:45 GMT 31.946548 -105.785378 37,000 91 514 0
2018-10-10 19:27:41 GMT 31.946753 -105.795708 37,000 91 513 0
2018-10-10 19:27:34 GMT 31.947098 -105.814926 37,000 91 513 64
2018-10-10 19:27:31 GMT 31.947281 -105.824104 37,000 91 513 64
2018-10-10 19:27:23 GMT 31.947693 -105.846405 37,000 91 513 0
2018-10-10 19:27:20 GMT 31.947830 -105.854538 37,000 91 513 0
2018-10-10 19:27:12 GMT 31.948427 -105.887131 37,000 91 513 0
2018-10-10 19:27:01 GMT 31.948753 -105.904953 37,000 91 513 0
2018-10-10 19:26:51 GMT 31.949266 -105.934830 37,000 91 513 0
2018-10-10 19:26:48 GMT 31.949432 -105.946213 37,000 91 513 -64
2018-10-10 19:26:40 GMT 31.949707 -105.964615 37,000 91 513 0
2018-10-10 19:26:35 GMT 31.949965 -105.978546 37,000 91 513 0
2018-10-10 19:26:29 GMT 31.950245 -105.995308 37,000 91 513 0
2018-10-10 19:26:25 GMT 31.950439 -106.007576 37,000 91 513 0
2018-10-10 19:26:19 GMT 31.950756 -106.024010 37,000 91 513 0
2018-10-10 19:26:13 GMT 31.950989 -106.039322 37,000 91 513 0
2018-10-10 19:26:09 GMT 31.951218 -106.052399 37,000 91 513 0
2018-10-10 19:26:03 GMT 31.951548 -106.070534 37,000 91 513 0
2018-10-10 19:25:58 GMT 31.951767 -106.082230 37,000 91 513 0
2018-10-10 19:25:47 GMT 31.952316 -106.113426 37,000 91 513 0
2018-10-10 19:25:37 GMT 31.952820 -106.141556 37,000 91 513 0
2018-10-10 19:25:25 GMT 31.953363 -106.172997 37,000 91 513 0
2018-10-10 19:25:15 GMT 31.953781 -106.201981 37,000 91 512 0
2018-10-10 19:25:05 GMT 31.954853 -106.230843 37,000 94 510 0
2018-10-10 19:24:54 GMT 31.957413 -106.261505 37,000 97 509 0
2018-10-10 19:24:43 GMT 31.961197 -106.289925 37,000 101 507 -64
2018-10-10 19:24:32 GMT 31.966461 -106.319313 37,000 104 506 -64
2018-10-10 19:24:21 GMT 31.973053 -106.347931 37,000 105 503 0
2018-10-10 19:24:11 GMT 31.979666 -106.375343 37,000 105 503 64
2018-10-10 19:24:00 GMT 31.986322 -106.402977 37,000 105 503 0
2018-10-10 19:23:49 GMT 31.993351 -106.432243 37,000 105 503 0
2018-10-10 19:23:38 GMT 32.000195 -106.460716 37,000 105 503 0
2018-10-10 19:23:28 GMT 32.006805 -106.488403 37,000 105 503 0
2018-10-10 19:23:18 GMT 32.013382 -106.515800 37,000 105 503 0
2018-10-10 19:23:06 GMT 32.020477 -106.545631 37,000 105 504 0
2018-10-10 19:22:56 GMT 32.026775 -106.572037 37,000 105 504 0
2018-10-10 19:22:46 GMT 32.033478 -106.600288 37,000 105 504 0
2018-10-10 19:22:35 GMT 32.039764 -106.626968 37,000 105 504 0
2018-10-10 19:22:25 GMT 32.046616 -106.655769 37,000 105 504 0
2018-10-10 19:22:14 GMT 32.053078 -106.682686 37,000 105 504 0
2018-10-10 19:22:04 GMT 32.059875 -106.711212 37,000 105 504 0
2018-10-10 19:21:52 GMT 32.066952 -106.740585 37,000 105 505 0
2018-10-10 19:21:42 GMT 32.073532 -106.768105 37,000 105 505 0
2018-10-10 19:21:32 GMT 32.080261 -106.796173 37,000 105 505 0
2018-10-10 19:21:21 GMT 32.087311 -106.825562 37,000 105 505 0
2018-10-10 19:21:10 GMT 32.093578 -106.852074 37,000 105 506 0
2018-10-10 19:21:00 GMT 32.100220 -106.880440 37,000 105 506 0
2018-10-10 19:20:49 GMT 32.106766 -106.908340 37,000 105 506 0
2018-10-10 19:20:39 GMT 32.113312 -106.936195 37,000 105 506 0
2018-10-10 19:20:28 GMT 32.119926 -106.964348 37,000 105 506 0
2018-10-10 19:20:17 GMT 32.126633 -106.992722 37,000 105 506 0
2018-10-10 19:20:07 GMT 32.133427 -107.021408 37,000 105 506 0
2018-10-10 19:19:56 GMT 32.139999 -107.049026 37,000 105 506 0
2018-10-10 19:19:46 GMT 32.146637 -107.077148 37,000 105 506 64
2018-10-10 19:19:35 GMT 32.153320 -107.105545 37,000 105 506 64
2018-10-10 19:19:24 GMT 32.160416 -107.135269 37,000 105 506 0
2018-10-10 19:19:14 GMT 32.167038 -107.163445 37,000 105 506 0
2018-10-10 19:19:02 GMT 32.173782 -107.192123 37,000 105 506 0
2018-10-10 19:18:51 GMT 32.180557 -107.221344 37,000 105 505 0
2018-10-10 19:18:42 GMT 32.186962 -107.248985 37,000 105 505 0
2018-10-10 19:18:31 GMT 32.193386 -107.276619 37,000 105 504 0
2018-10-10 19:18:20 GMT 32.199921 -107.304733 37,000 105 504 0
2018-10-10 19:18:10 GMT 32.206604 -107.333626 37,000 105 503 0
2018-10-10 19:17:59 GMT 32.213078 -107.361427 37,000 105 503 0
2018-10-10 19:17:48 GMT 32.219780 -107.390289 37,000 105 504 0
2018-10-10 19:17:38 GMT 32.226067 -107.417587 37,000 105 504 0
2018-10-10 19:17:26 GMT 32.232651 -107.446289 37,000 105 504 0
2018-10-10 19:17:16 GMT 32.239239 -107.475212 37,000 105 504 0
2018-10-10 19:17:05 GMT 32.245525 -107.502731 37,000 105 503 0
2018-10-10 19:16:54 GMT 32.252319 -107.532166 37,000 105 503 0
2018-10-10 19:16:44 GMT 32.258373 -107.558334 37,000 105 502 0
2018-10-10 19:16:33 GMT 32.265060 -107.587189 37,000 105 502 0
2018-10-10 19:16:22 GMT 32.271641 -107.615738 37,000 105 502 0
2018-10-10 19:16:12 GMT 32.278015 -107.643768 37,000 105 502 0
2018-10-10 19:16:01 GMT 32.284302 -107.671227 37,000 105 501 0
2018-10-10 19:15:51 GMT 32.290775 -107.699478 37,000 105 501 0
2018-10-10 19:15:40 GMT 32.297199 -107.727730 37,000 105 501 0
2018-10-10 19:15:29 GMT 32.303528 -107.755478 37,000 105 501 0
2018-10-10 19:15:19 GMT 32.310104 -107.784225 37,000 105 501 0
2018-10-10 19:15:08 GMT 32.316330 -107.811417 37,000 105 501 0
2018-10-10 19:14:58 GMT 32.322754 -107.839386 37,000 105 501 0
2018-10-10 19:14:45 GMT 32.330246 -107.871841 37,000 105 501 0
2018-10-10 19:14:36 GMT 32.335968 -107.896729 37,000 105 502 0
2018-10-10 19:14:26 GMT 32.342354 -107.924477 37,000 105 502 0
2018-10-10 19:14:15 GMT 32.348602 -107.951988 37,000 105 502 -64
2018-10-10 19:14:04 GMT 32.355148 -107.980881 37,000 104 501 0
2018-10-10 19:13:52 GMT 32.362198 -108.012085 37,000 104 501 0
2018-10-10 19:13:44 GMT 32.367828 -108.037247 37,000 104 501 0
2018-10-10 19:13:32 GMT 32.374146 -108.065536 37,000 104 501 0
2018-10-10 19:13:29 GMT 32.376297 -108.075089 37,000 104 501 0
2018-10-10 19:13:22 GMT 32.381104 -108.096786 37,000 104 501 0
2018-10-10 19:13:11 GMT 32.387554 -108.125648 37,000 104 501 0
2018-10-10 19:12:59 GMT 32.393978 -108.154457 37,000 104 501 0
2018-10-10 19:12:48 GMT 32.400169 -108.182259 37,000 104 502 0
2018-10-10 19:12:38 GMT 32.406456 -108.210625 37,000 104 502 0
2018-10-10 19:12:28 GMT 32.412643 -108.238785 37,000 104 502 0
2018-10-10 19:12:17 GMT 32.419373 -108.268997 37,000 104 502 0
2018-10-10 19:12:06 GMT 32.425636 -108.297112 37,000 104 502 -64
2018-10-10 19:11:55 GMT 32.432060 -108.325752 37,000 104 502 0
2018-10-10 19:11:44 GMT 32.437923 -108.352043 37,000 104 502 0
2018-10-10 19:11:41 GMT 32.439835 -108.360519 37,000 104 502 0
2018-10-10 19:11:35 GMT 32.443417 -108.376709 37,000 104 502 0
2018-10-10 19:11:32 GMT 32.445190 -108.384689 37,000 104 502 0
2018-10-10 19:11:24 GMT 32.449749 -108.405128 37,000 104 502 0
2018-10-10 19:11:19 GMT 32.453056 -108.419983 37,000 104 502 0
2018-10-10 19:11:12 GMT 32.457687 -108.440933 37,000 104 502 0
2018-10-10 19:11:08 GMT 32.459805 -108.450531 37,000 104 502 0
2018-10-10 19:11:01 GMT 32.464043 -108.469643 37,000 104 502 0
2018-10-10 19:10:57 GMT 32.465607 -108.476532 37,000 104 502 0
2018-10-10 19:10:53 GMT 32.468975 -108.491615 37,000 104 502 0
2018-10-10 19:10:50 GMT 32.472141 -108.505966 37,000 104 502 0
2018-10-10 19:10:41 GMT 32.474934 -108.518463 37,000 104 502 0
2018-10-10 19:10:37 GMT 32.478333 -108.533821 37,000 104 502 0
2018-10-10 19:10:31 GMT 32.481354 -108.547394 37,000 104 502 0
2018-10-10 19:10:28 GMT 32.483685 -108.557983 37,000 104 502 0
2018-10-10 19:10:20 GMT 32.487690 -108.576035 37,000 104 502 0
2018-10-10 19:10:17 GMT 32.490051 -108.586670 37,000 104 502 0
2018-10-10 19:10:14 GMT 32.490993 -108.590881 37,000 104 502 0
2018-10-10 19:10:09 GMT 32.493805 -108.603645 37,000 104 502 0
2018-10-10 19:10:04 GMT 32.497326 -108.619865 37,000 104 502 0
2018-10-10 19:09:59 GMT 32.499939 -108.631821 37,000 104 502 0
2018-10-10 19:09:56 GMT 32.501842 -108.640327 37,000 104 502 0
2018-10-10 19:09:52 GMT 32.504013 -108.650391 37,000 104 502 0
2018-10-10 19:09:48 GMT 32.506073 -108.659676 37,000 104 502 0
2018-10-10 19:09:42 GMT 32.509735 -108.676430 37,000 104 502 0
2018-10-10 19:09:37 GMT 32.512894 -108.690712 37,000 104 502 0
2018-10-10 19:09:33 GMT 32.515503 -108.702682 37,000 104 502 0
2018-10-10 19:09:27 GMT 32.518600 -108.716721 37,000 104 502 0
2018-10-10 19:09:21 GMT 32.521912 -108.731857 37,000 104 501 0
2018-10-10 19:09:16 GMT 32.525070 -108.746208 37,000 104 501 0
2018-10-10 19:09:11 GMT 32.528046 -108.759705 37,000 104 501 0
2018-10-10 19:09:05 GMT 32.531170 -108.774010 37,000 104 501 0
2018-10-10 19:09:01 GMT 32.534363 -108.788597 37,000 104 501 0
2018-10-10 19:08:54 GMT 32.537888 -108.804474 37,000 104 501 0
2018-10-10 19:08:48 GMT 32.541367 -108.820404 37,000 104 500 0
2018-10-10 19:08:43 GMT 32.543877 -108.832024 37,000 104 500 0
2018-10-10 19:08:38 GMT 32.547226 -108.847153 37,000 104 500 0
2018-10-10 19:08:34 GMT 32.549511 -108.857750 37,000 104 500 0
2018-10-10 19:08:29 GMT 32.553131 -108.874184 37,000 104 500 0
2018-10-10 19:08:23 GMT 32.555740 -108.886375 37,000 104 500 0
2018-10-10 19:08:17 GMT 32.559288 -108.902596 37,000 104 501 0
2018-10-10 19:08:13 GMT 32.561989 -108.915039 37,000 104 501 0
2018-10-10 19:08:07 GMT 32.565353 -108.930710 37,000 104 501 0
2018-10-10 19:08:00 GMT 32.569061 -108.947739 37,000 104 501 0
2018-10-10 19:07:56 GMT 32.571899 -108.960754 37,000 104 501 0
2018-10-10 19:07:50 GMT 32.574604 -108.973221 37,000 104 501 0
2018-10-10 19:07:45 GMT 32.577862 -108.988358 37,000 104 501 0
2018-10-10 19:07:41 GMT 32.580235 -108.999283 37,000 104 501 0
2018-10-10 19:07:33 GMT 32.584660 -109.019745 37,000 104 501 0
2018-10-10 19:07:30 GMT 32.586704 -109.029053 37,000 104 501 0
2018-10-10 19:07:23 GMT 32.590385 -109.046089 37,000 104 501 0
2018-10-10 19:07:18 GMT 32.593185 -109.058861 37,000 104 502 0
2018-10-10 19:07:14 GMT 32.595657 -109.070290 37,000 104 502 0
2018-10-10 19:07:08 GMT 32.598949 -109.085495 37,000 104 502 0
2018-10-10 19:07:02 GMT 32.603092 -109.104607 37,000 104 502 0
2018-10-10 19:06:58 GMT 32.605095 -109.113968 37,000 104 502 0
2018-10-10 19:06:51 GMT 32.609436 -109.133896 37,000 104 502 0
2018-10-10 19:06:47 GMT 32.611286 -109.142441 37,000 104 502 0
2018-10-10 19:06:40 GMT 32.615707 -109.162903 37,000 104 501 0
2018-10-10 19:06:35 GMT 32.617950 -109.173286 37,000 104 501 0
2018-10-10 19:06:29 GMT 32.621613 -109.190315 37,000 104 501 0
2018-10-10 19:06:26 GMT 32.623764 -109.200150 37,000 104 501 0
2018-10-10 19:06:21 GMT 32.626415 -109.212395 37,000 104 502 0
2018-10-10 19:06:18 GMT 32.627953 -109.219574 37,000 104 502 0
2018-10-10 19:06:15 GMT 32.629578 -109.227066 37,000 104 502 0
2018-10-10 19:06:10 GMT 32.632465 -109.240646 37,000 104 502 -64
2018-10-10 19:06:04 GMT 32.635773 -109.255783 37,000 104 502 0
2018-10-10 19:05:59 GMT 32.638844 -109.270187 37,000 104 501 0
2018-10-10 19:05:54 GMT 32.642075 -109.285072 37,000 104 501 0
2018-10-10 19:05:49 GMT 32.644684 -109.297318 37,000 104 501 0
2018-10-10 19:05:46 GMT 32.646618 -109.306396 37,000 104 501 0
2018-10-10 19:05:42 GMT 32.648155 -109.313576 37,000 104 501 0
2018-10-10 19:05:35 GMT 32.652878 -109.335663 37,000 104 501 0
2018-10-10 19:05:31 GMT 32.654434 -109.342804 37,000 104 501 0
2018-10-10 19:05:28 GMT 32.656998 -109.354782 37,000 104 501 0
2018-10-10 19:05:24 GMT 32.659283 -109.365417 37,000 104 501 0
2018-10-10 19:05:21 GMT 32.660679 -109.372093 37,000 104 501 0
2018-10-10 19:05:17 GMT 32.663040 -109.383232 37,000 104 501 0
2018-10-10 19:05:11 GMT 32.666199 -109.398117 37,000 104 501 0
2018-10-10 19:05:05 GMT 32.669010 -109.411438 37,000 104 501 0
2018-10-10 19:05:01 GMT 32.672470 -109.427620 37,000 104 501 0
2018-10-10 19:04:58 GMT 32.673294 -109.431618 37,000 104 501 0
2018-10-10 19:04:55 GMT 32.675156 -109.440422 37,000 104 501 0
2018-10-10 19:04:48 GMT 32.678696 -109.457169 37,000 103 500 0
2018-10-10 19:04:44 GMT 32.681122 -109.468597 37,000 104 499 0
2018-10-10 19:04:38 GMT 32.684559 -109.484810 37,000 104 499 0
2018-10-10 19:04:33 GMT 32.690842 -109.514519 37,000 104 499 0
2018-10-10 19:04:28 GMT 32.690842 -109.514519 37,000 104 499 0
2018-10-10 19:04:22 GMT 32.693264 -109.525955 37,000 104 499 0
2018-10-10 19:04:17 GMT 32.696709 -109.542435 37,000 104 499 0
2018-10-10 19:04:12 GMT 32.699295 -109.554672 37,000 104 499 0
2018-10-10 19:04:06 GMT 32.704010 -109.576981 37,000 104 499 0
2018-10-10 19:04:00 GMT 32.706116 -109.587082 37,000 104 499 0
2018-10-10 19:03:55 GMT 32.709045 -109.600899 37,000 104 499 0
2018-10-10 19:03:51 GMT 32.711094 -109.610764 37,000 104 499 0
2018-10-10 19:03:44 GMT 32.715042 -109.629326 37,000 104 500 64
2018-10-10 19:03:37 GMT 32.718887 -109.647400 37,000 104 501 64
2018-10-10 19:03:33 GMT 32.721336 -109.659134 37,000 104 501 64
2018-10-10 19:03:28 GMT 32.723663 -109.670013 37,000 104 501 0
2018-10-10 19:03:25 GMT 32.726223 -109.682007 37,000 104 501 0
2018-10-10 19:03:21 GMT 32.727482 -109.688118 37,000 104 501 0
2018-10-10 19:03:18 GMT 32.729576 -109.697983 37,000 104 501 0
2018-10-10 19:03:11 GMT 32.733486 -109.716309 37,000 104 501 0
2018-10-10 19:03:08 GMT 32.735580 -109.726173 37,000 104 500 0
2018-10-10 19:03:03 GMT 32.738159 -109.738365 37,000 104 499 0
2018-10-10 19:03:00 GMT 32.739864 -109.746353 37,000 104 499 0
2018-10-10 19:02:56 GMT 32.741638 -109.754898 37,000 104 499 0
2018-10-10 19:02:53 GMT 32.744007 -109.766029 37,000 104 499 0
2018-10-10 19:02:49 GMT 32.745960 -109.775337 37,000 104 499 0
2018-10-10 19:02:46 GMT 32.747498 -109.782509 37,000 104 499 0
2018-10-10 19:02:42 GMT 32.749969 -109.794235 37,000 104 499 0
2018-10-10 19:02:39 GMT 32.751873 -109.803246 37,000 104 499 0
2018-10-10 19:02:34 GMT 32.754341 -109.814911 37,000 104 499 0
2018-10-10 19:02:31 GMT 32.756111 -109.823425 37,000 104 499 0
2018-10-10 19:02:27 GMT 32.758438 -109.834335 37,000 104 499 0
2018-10-10 19:02:24 GMT 32.759766 -109.840706 37,000 104 499 0
2018-10-10 19:02:21 GMT 32.761883 -109.850838 37,000 104 499 0
2018-10-10 19:02:14 GMT 32.765514 -109.867821 37,000 104 499 0
2018-10-10 19:02:10 GMT 32.767822 -109.878716 37,000 104 499 0
2018-10-10 19:02:04 GMT 32.771660 -109.897079 37,000 103 499 0
2018-10-10 19:02:00 GMT 32.773865 -109.907722 37,000 103 499 0
2018-10-10 19:01:56 GMT 32.776062 -109.918106 37,000 103 499 0
2018-10-10 19:01:52 GMT 32.777618 -109.925552 37,000 103 499 0
2018-10-10 19:01:49 GMT 32.779633 -109.935135 37,000 103 499 0
2018-10-10 19:01:45 GMT 32.781944 -109.946297 37,000 103 499 0
2018-10-10 19:01:42 GMT 32.783436 -109.953468 37,000 103 499 0
2018-10-10 19:01:38 GMT 32.785530 -109.963837 37,000 103 499 0
2018-10-10 19:01:32 GMT 32.789116 -109.981384 37,000 103 498 0
2018-10-10 19:01:27 GMT 32.791908 -109.994949 37,000 103 498 0
2018-10-10 19:01:23 GMT 32.793640 -110.003410 37,000 103 498 0
2018-10-10 19:01:20 GMT 32.795074 -110.010361 37,000 103 498 0
2018-10-10 19:01:15 GMT 32.797821 -110.023872 37,000 103 498 0
2018-10-10 19:01:10 GMT 32.800659 -110.037659 37,000 103 498 0
2018-10-10 19:01:05 GMT 32.804569 -110.056778 37,000 103 497 -64
2018-10-10 19:01:02 GMT 32.805679 -110.062080 37,000 103 498 -64
2018-10-10 19:00:54 GMT 32.809177 -110.079308 37,000 103 498 0
2018-10-10 19:00:49 GMT 32.812809 -110.096794 37,000 103 497 64
2018-10-10 19:00:45 GMT 32.814392 -110.104477 37,000 103 497 0
2018-10-10 19:00:42 GMT 32.815750 -110.111130 37,000 103 497 64
2018-10-10 19:00:38 GMT 32.818359 -110.123825 37,000 103 497 0
2018-10-10 19:00:35 GMT 32.820168 -110.132561 37,000 103 497 0
2018-10-10 19:00:28 GMT 32.824127 -110.151619 37,000 103 498 64
2018-10-10 19:00:23 GMT 32.826309 -110.162270 37,000 103 498 64
2018-10-10 19:00:17 GMT 32.830036 -110.180313 37,000 103 498 0
2018-10-10 19:00:14 GMT 32.831615 -110.187996 37,000 103 499 0
2018-10-10 19:00:06 GMT 32.835808 -110.208229 37,000 103 499 0
2018-10-10 18:59:58 GMT 32.840515 -110.231102 37,000 103 499 0
2018-10-10 18:59:55 GMT 32.841579 -110.236145 37,000 103 499 0
2018-10-10 18:59:44 GMT 32.847977 -110.267250 37,000 103 499 0
2018-10-10 18:59:34 GMT 32.853333 -110.293121 37,000 103 500 0
2018-10-10 18:59:30 GMT 32.855713 -110.304550 37,000 103 500 0
2018-10-10 18:59:22 GMT 32.859596 -110.323471 37,000 103 500 0
2018-10-10 18:59:19 GMT 32.861710 -110.333603 37,000 103 500 0
2018-10-10 18:59:13 GMT 32.865276 -110.350998 37,000 103 501 0
2018-10-10 18:59:03 GMT 32.870499 -110.376617 37,000 103 501 0
2018-10-10 18:58:49 GMT 32.877659 -110.411591 37,000 103 501 0
2018-10-10 18:58:41 GMT 32.882538 -110.435616 37,000 103 501 0
2018-10-10 18:58:29 GMT 32.888550 -110.465004 37,000 103 501 0
2018-10-10 18:58:19 GMT 32.894669 -110.494942 37,000 103 501 0
2018-10-10 18:58:09 GMT 32.906288 -110.552170 37,000 103 501 -64
2018-10-10 18:57:57 GMT 32.906288 -110.552170 37,000 103 501 -64
2018-10-10 18:57:52 GMT 32.909126 -110.566353 37,000 103 500 0
2018-10-10 18:57:48 GMT 32.911331 -110.577339 37,000 103 500 0
2018-10-10 18:57:37 GMT 32.917648 -110.608650 37,000 103 500 0
2018-10-10 18:57:33 GMT 32.919601 -110.618309 37,000 103 501 0
2018-10-10 18:57:26 GMT 32.923138 -110.635971 37,000 103 501 64
2018-10-10 18:57:20 GMT 32.926399 -110.652283 37,000 103 501 64
2018-10-10 18:57:15 GMT 32.928864 -110.664566 37,000 103 501 64
2018-10-10 18:57:10 GMT 32.932030 -110.680420 37,000 103 501 64
2018-10-10 18:57:04 GMT 32.934544 -110.692970 37,000 103 501 64
2018-10-10 18:56:56 GMT 32.939072 -110.715492 37,000 103 501 0
2018-10-10 18:56:53 GMT 32.940365 -110.721954 37,000 103 501 0
2018-10-10 18:56:42 GMT 32.946350 -110.751419 37,000 103 501 0
2018-10-10 18:56:36 GMT 32.950279 -110.770996 37,000 103 501 0
2018-10-10 18:56:32 GMT 32.952072 -110.779816 37,000 103 502 0
2018-10-10 18:56:25 GMT 32.956055 -110.799423 37,000 103 502 0
2018-10-10 18:56:19 GMT 32.958752 -110.812531 37,000 103 502 0
2018-10-10 18:56:13 GMT 32.962280 -110.829910 37,000 103 501 0
2018-10-10 18:56:10 GMT 32.964012 -110.838486 37,000 103 500 0
2018-10-10 18:56:02 GMT 32.968231 -110.859138 37,000 103 500 0
2018-10-10 18:55:59 GMT 32.970016 -110.867928 37,000 103 500 0
2018-10-10 18:55:52 GMT 32.973415 -110.884789 37,000 103 500 0
2018-10-10 18:55:48 GMT 32.975555 -110.895500 37,000 103 500 0
2018-10-10 18:55:42 GMT 32.979538 -110.915276 37,000 103 500 0
2018-10-10 18:55:39 GMT 32.981144 -110.923294 37,000 103 500 0
2018-10-10 18:55:31 GMT 32.985611 -110.945488 37,000 103 500 0
2018-10-10 18:55:27 GMT 32.987183 -110.953506 37,000 103 499 0
2018-10-10 18:55:19 GMT 32.991199 -110.973572 37,000 103 499 0
2018-10-10 18:55:16 GMT 32.993408 -110.984764 37,000 103 499 0
2018-10-10 18:55:13 GMT 32.994270 -110.989044 37,000 103 499 0
2018-10-10 18:55:07 GMT 32.998993 -111.013054 37,000 103 499 0
2018-10-10 18:55:01 GMT 33.000687 -111.021622 37,000 103 499 0
2018-10-10 18:54:58 GMT 33.002743 -111.032036 37,000 103 499 0
2018-10-10 18:54:54 GMT 33.004234 -111.039551 37,000 103 499 0
2018-10-10 18:54:49 GMT 33.006981 -111.053391 37,000 103 499 0
2018-10-10 18:54:45 GMT 33.009842 -111.067825 37,000 103 499 0
2018-10-10 18:54:36 GMT 33.014420 -111.091057 37,000 103 499 0
2018-10-10 18:54:33 GMT 33.021317 -111.126038 37,000 103 499 0
2018-10-10 18:54:23 GMT 33.021317 -111.126038 37,000 103 499 0
2018-10-10 18:54:18 GMT 33.024399 -111.141815 37,000 103 499 0
2018-10-10 18:54:12 GMT 33.027786 -111.158897 37,000 103 499 0
2018-10-10 18:54:06 GMT 33.030258 -111.171425 37,000 103 499 0
2018-10-10 18:54:01 GMT 33.034058 -111.190651 37,000 103 499 0
2018-10-10 18:53:55 GMT 33.036209 -111.201309 37,000 103 499 0
2018-10-10 18:53:50 GMT 33.038124 -111.210953 37,000 103 499 0
2018-10-10 18:53:44 GMT 33.042454 -111.232819 37,000 103 499 0
2018-10-10 18:53:39 GMT 33.044266 -111.242172 37,000 103 499 0
2018-10-10 18:53:32 GMT 33.048386 -111.262993 37,000 103 498 0
2018-10-10 18:53:28 GMT 33.049622 -111.269417 37,000 103 498 -64
2018-10-10 18:53:19 GMT 33.055206 -111.297989 37,000 102 498 0
2018-10-10 18:53:08 GMT 33.060699 -111.326309 37,000 103 498 0
2018-10-10 18:52:59 GMT 33.065449 -111.350639 37,000 103 497 0
2018-10-10 18:52:56 GMT 33.067078 -111.358879 37,000 103 498 0
2018-10-10 18:52:45 GMT 33.072945 -111.388474 37,000 103 497 0
2018-10-10 18:52:42 GMT 33.078049 -111.414658 37,000 103 497 0
2018-10-10 18:52:35 GMT 33.078049 -111.414658 37,000 103 497 0
2018-10-10 18:52:32 GMT 33.079834 -111.423958 37,000 102 497 0
2018-10-10 18:52:25 GMT 33.083420 -111.442680 37,000 102 497 0
2018-10-10 18:52:21 GMT 33.085373 -111.452835 37,000 102 497 0
2018-10-10 18:52:14 GMT 33.089794 -111.475746 37,000 102 497 0
2018-10-10 18:52:07 GMT 33.092285 -111.488602 37,000 103 497 0
2018-10-10 18:52:03 GMT 33.093708 -111.496040 37,000 103 497 0
2018-10-10 18:52:00 GMT 33.095337 -111.504280 37,000 103 497 0
2018-10-10 18:51:53 GMT 33.099152 -111.523758 37,000 103 497 0
2018-10-10 18:51:50 GMT 33.101120 -111.533920 37,000 103 497 0
2018-10-10 18:51:42 GMT 33.105717 -111.557365 37,000 103 497 0
2018-10-10 18:51:39 GMT 33.106979 -111.564018 37,000 103 497 0
2018-10-10 18:51:33 GMT 33.110279 -111.580849 37,000 103 497 0
2018-10-10 18:51:30 GMT 33.111351 -111.586395 37,000 103 497 0
2018-10-10 18:51:27 GMT 33.112980 -111.594696 37,000 103 497 0
2018-10-10 18:51:20 GMT 33.116566 -111.613358 37,000 102 497 0
2018-10-10 18:51:15 GMT 33.118797 -111.624847 37,000 102 498 0
2018-10-10 18:51:12 GMT 33.120892 -111.635834 37,000 102 498 0
2018-10-10 18:51:09 GMT 33.122223 -111.642792 37,000 102 498 0
2018-10-10 18:51:03 GMT 33.125362 -111.659096 37,000 102 498 0
2018-10-10 18:50:59 GMT 33.127785 -111.671654 37,000 102 498 0
2018-10-10 18:50:51 GMT 33.131413 -111.690376 37,000 102 498 0
2018-10-10 18:50:48 GMT 33.133183 -111.699738 37,000 102 498 0
2018-10-10 18:50:43 GMT 33.135555 -111.712067 37,000 102 499 0
2018-10-10 18:50:37 GMT 33.138908 -111.729721 37,000 102 499 0
2018-10-10 18:50:31 GMT 33.141235 -111.741776 37,000 102 499 0
2018-10-10 18:50:28 GMT 33.145340 -111.763199 37,000 102 499 0
2018-10-10 18:50:24 GMT 33.145340 -111.763199 37,000 102 499 0
2018-10-10 18:50:21 GMT 33.147217 -111.773148 37,000 102 499 0
2018-10-10 18:50:17 GMT 33.148640 -111.780617 37,000 102 499 0
2018-10-10 18:50:14 GMT 33.150639 -111.791046 37,000 102 499 0
2018-10-10 18:50:09 GMT 33.153294 -111.805000 37,000 102 499 0
2018-10-10 18:50:06 GMT 33.154083 -111.809013 37,000 102 499 0
2018-10-10 18:50:03 GMT 33.156418 -111.821320 37,000 102 498 0
2018-10-10 18:49:58 GMT 33.158432 -111.831757 37,000 102 498 0
2018-10-10 18:49:54 GMT 33.160904 -111.844612 37,000 102 498 0
2018-10-10 18:49:51 GMT 33.162464 -111.852646 37,000 102 498 0
2018-10-10 18:49:46 GMT 33.164795 -111.864990 37,000 102 498 0
2018-10-10 18:49:43 GMT 33.166653 -111.874619 37,000 102 498 0
2018-10-10 18:49:35 GMT 33.170929 -111.896576 37,000 102 498 0
2018-10-10 18:49:32 GMT 33.172287 -111.903488 37,000 103 498 0
2018-10-10 18:49:29 GMT 33.173538 -111.909927 37,000 103 498 0
2018-10-10 18:49:25 GMT 33.176056 -111.923050 37,000 103 498 0
2018-10-10 18:49:21 GMT 33.178024 -111.932938 37,000 103 498 0
2018-10-10 18:49:18 GMT 33.179306 -111.939644 37,000 103 498 0
2018-10-10 18:49:13 GMT 33.181778 -111.952225 37,000 103 498 0
2018-10-10 18:49:10 GMT 33.183880 -111.962906 37,000 103 498 0
2018-10-10 18:49:07 GMT 33.184994 -111.968506 37,000 103 499 0
2018-10-10 18:49:02 GMT 33.187683 -111.982162 37,000 103 499 0
2018-10-10 18:48:59 GMT 33.190071 -111.994514 37,000 103 499 0
2018-10-10 18:48:56 GMT 33.191093 -111.999565 37,000 103 498 0
2018-10-10 18:48:51 GMT 33.193329 -112.011108 37,000 103 498 0
2018-10-10 18:48:48 GMT 33.195328 -112.021271 37,000 103 499 0
2018-10-10 18:48:45 GMT 33.196838 -112.029068 37,000 103 499 0
2018-10-10 18:48:40 GMT 33.198990 -112.040054 37,000 102 499 0
2018-10-10 18:48:37 GMT 33.201241 -112.051575 37,000 102 499 0
2018-10-10 18:48:34 GMT 33.202789 -112.059616 37,000 102 499 0
2018-10-10 18:48:29 GMT 33.204639 -112.069290 37,000 102 500 0
2018-10-10 18:48:26 GMT 33.206772 -112.080544 37,000 102 500 0
2018-10-10 18:48:22 GMT 33.208595 -112.090202 37,000 102 500 0
2018-10-10 18:48:19 GMT 33.209854 -112.096924 37,000 102 499 0
2018-10-10 18:48:15 GMT 33.212322 -112.110100 37,000 102 499 0
2018-10-10 18:48:12 GMT 33.213997 -112.119232 37,000 102 499 0
2018-10-10 18:48:07 GMT 33.215607 -112.127838 37,000 102 499 0
2018-10-10 18:48:03 GMT 33.218216 -112.141846 37,000 102 499 -64
2018-10-10 18:48:00 GMT 33.219257 -112.147484 37,000 102 499 -64
2018-10-10 18:47:57 GMT 33.221119 -112.157745 37,000 102 500 0
2018-10-10 18:47:53 GMT 33.223263 -112.169289 37,000 102 500 64
2018-10-10 18:47:49 GMT 33.224533 -112.176285 37,000 102 500 64
2018-10-10 18:47:45 GMT 33.227051 -112.190018 37,000 102 500 0
2018-10-10 18:47:41 GMT 33.228615 -112.198662 37,000 102 500 0
2018-10-10 18:47:35 GMT 33.232105 -112.217491 37,000 102 500 -64
2018-10-10 18:47:29 GMT 33.235180 -112.234200 37,000 102 500 0
2018-10-10 18:47:26 GMT 33.236664 -112.242264 37,000 102 500 0
2018-10-10 18:47:22 GMT 33.238018 -112.249840 37,000 102 500 0
2018-10-10 18:47:18 GMT 33.240440 -112.262726 37,000 102 500 0
2018-10-10 18:47:13 GMT 33.243279 -112.278366 37,000 102 500 0
2018-10-10 18:47:10 GMT 33.244583 -112.285378 37,000 102 500 64
2018-10-10 18:47:03 GMT 33.247375 -112.300453 37,000 102 501 64
2018-10-10 18:46:59 GMT 33.251907 -112.324715 37,000 102 501 0
2018-10-10 18:46:53 GMT 33.252636 -112.328476 37,000 102 501 0
2018-10-10 18:46:49 GMT 33.254333 -112.337624 37,000 102 501 0
2018-10-10 18:46:45 GMT 33.257401 -112.353775 37,000 102 501 0
2018-10-10 18:46:39 GMT 33.259850 -112.366989 37,000 102 501 0
2018-10-10 18:46:34 GMT 33.262939 -112.383438 37,000 102 501 0
2018-10-10 18:46:31 GMT 33.263855 -112.388268 37,000 102 501 0
2018-10-10 18:46:26 GMT 33.266880 -112.404152 37,000 102 501 0
2018-10-10 18:46:23 GMT 33.268387 -112.412277 37,000 102 501 0
2018-10-10 18:46:20 GMT 33.269161 -112.416595 37,000 102 501 0
2018-10-10 18:46:15 GMT 33.272282 -112.433014 37,000 102 501 0
2018-10-10 18:46:09 GMT 33.274796 -112.446526 37,000 102 501 0
2018-10-10 18:46:06 GMT 33.276516 -112.455940 37,000 102 501 0
2018-10-10 18:45:59 GMT 33.280010 -112.474548 37,000 102 501 0
2018-10-10 18:45:52 GMT 33.283455 -112.492935 37,000 102 501 0
2018-10-10 18:45:48 GMT 33.285461 -112.503677 37,000 102 501 0
2018-10-10 18:45:44 GMT 33.287888 -112.516373 37,000 102 501 0
2018-10-10 18:45:41 GMT 33.288898 -112.521751 37,000 102 501 0
2018-10-10 18:45:37 GMT 33.290810 -112.531723 37,000 102 500 0
2018-10-10 18:45:31 GMT 33.294159 -112.549492 37,000 102 500 0
2018-10-10 18:45:26 GMT 33.296627 -112.562386 37,000 102 500 0
2018-10-10 18:45:22 GMT 33.299374 -112.576958 37,000 102 500 0
2018-10-10 18:45:16 GMT 33.301987 -112.590691 37,000 102 501 0
2018-10-10 18:45:10 GMT 33.305283 -112.608437 37,000 102 500 0
2018-10-10 18:45:05 GMT 33.307243 -112.619225 37,000 102 500 0
2018-10-10 18:44:59 GMT 33.310730 -112.637825 37,000 102 500 0
2018-10-10 18:44:54 GMT 33.312836 -112.649139 37,000 102 500 0
2018-10-10 18:44:48 GMT 33.316227 -112.667152 37,000 102 500 0
2018-10-10 18:44:43 GMT 33.318237 -112.677925 37,000 102 500 0
2018-10-10 18:44:37 GMT 33.321716 -112.696823 37,000 102 500 0
2018-10-10 18:44:33 GMT 33.323776 -112.708138 37,000 102 500 0
2018-10-10 18:44:25 GMT 33.327301 -112.727524 37,000 102 500 0
2018-10-10 18:44:20 GMT 33.330734 -112.746422 37,000 102 500 0
2018-10-10 18:44:14 GMT 33.332657 -112.756973 37,000 102 500 0
2018-10-10 18:44:11 GMT 33.334103 -112.765076 37,000 102 500 0
2018-10-10 18:44:04 GMT 33.337967 -112.786140 37,000 102 500 0
2018-10-10 18:44:01 GMT 33.338928 -112.791519 37,000 102 500 0
2018-10-10 18:43:54 GMT 33.343086 -112.814453 37,000 102 501 0
2018-10-10 18:43:50 GMT 33.344437 -112.822021 37,000 102 501 0
2018-10-10 18:43:42 GMT 33.348675 -112.845512 37,000 102 501 0
2018-10-10 18:43:39 GMT 33.349594 -112.850632 37,000 102 501 0
2018-10-10 18:43:31 GMT 33.353794 -112.873871 37,000 102 501 0
2018-10-10 18:43:28 GMT 33.359116 -112.903305 37,000 102 501 0
2018-10-10 18:43:21 GMT 33.359116 -112.903305 37,000 102 501 0
2018-10-10 18:43:18 GMT 33.359985 -112.908195 37,000 102 501 0
2018-10-10 18:43:10 GMT 33.364361 -112.932503 37,000 102 501 0
2018-10-10 18:43:07 GMT 33.365059 -112.936256 37,000 102 501 0
2018-10-10 18:42:58 GMT 33.370178 -112.964676 37,000 102 501 0
2018-10-10 18:42:48 GMT 33.375023 -112.991470 37,000 102 501 0
2018-10-10 18:42:45 GMT 33.375824 -112.995758 37,000 102 501 0
2018-10-10 18:42:38 GMT 33.379669 -113.017128 37,000 102 501 0
2018-10-10 18:42:25 GMT 33.385963 -113.051781 37,000 102 501 0
2018-10-10 18:42:15 GMT 33.391525 -113.082382 37,000 102 502 0
2018-10-10 18:42:04 GMT 33.396667 -113.111084 37,000 101 501 0
2018-10-10 18:42:01 GMT 33.398483 -113.121384 37,000 101 501 0
2018-10-10 18:41:53 GMT 33.402054 -113.141434 37,000 101 501 0
2018-10-10 18:41:41 GMT 33.407608 -113.172577 37,000 102 502 0
2018-10-10 18:41:33 GMT 33.411621 -113.195053 37,000 102 502 0
2018-10-10 18:41:22 GMT 33.417068 -113.225372 37,000 102 502 0
2018-10-10 18:41:19 GMT 33.417938 -113.230263 37,000 102 502 0
2018-10-10 18:41:07 GMT 33.423477 -113.260857 37,000 102 502 0
2018-10-10 18:40:58 GMT 33.428558 -113.289314 37,000 101 501 0
2018-10-10 18:40:54 GMT 33.430370 -113.299591 37,000 101 501 0
2018-10-10 18:40:46 GMT 33.434002 -113.319939 37,000 101 501 0
2018-10-10 18:40:39 GMT 33.437820 -113.341629 37,000 101 501 0
2018-10-10 18:40:35 GMT 33.439362 -113.350288 37,000 101 501 0
2018-10-10 18:40:26 GMT 33.443779 -113.375259 37,000 101 501 0
2018-10-10 18:40:23 GMT 33.444672 -113.380386 37,000 101 501 0
2018-10-10 18:40:13 GMT 33.449844 -113.409721 37,000 101 502 64
2018-10-10 18:40:01 GMT 33.455418 -113.441238 37,000 101 502 0
2018-10-10 18:39:56 GMT 33.458443 -113.458054 37,000 102 503 0
2018-10-10 18:39:50 GMT 33.460648 -113.470535 37,000 102 503 0
2018-10-10 18:39:45 GMT 33.463890 -113.488770 37,000 102 503 0
2018-10-10 18:39:40 GMT 33.465893 -113.499924 37,000 102 503 0
2018-10-10 18:39:34 GMT 33.468731 -113.515678 37,000 102 503 0
2018-10-10 18:39:29 GMT 33.471336 -113.530357 37,000 102 503 0
2018-10-10 18:39:22 GMT 33.474197 -113.546394 37,000 101 502 0
2018-10-10 18:39:17 GMT 33.477158 -113.562981 37,000 101 502 0
2018-10-10 18:39:06 GMT 33.482277 -113.592072 37,000 101 503 0
2018-10-10 18:38:57 GMT 33.486877 -113.617966 37,000 101 503 0
2018-10-10 18:38:49 GMT 33.490749 -113.639778 37,000 101 503 0
2018-10-10 18:38:44 GMT 33.493149 -113.653397 37,000 101 503 0
2018-10-10 18:38:39 GMT 33.495300 -113.665375 37,000 101 503 0
2018-10-10 18:38:33 GMT 33.498711 -113.684731 37,000 101 503 0
2018-10-10 18:38:20 GMT 33.504066 -113.714996 37,000 101 504 0
2018-10-10 18:38:08 GMT 33.510361 -113.751343 37,000 101 504 0
2018-10-10 18:37:59 GMT 33.514801 -113.776718 37,000 101 505 0
2018-10-10 18:37:56 GMT 33.515579 -113.781387 37,000 101 505 0
2018-10-10 18:37:45 GMT 33.520935 -113.812317 37,000 101 505 0
2018-10-10 18:37:35 GMT 33.526131 -113.842407 37,000 101 505 0
2018-10-10 18:37:24 GMT 33.531097 -113.871696 37,000 101 505 0
2018-10-10 18:37:14 GMT 33.535812 -113.899330 37,000 101 505 0
2018-10-10 18:37:04 GMT 33.540344 -113.925926 37,000 101 505 0
2018-10-10 18:37:01 GMT 33.541538 -113.932739 37,000 101 506 0
2018-10-10 18:36:53 GMT 33.545635 -113.956604 37,000 101 505 0
2018-10-10 18:36:49 GMT 33.547543 -113.967819 37,000 101 506 0
2018-10-10 18:36:40 GMT 33.552246 -113.995209 37,000 101 506 0
2018-10-10 18:36:31 GMT 33.556046 -114.017403 37,000 101 506 0
2018-10-10 18:36:28 GMT 33.557419 -114.025360 37,000 101 506 0
2018-10-10 18:36:18 GMT 33.562023 -114.052277 37,000 101 507 0
2018-10-10 18:36:09 GMT 33.566528 -114.078667 37,000 101 507 0
2018-10-10 18:36:00 GMT 33.569962 -114.098961 37,000 101 506 0
2018-10-10 18:35:56 GMT 33.571747 -114.109665 37,000 101 506 0
2018-10-10 18:35:49 GMT 33.575363 -114.130852 37,000 101 506 0
2018-10-10 18:35:45 GMT 33.577106 -114.141312 37,000 101 507 0
2018-10-10 18:35:38 GMT 33.580177 -114.159454 37,000 101 507 0
2018-10-10 18:35:35 GMT 33.582230 -114.171494 37,000 101 507 0
2018-10-10 18:35:28 GMT 33.585434 -114.190155 37,000 101 506 0
2018-10-10 18:35:24 GMT 33.587395 -114.201736 37,000 101 506 -64
2018-10-10 18:35:14 GMT 33.592026 -114.228607 37,000 101 506 0
2018-10-10 18:35:09 GMT 33.593994 -114.240158 37,000 101 506 0
2018-10-10 18:35:05 GMT 33.595867 -114.251122 37,000 101 506 -64
2018-10-10 18:35:00 GMT 33.598705 -114.267593 37,000 101 507 0
2018-10-10 18:34:50 GMT 33.603424 -114.295090 37,000 101 508 0
2018-10-10 18:34:38 GMT 33.608688 -114.325638 37,000 101 507 320
2018-10-10 18:34:27 GMT 33.614254 -114.358353 36,850 101 507 832
2018-10-10 18:34:14 GMT 33.620354 -114.394112 36,675 101 507 896
2018-10-10 18:34:04 GMT 33.624634 -114.419456 36,525 101 507 896
2018-10-10 18:33:52 GMT 33.629974 -114.451141 36,375 101 507 832
2018-10-10 18:33:47 GMT 33.632675 -114.467056 36,275 101 506 768
2018-10-10 18:33:42 GMT 33.635010 -114.481125 36,225 101 505 704
2018-10-10 18:33:33 GMT 33.639038 -114.505058 36,050 101 505 704
2018-10-10 18:33:30 GMT 33.640640 -114.514648 36,075 101 505 704
2018-10-10 18:33:25 GMT 33.642696 -114.527039 36,025 101 505 704
2018-10-10 18:33:18 GMT 33.646049 -114.547295 35,925 101 504 768
2018-10-10 18:33:09 GMT 33.650299 -114.573051 35,825 101 503 704
2018-10-10 18:32:57 GMT 33.655838 -114.606346 35,475 101 502 832
2018-10-10 18:32:47 GMT 33.659782 -114.630089 35,525 101 501 832
2018-10-10 18:32:41 GMT 33.663025 -114.649673 35,400 101 501 1664
2018-10-10 18:32:32 GMT 33.666458 -114.670418 35,175 101 502 1920
2018-10-10 18:32:25 GMT 33.669800 -114.690704 35,025 101 505 -64
2018-10-10 18:32:19 GMT 33.672256 -114.705215 35,000 101 505 256
2018-10-10 18:32:14 GMT 33.674744 -114.720360 35,000 101 505 0
2018-10-10 18:32:09 GMT 33.676987 -114.733810 35,000 101 505 0
2018-10-10 18:32:01 GMT 33.680740 -114.756012 35,000 101 505 0
2018-10-10 18:31:57 GMT 33.682732 -114.767815 35,000 101 505 0
2018-10-10 18:31:51 GMT 33.685135 -114.782074 35,000 101 505 0
2018-10-10 18:31:38 GMT 33.691956 -114.822433 35,000 101 505 0
2018-10-10 18:31:35 GMT 33.692734 -114.827087 35,000 101 505 0
2018-10-10 18:31:30 GMT 33.695343 -114.842445 35,000 101 505 0
2018-10-10 18:31:27 GMT 33.696697 -114.850449 35,000 101 505 0
2018-10-10 18:31:19 GMT 33.700375 -114.872643 35,000 101 505 0
2018-10-10 18:31:15 GMT 33.702049 -114.882835 35,000 101 506 0
2018-10-10 18:31:08 GMT 33.705357 -114.902916 35,000 101 506 0
2018-10-10 18:31:01 GMT 33.708160 -114.920242 35,000 101 506 0
2018-10-10 18:30:57 GMT 33.710617 -114.935127 35,000 101 506 0
2018-10-10 18:30:54 GMT 33.711735 -114.942001 35,000 101 506 0
2018-10-10 18:30:46 GMT 33.715485 -114.964859 35,000 101 506 0
2018-10-10 18:30:43 GMT 33.716812 -114.972824 35,000 101 505 0
2018-10-10 18:30:33 GMT 33.720932 -114.997818 35,000 101 505 0
2018-10-10 18:30:30 GMT 33.722488 -115.007179 35,000 101 505 0
2018-10-10 18:30:22 GMT 33.725922 -115.028091 35,000 101 505 0
2018-10-10 18:30:19 GMT 33.727615 -115.038231 35,000 101 505 0
2018-10-10 18:30:09 GMT 33.732311 -115.066277 35,000 101 505 0
2018-10-10 18:30:01 GMT 33.735893 -115.087967 35,000 101 505 64
2018-10-10 18:29:58 GMT 33.737152 -115.095406 35,000 101 505 0
2018-10-10 18:29:50 GMT 33.740921 -115.117889 35,000 101 505 64
2018-10-10 18:29:41 GMT 33.745346 -115.144218 35,000 101 505 0
2018-10-10 18:29:36 GMT 33.747673 -115.157661 35,000 101 505 0
2018-10-10 18:29:23 GMT 33.753616 -115.191933 35,000 101 504 0
2018-10-10 18:29:15 GMT 33.757263 -115.212708 35,000 102 504 -64
2018-10-10 18:29:12 GMT 33.758743 -115.220909 35,000 102 503 0
2018-10-10 18:29:04 GMT 33.765289 -115.256950 35,000 102 503 0
2018-10-10 18:28:58 GMT 33.767830 -115.270554 35,000 102 500 1024
2018-10-10 18:28:53 GMT 33.767830 -115.270554 35,000 102 502 -64
2018-10-10 18:28:50 GMT 33.769646 -115.280060 35,000 102 502 0
2018-10-10 18:28:44 GMT 33.772762 -115.296364 35,000 102 500 1024
2018-10-10 18:28:41 GMT 33.774391 -115.304718 34,950 103 500 832
2018-10-10 18:28:38 GMT 33.776394 -115.315308 34,875 102 500 1024
2018-10-10 18:28:33 GMT 33.778976 -115.328529 34,800 102 500 1088
2018-10-10 18:28:27 GMT 33.782043 -115.344788 34,700 102 501 1024
2018-10-10 18:28:18 GMT 33.786636 -115.369431 34,575 102 501 1024
2018-10-10 18:28:10 GMT 33.789688 -115.387444 34,325 98 502 960
2018-10-10 18:28:00 GMT 33.793991 -115.419060 34,225 97 503 1024
2018-10-10 18:27:51 GMT 33.796131 -115.444618 34,075 92 506 1600
2018-10-10 18:27:45 GMT 33.796879 -115.459152 33,975 91 506 1600
2018-10-10 18:27:42 GMT 33.797195 -115.467316 33,900 86 511 1472
2018-10-10 18:27:36 GMT 33.797424 -115.481949 33,750 87 510 1344
2018-10-10 18:27:30 GMT 33.797298 -115.499153 33,675 80 515 1344
2018-10-10 18:27:27 GMT 33.797066 -115.507339 33,450 86 510 1472
2018-10-10 18:27:21 GMT 33.795959 -115.529144 33,375 84 512 1280
2018-10-10 18:27:16 GMT 33.795319 -115.537888 33,300 83 513 1344
2018-10-10 18:27:10 GMT 33.793121 -115.560249 33,125 80 514 1216
2018-10-10 18:27:04 GMT 33.791477 -115.573196 33,025 80 514 1280
2018-10-10 18:27:00 GMT 33.789780 -115.585304 32,900 80 515 1280
2018-10-10 18:26:51 GMT 33.785847 -115.613480 32,700 80 515 1280
2018-10-10 18:26:46 GMT 33.783875 -115.627571 32,600 80 515 1280
2018-10-10 18:26:43 GMT 33.783237 -115.632072 32,575 80 515 1280
2018-10-10 18:26:40 GMT 33.781517 -115.644203 32,475 80 515 1280
2018-10-10 18:26:36 GMT 33.780350 -115.652626 32,400 80 515 1280
2018-10-10 18:26:32 GMT 33.778954 -115.662170 32,325 80 515 1280
2018-10-10 18:26:25 GMT 33.775909 -115.683289 32,175 80 514 1280
2018-10-10 18:26:22 GMT 33.774124 -115.695679 32,100 80 514 1216
2018-10-10 18:26:16 GMT 33.771973 -115.710869 31,975 80 514 1280
2018-10-10 18:26:11 GMT 33.769821 -115.725777 31,925 80 514 1216
2018-10-10 18:26:06 GMT 33.767784 -115.740105 31,775 80 514 1216
2018-10-10 18:26:03 GMT 33.766758 -115.747437 31,700 80 514 1216
2018-10-10 18:25:59 GMT 33.765270 -115.758362 31,625 80 512 1216
2018-10-10 18:25:56 GMT 33.764099 -115.766808 31,575 80 513 1280
2018-10-10 18:25:46 GMT 33.759888 -115.795677 31,350 78 513 1344
2018-10-10 18:25:39 GMT 33.754051 -115.827087 31,100 74 513 1344
2018-10-10 18:25:34 GMT 33.754051 -115.827087 31,100 73 514 1408
2018-10-10 18:25:29 GMT 33.747719 -115.853638 30,975 68 514 1472
2018-10-10 18:25:24 GMT 33.744781 -115.864510 30,825 71 514 1472
2018-10-10 18:25:21 GMT 33.744781 -115.864510 30,600 70 514 1408
2018-10-10 18:25:18 GMT 33.743435 -115.869080 30,725 69 515 1472
2018-10-10 18:25:13 GMT 33.738602 -115.884911 30,575 67 514 1088
2018-10-10 18:25:09 GMT 33.735661 -115.893913 30,400 67 514 1280
2018-10-10 18:25:04 GMT 33.729889 -115.910797 30,300 67 505 1344
2018-10-10 18:24:56 GMT 33.724258 -115.927109 30,300 67 505 1344
2018-10-10 18:24:51 GMT 33.718185 -115.944717 30,150 67 511 1152
2018-10-10 18:24:45 GMT 33.713974 -115.957047 30,050 67 511 1152
2018-10-10 18:24:41 GMT 33.709965 -115.968590 29,850 67 509 1152
2018-10-10 18:24:37 GMT 33.706741 -115.977959 29,900 67 509 1152
2018-10-10 18:24:30 GMT 33.700424 -115.996231 29,750 67 508 1280
2018-10-10 18:24:25 GMT 33.695892 -116.009232 29,425 67 505 1344
2018-10-10 18:24:20 GMT 33.690491 -116.024818 29,300 67 504 1280
2018-10-10 18:24:16 GMT 33.683304 -116.045555 29,425 67 505 1344
2018-10-10 18:24:12 GMT 33.683304 -116.045555 29,350 67 505 1344
2018-10-10 18:24:09 GMT 33.680878 -116.052505 29,225 67 504 1280
2018-10-10 18:24:03 GMT 33.676399 -116.065460 29,200 67 504 1216
2018-10-10 18:23:58 GMT 33.670815 -116.081429 29,050 67 502 1408
2018-10-10 18:23:54 GMT 33.667831 -116.089897 28,975 67 502 1408
2018-10-10 18:23:49 GMT 33.663620 -116.102005 28,825 67 502 1280
2018-10-10 18:23:44 GMT 33.658081 -116.117920 28,750 67 500 1344
2018-10-10 18:23:41 GMT 33.655357 -116.125603 28,675 67 501 1344
2018-10-10 18:23:38 GMT 33.652679 -116.133278 28,600 67 500 1344
2018-10-10 18:23:35 GMT 33.651356 -116.137100 28,575 67 500 1408
2018-10-10 18:23:28 GMT 33.644234 -116.157249 28,400 67 499 1344
2018-10-10 18:23:25 GMT 33.640869 -116.166908 28,175 66 496 1408
2018-10-10 18:23:22 GMT 33.639065 -116.172012 28,125 66 490 1216
2018-10-10 18:23:18 GMT 33.635574 -116.181908 28,175 67 497 1408
2018-10-10 18:23:13 GMT 33.630360 -116.196609 28,050 66 496 1344
2018-10-10 18:23:08 GMT 33.626038 -116.208786 27,850 66 495 1344
2018-10-10 18:23:02 GMT 33.620956 -116.222855 27,750 66 493 1472
2018-10-10 18:22:56 GMT 33.615322 -116.238731 27,650 66 491 1280
2018-10-10 18:22:51 GMT 33.611694 -116.248741 27,500 66 491 1344
2018-10-10 18:22:45 GMT 33.606400 -116.263489 27,450 66 490 1216
2018-10-10 18:22:42 GMT 33.603104 -116.272736 27,350 66 490 1344
2018-10-10 18:22:39 GMT 33.599545 -116.282730 27,275 67 488 1280
2018-10-10 18:22:33 GMT 33.594051 -116.298180 27,150 67 487 1216
2018-10-10 18:22:27 GMT 33.590511 -116.308418 27,000 67 485 1280
2018-10-10 18:22:21 GMT 33.585251 -116.323578 26,950 67 485 1280
2018-10-10 18:22:18 GMT 33.582092 -116.332718 26,850 67 483 1280
2018-10-10 18:22:15 GMT 33.579014 -116.341667 26,750 67 483 1344
2018-10-10 18:22:12 GMT 33.576233 -116.349808 26,700 68 481 1280
2018-10-10 18:22:07 GMT 33.572216 -116.361694 26,600 68 480 1216
2018-10-10 18:22:00 GMT 33.567608 -116.375542 26,475 68 478 1344
2018-10-10 18:21:56 GMT 33.564377 -116.385406 26,050 68 476 1536
2018-10-10 18:21:51 GMT 33.560394 -116.397453 26,250 68 476 1536
2018-10-10 18:21:48 GMT 33.557968 -116.404800 26,175 68 476 1408
2018-10-10 18:21:45 GMT 33.555313 -116.412926 26,050 68 475 1408
2018-10-10 18:21:42 GMT 33.552979 -116.420044 26,050 68 475 1408
2018-10-10 18:21:35 GMT 33.547173 -116.437912 25,775 68 472 1536
2018-10-10 18:21:31 GMT 33.544144 -116.447174 25,700 68 472 1536
2018-10-10 18:21:28 GMT 33.541817 -116.454506 24,925 81 463 512
2018-10-10 18:21:22 GMT 33.536774 -116.470078 25,450 68 470 1600
2018-10-10 18:21:19 GMT 33.533764 -116.479294 25,400 68 468 1792
2018-10-10 18:21:13 GMT 33.528854 -116.494576 25,300 68 468 1728
2018-10-10 18:21:07 GMT 33.525387 -116.505188 25,050 68 468 1728
2018-10-10 18:21:04 GMT 33.522491 -116.514130 25,000 68 468 1728
2018-10-10 18:21:00 GMT 33.519287 -116.524071 24,925 68 467 1728
2018-10-10 18:20:57 GMT 33.517426 -116.529854 24,800 70 465 1984
2018-10-10 18:20:54 GMT 33.514343 -116.539505 24,675 69 466 1984
2018-10-10 18:20:51 GMT 33.511871 -116.547470 24,575 70 466 1920
2018-10-10 18:20:48 GMT 33.510441 -116.552330 24,525 75 465 960
2018-10-10 18:20:45 GMT 33.508759 -116.558456 24,400 73 466 1536
2018-10-10 18:20:42 GMT 33.505966 -116.569336 24,325 76 465 640
2018-10-10 18:20:38 GMT 33.503365 -116.581253 24,300 77 464 512
2018-10-10 18:20:32 GMT 33.501480 -116.591309 24,250 78 464 512
2018-10-10 18:20:28 GMT 33.499695 -116.602402 24,225 81 463 512
2018-10-10 18:20:25 GMT 33.498569 -116.611015 24,200 83 463 512
2018-10-10 18:20:22 GMT 33.497501 -116.620438 24,175 85 462 448
2018-10-10 18:20:18 GMT 33.496758 -116.629349 24,150 85 463 448
2018-10-10 18:20:12 GMT 33.496010 -116.641113 24,100 87 462 384
2018-10-10 18:20:09 GMT 33.495731 -116.649529 24,075 89 462 384
2018-10-10 18:20:04 GMT 33.495621 -116.661789 24,025 90 461 384
2018-10-10 18:19:57 GMT 33.495804 -116.682938 24,000 90 461 320
2018-10-10 18:19:54 GMT 33.496059 -116.703842 24,000 90 461 128
2018-10-10 18:19:49 GMT 33.496059 -116.703842 24,000 90 461 0
2018-10-10 18:19:46 GMT 33.496124 -116.709740 24,000 90 461 0
2018-10-10 18:19:42 GMT 33.496197 -116.719421 24,000 90 461 0
2018-10-10 18:19:38 GMT 33.496307 -116.731384 24,000 90 461 0
2018-10-10 18:19:35 GMT 33.496384 -116.736969 24,000 90 461 0
2018-10-10 18:19:32 GMT 33.496445 -116.744621 24,000 90 461 0
2018-10-10 18:19:28 GMT 33.496525 -116.756866 24,000 90 461 0
2018-10-10 18:19:25 GMT 33.496582 -116.765060 24,000 90 461 0
2018-10-10 18:19:21 GMT 33.496662 -116.774750 24,000 90 461 0
2018-10-10 18:19:17 GMT 33.496765 -116.784943 24,000 90 461 0
2018-10-10 18:19:14 GMT 33.496765 -116.789780 24,000 90 461 0
2018-10-10 18:19:11 GMT 33.496857 -116.799721 24,000 90 461 0
2018-10-10 18:19:06 GMT 33.496948 -116.812462 24,000 90 461 -64
2018-10-10 18:19:03 GMT 33.496994 -116.817848 24,000 90 461 -64
2018-10-10 18:19:00 GMT 33.497177 -116.842072 24,000 90 461 -64
2018-10-10 18:18:55 GMT 33.497177 -116.842072 24,000 90 461 -64
2018-10-10 18:18:51 GMT 33.497314 -116.851463 24,000 90 461 -64
2018-10-10 18:18:48 GMT 33.497406 -116.858330 24,000 90 461 0
2018-10-10 18:18:45 GMT 33.497501 -116.865997 24,000 90 461 -64
2018-10-10 18:18:41 GMT 33.497635 -116.874649 24,000 91 460 0
2018-10-10 18:18:38 GMT 33.497921 -116.889709 24,000 91 459 576
2018-10-10 18:18:32 GMT 33.498291 -116.909271 23,950 91 459 896
2018-10-10 18:18:28 GMT 33.498291 -116.909271 23,900 91 458 1152
2018-10-10 18:18:24 GMT 33.498569 -116.921158 23,775 91 457 1856
2018-10-10 18:18:20 GMT 33.498711 -116.927994 23,600 91 456 1920
2018-10-10 18:18:17 GMT 33.498917 -116.937546 23,600 91 456 1920
2018-10-10 18:18:13 GMT 33.499100 -116.946663 23,425 91 455 1920
2018-10-10 18:18:10 GMT 33.499237 -116.952705 23,350 91 454 1920
2018-10-10 18:18:07 GMT 33.499557 -116.969017 23,125 91 453 2048
2018-10-10 18:18:00 GMT 33.499832 -116.980278 23,025 91 453 2048
2018-10-10 18:17:55 GMT 33.500015 -116.989067 22,650 91 450 1984
2018-10-10 18:17:52 GMT 33.500248 -116.999573 22,800 91 452 1984
2018-10-10 18:17:49 GMT 33.500381 -117.006042 22,750 91 451 1984
2018-10-10 18:17:45 GMT 33.500622 -117.017006 22,300 91 443 1600
2018-10-10 18:17:42 GMT 33.500759 -117.024239 22,425 91 449 1920
2018-10-10 18:17:39 GMT 33.500992 -117.033203 22,350 91 449 1792
2018-10-10 18:17:35 GMT 33.501205 -117.043617 21,725 91 443 1600
2018-10-10 18:17:31 GMT 33.501434 -117.053009 22,125 91 446 1920
2018-10-10 18:17:28 GMT 33.501553 -117.058708 22,025 91 446 2048
2018-10-10 18:17:24 GMT 33.501801 -117.069763 21,875 91 445 1984
2018-10-10 18:17:20 GMT 33.502014 -117.079109 21,750 91 444 1664
2018-10-10 18:17:17 GMT 33.502167 -117.085037 21,700 91 443 1600
2018-10-10 18:17:12 GMT 33.502396 -117.095802 21,575 91 441 1792
2018-10-10 18:17:09 GMT 33.502762 -117.113083 21,250 91 438 1920
2018-10-10 18:17:06 GMT 33.502762 -117.113083 21,350 91 439 1984
2018-10-10 18:17:02 GMT 33.503036 -117.124527 21,125 91 437 1856
2018-10-10 18:16:58 GMT 33.503220 -117.131508 21,075 91 437 1920
2018-10-10 18:16:55 GMT 33.503414 -117.139259 20,925 91 435 1984
2018-10-10 18:16:52 GMT 33.503540 -117.144798 20,925 91 435 1984
2018-10-10 18:16:49 GMT 33.503769 -117.155403 20,750 91 433 1728
2018-10-10 18:16:46 GMT 33.503925 -117.161171 20,700 91 433 1664
2018-10-10 18:16:41 GMT 33.504181 -117.173805 20,550 91 431 1792
2018-10-10 18:16:38 GMT 33.504295 -117.179558 20,350 97 425 1792
2018-10-10 18:16:35 GMT 33.504578 -117.188301 20,350 93 428 2240
2018-10-10 18:16:30 GMT 33.505276 -117.201080 20,125 96 426 1920
2018-10-10 18:16:27 GMT 33.505695 -117.205795 20,000 100 421 1792
2018-10-10 18:16:24 GMT 33.506485 -117.213974 20,000 99 422 1664
2018-10-10 18:16:20 GMT 33.507339 -117.220932 19,925 99 422 1664
2018-10-10 18:16:17 GMT 33.508812 -117.231293 19,750 101 419 1856
2018-10-10 18:16:14 GMT 33.509766 -117.236977 19,625 103 418 1984
2018-10-10 18:16:10 GMT 33.511513 -117.246262 19,550 104 417 2048
2018-10-10 18:16:06 GMT 33.513885 -117.257195 19,425 105 415 2112
2018-10-10 18:16:03 GMT 33.514866 -117.261398 18,925 106 415 2176
2018-10-10 18:15:58 GMT 33.517914 -117.273010 19,175 108 413 2112
2018-10-10 18:15:54 GMT 33.521336 -117.284325 18,925 110 410 2240
2018-10-10 18:15:50 GMT 33.523106 -117.289871 18,775 110 409 2368
2018-10-10 18:15:47 GMT 33.525013 -117.296036 18,675 110 408 2432
2018-10-10 18:15:44 GMT 33.526920 -117.302200 18,600 110 408 2432
2018-10-10 18:15:41 GMT 33.528671 -117.307724 18,500 110 408 2752
2018-10-10 18:15:37 GMT 33.530880 -117.314926 18,325 110 408 2944
2018-10-10 18:15:32 GMT 33.534348 -117.326126 17,975 110 408 832
2018-10-10 18:15:26 GMT 33.538010 -117.338051 17,675 110 410 2944
2018-10-10 18:15:22 GMT 33.540516 -117.346115 17,525 110 410 2752
2018-10-10 18:15:19 GMT 33.543182 -117.354889 17,400 110 410 2496
2018-10-10 18:15:15 GMT 33.546021 -117.364029 17,250 110 405 896
2018-10-10 18:15:12 GMT 33.548195 -117.371063 17,150 110 409 1408
2018-10-10 18:15:08 GMT 33.550289 -117.377869 17,075 110 407 704
2018-10-10 18:15:05 GMT 33.553482 -117.388245 17,075 110 407 640
2018-10-10 18:15:00 GMT 33.555458 -117.394585 16,975 110 403 1216
2018-10-10 18:14:55 GMT 33.559113 -117.406349 16,850 110 402 1600
2018-10-10 18:14:52 GMT 33.560951 -117.412148 16,775 110 401 1856
2018-10-10 18:14:49 GMT 33.562443 -117.416954 16,725 110 400 2176
2018-10-10 18:14:46 GMT 33.564907 -117.424622 16,525 111 399 2560
2018-10-10 18:14:42 GMT 33.567886 -117.433662 16,350 109 399 2560
2018-10-10 18:14:39 GMT 33.569778 -117.439926 16,225 102 397 2240
2018-10-10 18:14:36 GMT 33.571289 -117.446037 16,125 103 397 2240
2018-10-10 18:14:31 GMT 33.573669 -117.458984 15,875 94 397 2240
2018-10-10 18:14:27 GMT 33.574265 -117.463760 15,800 93 397 2176
2018-10-10 18:14:23 GMT 33.574684 -117.474976 15,625 86 395 1984
2018-10-10 18:14:20 GMT 33.574493 -117.481514 15,475 81 393 2304
2018-10-10 18:14:16 GMT 33.573944 -117.488243 15,425 71 392 2624
2018-10-10 18:14:13 GMT 33.573303 -117.493004 15,175 64 389 2432
2018-10-10 18:14:09 GMT 33.571060 -117.504387 15,075 71 392 2624
2018-10-10 18:14:06 GMT 33.570213 -117.507706 14,675 65 390 2432
2018-10-10 18:14:02 GMT 33.566631 -117.518288 14,800 62 388 2560
2018-10-10 18:13:59 GMT 33.564377 -117.523666 14,675 61 387 2624
2018-10-10 18:13:56 GMT 33.560623 -117.531685 14,525 59 385 2240
2018-10-10 18:13:51 GMT 33.557320 -117.538551 14,325 59 385 2176
2018-10-10 18:13:48 GMT 33.554993 -117.543343 14,025 59 385 2112
2018-10-10 18:13:44 GMT 33.550964 -117.551697 14,100 59 384 1280
2018-10-10 18:13:41 GMT 33.547916 -117.557945 14,050 59 383 768
2018-10-10 18:13:38 GMT 33.544876 -117.564140 14,000 59 381 896
2018-10-10 18:13:34 GMT 33.542999 -117.568001 13,975 59 380 1152
2018-10-10 18:13:30 GMT 33.538651 -117.576836 13,800 59 376 1920
2018-10-10 18:13:27 GMT 33.535721 -117.582771 13,725 59 375 2240
2018-10-10 18:13:24 GMT 33.533661 -117.586891 13,650 59 374 2688
2018-10-10 18:13:20 GMT 33.527435 -117.599304 13,325 58 372 2432
2018-10-10 18:13:14 GMT 33.523663 -117.606735 13,175 58 370 2432
2018-10-10 18:13:08 GMT 33.518867 -117.616158 12,975 58 367 2176
2018-10-10 18:13:03 GMT 33.514801 -117.624191 12,825 59 363 1280
2018-10-10 18:12:59 GMT 33.511002 -117.631767 12,750 59 358 1536
2018-10-10 18:12:55 GMT 33.508301 -117.637283 12,650 60 356 1600
2018-10-10 18:12:51 GMT 33.505188 -117.643799 12,525 61 349 1792
2018-10-10 18:12:47 GMT 33.500946 -117.652756 12,400 61 346 1856
2018-10-10 18:12:43 GMT 33.498459 -117.658188 12,225 62 344 1920
2018-10-10 18:12:34 GMT 33.490402 -117.678131 12,025 66 338 1920
2018-10-10 18:12:31 GMT 33.487492 -117.686951 11,825 72 331 1984
2018-10-10 18:12:26 GMT 33.487492 -117.686951 11,675 72 330 1984
2018-10-10 18:12:23 GMT 33.486095 -117.691994 11,575 74 327 1920
2018-10-10 18:12:20 GMT 33.484589 -117.697739 11,550 74 326 1920
2018-10-10 18:12:16 GMT 33.482574 -117.706474 11,400 77 321 1792
2018-10-10 18:12:13 GMT 33.481720 -117.710831 11,325 78 319 1664
2018-10-10 18:12:10 GMT 33.480694 -117.716545 11,225 84 304 1408
2018-10-10 18:12:05 GMT 33.478973 -117.729271 11,050 84 304 1472
2018-10-10 18:12:02 GMT 33.478508 -117.733810 10,975 84 304 1408
2018-10-10 18:11:59 GMT 33.478043 -117.738686 10,900 84 304 1472
2018-10-10 18:11:52 GMT 33.477585 -117.746849 10,750 88 297 2048
2018-10-10 18:11:47 GMT 33.477947 -117.764465 10,450 94 293 3072
2018-10-10 18:11:41 GMT 33.477947 -117.764465 10,225 96 294 3136
2018-10-10 18:11:38 GMT 33.478455 -117.769318 10,075 99 293 3072
2018-10-10 18:11:32 GMT 33.479858 -117.779045 9,675 103 291 3200
2018-10-10 18:11:29 GMT 33.480694 -117.783638 9,500 105 292 3328
2018-10-10 18:11:26 GMT 33.481346 -117.786613 9,500 105 292 3328
2018-10-10 18:11:22 GMT 33.482895 -117.793106 9,275 108 291 3264
2018-10-10 18:11:19 GMT 33.484280 -117.798325 9,000 108 291 3200
2018-10-10 18:11:16 GMT 33.485909 -117.803986 8,925 109 290 2816
2018-10-10 18:11:08 GMT 33.489029 -117.814194 8,650 111 285 1984
2018-10-10 18:11:04 GMT 33.491680 -117.822090 8,450 113 281 2240
2018-10-10 18:11:01 GMT 33.492565 -117.824501 8,400 115 276 2816
2018-10-10 18:10:57 GMT 33.495300 -117.831612 8,100 118 276 3008
2018-10-10 18:10:54 GMT 33.496990 -117.835709 8,100 118 276 3008
2018-10-10 18:10:47 GMT 33.501179 -117.844063 7,650 127 275 3520
2018-10-10 18:10:43 GMT 33.504669 -117.849503 7,375 134 275 3584
2018-10-10 18:10:38 GMT 33.507980 -117.853859 7,150 137 275 3520
2018-10-10 18:10:34 GMT 33.512283 -117.858635 6,725 142 275 3200
2018-10-10 18:10:30 GMT 33.516769 -117.862869 6,650 149 271 3328
2018-10-10 18:10:27 GMT 33.519150 -117.864899 6,400 148 272 3136
2018-10-10 18:10:23 GMT 33.523499 -117.868248 6,300 149 271 3392
2018-10-10 18:10:17 GMT 33.530273 -117.872810 5,925 152 271 3712
2018-10-10 18:10:13 GMT 33.535263 -117.875938 5,650 152 270 3648
2018-10-10 18:10:05 GMT 33.543091 -117.880775 5,250 152 270 3200
2018-10-10 18:10:01 GMT 33.547531 -117.883522 5,025 152 268 3200
2018-10-10 18:09:56 GMT 33.553131 -117.887016 4,775 153 265 3072
2018-10-10 18:09:51 GMT 33.558903 -117.890396 4,475 159 264 3712
2018-10-10 18:09:46 GMT 33.571472 -117.895599 4,000 166 265 3584
2018-10-10 18:09:41 GMT 33.571472 -117.895599 3,825 170 264 3136
2018-10-10 18:09:38 GMT 33.576096 -117.896477 3,650 173 263 2880
2018-10-10 18:09:32 GMT 33.580811 -117.896919 3,475 183 259 2880
2018-10-10 18:09:29 GMT 33.583832 -117.896919 3,350 184 258 2944
2018-10-10 18:09:25 GMT 33.590420 -117.896347 3,075 187 255 2880
2018-10-10 18:09:19 GMT 33.596878 -117.895462 2,850 187 249 2176
2018-10-10 18:09:13 GMT 33.603081 -117.894569 2,650 187 243 2048
2018-10-10 18:09:09 GMT 33.608898 -117.893715 2,475 187 237 2048
2018-10-10 18:09:04 GMT 33.614685 -117.892944 2,300 187 230 1920
2018-10-10 18:08:57 GMT 33.620399 -117.892113 2,150 187 223 1344
2018-10-10 18:08:52 GMT 33.625397 -117.891426 1,925 187 206 1088
2018-10-10 18:08:46 GMT 33.631348 -117.890587 1,675 196 183 1152
2018-10-10 18:08:42 GMT 33.635834 -117.889915 1,850 190 194 1088
We lost coverage of the aircraft here for a total of 64 minutes
2018-10-10 17:04:41 GMT 33.674225 -117.866409 0 25 11 0
2018-10-10 17:04:33 GMT 33.673908 -117.866608 0 28 12 0
2018-10-10 17:04:15 GMT 33.673164 -117.867203 0 45 11 0
2018-10-10 17:04:09 GMT 33.672958 -117.867455 0 45 10 0
2018-10-10 17:03:35 GMT 33.671593 -117.868492 0 30 11 0
2018-10-10 17:00:46 GMT 33.683395 -117.863960 175 209 142 -768
2018-10-10 17:00:36 GMT 33.689110 -117.860352 325 208 143 -960
2018-10-10 17:00:28 GMT 33.693649 -117.857460 475 208 145 -832
2018-10-10 17:00:25 GMT 33.699909 -117.853493 475 208 144 -768
2018-10-10 17:00:18 GMT 33.699909 -117.853493 550 208 144 -768
2018-10-10 17:00:14 GMT 33.702759 -117.851685 750 209 146 -768
2018-10-10 17:00:03 GMT 33.710861 -117.846474 800 209 147 -896
2018-10-10 16:59:55 GMT 33.713379 -117.844849 875 209 148 -896
2018-10-10 16:59:52 GMT 33.715485 -117.843445 900 210 147 -832
2018-10-10 16:59:48 GMT 33.718903 -117.841187 1,000 209 148 -960
2018-10-10 16:59:42 GMT 33.725094 -117.837296 1,100 208 147 -704
2018-10-10 16:59:37 GMT 33.725094 -117.837296 1,125 208 147 -704
2018-10-10 16:59:31 GMT 33.728168 -117.835403 1,175 208 147 -384
2018-10-10 16:59:27 GMT 33.730591 -117.833862 1,225 208 146 -576
2018-10-10 16:59:23 GMT 33.733009 -117.832436 1,300 208 144 -768
2018-10-10 16:59:20 GMT 33.735104 -117.831177 1,325 208 144 -832
2018-10-10 16:59:16 GMT 33.737091 -117.829880 1,375 208 143 -896
2018-10-10 16:59:11 GMT 33.739975 -117.828087 1,450 209 142 -960
2018-10-10 16:59:08 GMT 33.741760 -117.826912 1,525 209 142 -1024
2018-10-10 16:59:01 GMT 33.746155 -117.824051 1,575 209 148 -576
2018-10-10 16:58:58 GMT 33.747395 -117.823219 1,575 209 149 -768
2018-10-10 16:58:50 GMT 33.752701 -117.819839 1,725 208 151 -768
2018-10-10 16:58:47 GMT 33.754532 -117.818672 1,825 208 157 -1024
2018-10-10 16:58:40 GMT 33.759079 -117.815895 1,825 209 159 -832
2018-10-10 16:58:37 GMT 33.761398 -117.814415 1,875 209 159 -832
2018-10-10 16:58:29 GMT 33.766937 -117.810883 2,000 208 164 -896
2018-10-10 16:58:26 GMT 33.769135 -117.809479 2,050 209 166 -896
2018-10-10 16:58:17 GMT 33.773941 -117.806396 2,200 208 173 -1024
2018-10-10 16:58:14 GMT 33.778839 -117.803261 2,250 208 177 -896
2018-10-10 16:58:08 GMT 33.780945 -117.801971 2,300 208 179 -896
2018-10-10 16:58:03 GMT 33.785156 -117.799278 2,375 208 182 -832
2018-10-10 16:58:00 GMT 33.786961 -117.798157 2,425 209 184 -896
2018-10-10 16:57:57 GMT 33.789825 -117.796310 2,475 209 186 -960
2018-10-10 16:57:54 GMT 33.791058 -117.795525 2,575 209 187 -1216
2018-10-10 16:57:50 GMT 33.795715 -117.792549 2,625 208 187 -1088
2018-10-10 16:57:47 GMT 33.796646 -117.791939 2,675 208 187 -896
2018-10-10 16:57:42 GMT 33.800880 -117.789230 2,725 209 189 -1088
2018-10-10 16:57:35 GMT 33.805584 -117.786201 2,825 209 190 -1088
2018-10-10 16:57:29 GMT 33.810982 -117.782654 2,950 209 191 -960
2018-10-10 16:57:25 GMT 33.814613 -117.780357 3,250 207 194 -704
2018-10-10 16:57:21 GMT 33.816788 -117.778984 3,150 213 197 -960
2018-10-10 16:57:16 GMT 33.821690 -117.775902 3,175 217 198 -1024
2018-10-10 16:57:13 GMT 33.824707 -117.773384 3,175 217 198 -1024
2018-10-10 16:57:09 GMT 33.826347 -117.771606 3,275 228 199 -1024
2018-10-10 16:57:05 GMT 33.829090 -117.767830 3,400 240 201 -1152
2018-10-10 16:57:01 GMT 33.830910 -117.764053 3,425 251 203 -1088
2018-10-10 16:56:58 GMT 33.831802 -117.761551 3,475 257 204 -1024
2018-10-10 16:56:53 GMT 33.832771 -117.755928 3,575 267 208 -960
2018-10-10 16:56:50 GMT 33.832954 -117.749405 3,650 271 210 -1216
2018-10-10 16:56:46 GMT 33.832954 -117.748260 3,650 271 210 -1216
2018-10-10 16:56:41 GMT 33.832909 -117.742424 3,875 270 212 -1152
2018-10-10 16:56:35 GMT 33.832947 -117.734314 3,900 270 212 -1152
2018-10-10 16:56:31 GMT 33.832954 -117.730293 3,950 270 214 -1024
2018-10-10 16:56:25 GMT 33.833004 -117.722450 4,075 270 217 -640
2018-10-10 16:56:21 GMT 33.833038 -117.717163 4,075 270 218 -768
2018-10-10 16:56:14 GMT 33.832993 -117.709145 4,250 271 219 -1152
2018-10-10 16:56:09 GMT 33.832993 -117.704605 4,325 271 220 -1152
2018-10-10 16:55:59 GMT 33.833004 -117.691612 4,500 270 222 -1024
2018-10-10 16:55:52 GMT 33.832993 -117.683586 4,625 270 223 -1088
2018-10-10 16:55:49 GMT 33.833004 -117.678162 4,725 270 225 -1152
2018-10-10 16:55:41 GMT 33.833004 -117.668549 4,875 270 226 -1088
2018-10-10 16:55:38 GMT 33.833050 -117.665176 4,900 270 226 -1088
2018-10-10 16:55:30 GMT 33.833038 -117.654716 5,175 271 228 -1152
2018-10-10 16:55:26 GMT 33.832993 -117.650291 5,125 270 229 -1152
2018-10-10 16:55:18 GMT 33.833004 -117.640457 5,550 270 231 -1152
2018-10-10 16:55:15 GMT 33.833050 -117.637253 5,350 270 231 -1152
2018-10-10 16:55:08 GMT 33.833038 -117.627251 5,525 270 233 -1216
2018-10-10 16:55:05 GMT 33.833038 -117.620865 5,575 270 234 -1216
2018-10-10 16:54:56 GMT 33.833038 -117.610718 5,725 270 236 -1216
2018-10-10 16:54:53 GMT 33.833038 -117.605225 5,825 270 237 -1280
2018-10-10 16:54:44 GMT 33.833141 -117.595306 6,000 270 237 -1408
2018-10-10 16:54:41 GMT 33.833004 -117.588448 6,100 275 238 -1280
2018-10-10 16:54:34 GMT 33.832493 -117.581696 6,200 278 241 -896
2018-10-10 16:54:27 GMT 33.831390 -117.571533 6,325 278 245 -896
2018-10-10 16:54:23 GMT 33.830910 -117.566933 6,450 278 247 -1152
2018-10-10 16:54:19 GMT 33.830441 -117.562752 6,550 278 246 -1152
2018-10-10 16:54:15 GMT 33.829514 -117.554214 6,550 278 246 -1152
2018-10-10 16:54:11 GMT 33.829044 -117.550278 6,600 278 247 -1152
2018-10-10 16:54:06 GMT 33.828461 -117.544464 6,700 278 247 -1152
2018-10-10 16:54:01 GMT 33.827682 -117.537231 6,800 278 247 -1152
2018-10-10 16:53:57 GMT 33.827137 -117.532478 6,875 278 247 -1216
2018-10-10 16:53:49 GMT 33.825787 -117.519836 7,050 278 246 -1152
2018-10-10 16:53:38 GMT 33.824478 -117.507408 7,225 278 247 -1152
2018-10-10 16:53:30 GMT 33.823196 -117.495193 7,400 278 248 -1216
2018-10-10 16:53:27 GMT 33.822556 -117.488914 7,500 278 248 -1216
2018-10-10 16:53:23 GMT 33.822098 -117.484657 7,700 278 249 -1280
2018-10-10 16:53:19 GMT 33.821594 -117.479889 7,625 278 249 -1216
2018-10-10 16:53:14 GMT 33.820496 -117.470024 7,775 279 248 -1152
2018-10-10 16:53:09 GMT 33.819992 -117.466042 7,825 278 249 -1216
2018-10-10 16:53:02 GMT 33.818989 -117.456612 7,975 274 250 -1216
2018-10-10 16:52:58 GMT 33.818665 -117.450661 8,050 269 251 -1280
2018-10-10 16:52:50 GMT 33.818939 -117.440369 8,225 264 251 -1152
2018-10-10 16:52:47 GMT 33.819397 -117.435219 8,275 262 251 -1088
2018-10-10 16:52:44 GMT 33.819874 -117.431374 8,325 262 251 -1024
2018-10-10 16:52:40 GMT 33.820724 -117.424454 8,375 262 253 -704
2018-10-10 16:52:34 GMT 33.821457 -117.418289 8,450 262 255 -960
2018-10-10 16:52:28 GMT 33.822647 -117.408142 8,575 262 257 -1088
2018-10-10 16:52:24 GMT 33.822994 -117.405334 8,725 263 260 -1088
2018-10-10 16:52:21 GMT 33.823517 -117.401077 8,675 263 259 -1088
2018-10-10 16:52:18 GMT 33.824158 -117.395615 8,725 263 261 -1088
2018-10-10 16:52:12 GMT 33.825119 -117.387123 8,825 263 263 -1088
2018-10-10 16:52:09 GMT 33.825787 -117.381592 8,900 263 265 -1152
2018-10-10 16:52:03 GMT 33.826813 -117.372383 9,025 263 267 -1152
2018-10-10 16:52:00 GMT 33.827045 -117.370148 9,050 263 268 -1152
2018-10-10 16:51:56 GMT 33.827728 -117.364250 9,125 263 271 -1152
2018-10-10 16:51:51 GMT 33.828487 -117.357559 9,225 263 272 -1088
2018-10-10 16:51:48 GMT 33.829239 -117.350967 9,350 263 274 -1088
2018-10-10 16:51:41 GMT 33.830338 -117.341103 9,450 263 278 -1152
2018-10-10 16:51:38 GMT 33.830750 -117.337402 9,450 263 278 -1152
2018-10-10 16:51:35 GMT 33.831573 -117.330063 9,550 263 280 -1152
2018-10-10 16:51:31 GMT 33.832211 -117.324486 9,625 263 283 -1152
2018-10-10 16:51:28 GMT 33.832581 -117.321037 9,650 263 286 -1280
2018-10-10 16:51:25 GMT 33.833004 -117.317101 9,700 263 287 -1472
2018-10-10 16:51:20 GMT 33.834045 -117.307022 9,850 263 287 -1600
2018-10-10 16:51:15 GMT 33.834961 -117.298950 10,000 263 288 -1408
2018-10-10 16:51:07 GMT 33.836216 -117.287804 10,100 263 289 -1216
2018-10-10 16:51:03 GMT 33.837193 -117.279053 10,250 263 291 -1216
2018-10-10 16:50:58 GMT 33.837799 -117.273727 10,325 263 291 -1216
2018-10-10 16:50:54 GMT 33.838589 -117.266693 10,400 263 292 -1216
2018-10-10 16:50:48 GMT 33.839661 -117.257309 10,550 263 294 -1216
2018-10-10 16:50:45 GMT 33.840218 -117.252617 10,625 263 294 -1280
2018-10-10 16:50:42 GMT 33.840778 -117.248093 10,625 263 294 -1280
2018-10-10 16:50:35 GMT 33.842312 -117.234879 10,850 263 297 -1280
2018-10-10 16:50:27 GMT 33.844269 -117.217651 11,000 263 298 -1280
2018-10-10 16:50:24 GMT 33.844269 -117.217651 11,075 263 299 -1280
2018-10-10 16:50:16 GMT 33.845898 -117.202950 11,250 263 302 -1280
2018-10-10 16:50:13 GMT 33.846268 -117.199791 11,375 263 303 -1280
2018-10-10 16:50:10 GMT 33.846737 -117.195457 11,325 263 303 -1280
2018-10-10 16:50:04 GMT 33.847916 -117.185104 11,475 263 305 -1280
2018-10-10 16:50:01 GMT 33.848412 -117.180229 11,575 263 306 -1344
2018-10-10 16:49:58 GMT 33.848877 -117.176193 11,575 263 307 -1344
2018-10-10 16:49:54 GMT 33.849884 -117.167061 11,700 263 307 -1344
2018-10-10 16:49:50 GMT 33.850597 -117.160263 11,775 263 309 -1344
2018-10-10 16:49:41 GMT 33.852310 -117.144920 12,025 263 311 -1344
2018-10-10 16:49:37 GMT 33.853226 -117.137238 12,075 263 312 -1344
2018-10-10 16:49:32 GMT 33.854092 -117.129478 12,200 263 313 -1344
2018-10-10 16:49:29 GMT 33.854507 -117.125862 12,225 263 314 -1344
2018-10-10 16:49:24 GMT 33.855377 -117.117844 12,325 263 315 -1344
2018-10-10 16:49:19 GMT 33.856613 -117.106689 12,425 263 317 -1344
2018-10-10 16:49:14 GMT 33.857674 -117.097031 12,600 263 319 -1344
2018-10-10 16:49:11 GMT 33.857986 -117.094414 12,675 263 321 -1344
2018-10-10 16:49:08 GMT 33.858746 -117.087196 12,725 263 323 -1408
2018-10-10 16:49:05 GMT 33.859177 -117.083260 12,775 263 322 -1408
2018-10-10 16:49:02 GMT 33.860329 -117.072777 12,850 263 323 -1408
2018-10-10 16:48:59 GMT 33.860329 -117.072777 12,900 263 324 -1472
2018-10-10 16:48:56 GMT 33.860794 -117.068314 12,950 263 324 -1472
2018-10-10 16:48:53 GMT 33.861328 -117.063309 13,050 263 324 -1472
2018-10-10 16:48:50 GMT 33.862198 -117.055237 13,175 263 323 -1408
2018-10-10 16:48:47 GMT 33.862797 -117.049889 13,175 263 323 -1408
2018-10-10 16:48:42 GMT 33.863541 -117.043304 13,300 263 322 -1344
2018-10-10 16:48:39 GMT 33.864613 -117.034035 13,425 263 321 -1344
2018-10-10 16:48:36 GMT 33.864937 -117.030891 13,475 263 320 -1344
2018-10-10 16:48:31 GMT 33.865776 -117.023788 13,550 263 320 -1344
2018-10-10 16:48:27 GMT 33.866611 -117.016182 13,625 263 322 -1344
2018-10-10 16:48:24 GMT 33.867264 -117.010689 13,675 263 323 -1344
2018-10-10 16:48:20 GMT 33.868801 -116.996727 13,800 263 325 -1280
2018-10-10 16:48:17 GMT 33.868801 -116.996727 13,875 263 326 -1344
2018-10-10 16:48:13 GMT 33.869545 -116.990089 13,950 263 327 -1408
2018-10-10 16:48:08 GMT 33.870430 -116.982140 14,025 263 328 -1408
2018-10-10 16:48:05 GMT 33.871216 -116.974854 14,150 263 330 -1472
2018-10-10 16:47:59 GMT 33.872387 -116.964455 14,300 263 332 -1472
2018-10-10 16:47:54 GMT 33.873459 -116.954559 14,425 263 332 -1472
2018-10-10 16:47:44 GMT 33.875599 -116.935219 14,700 263 330 -1408
2018-10-10 16:47:40 GMT 33.876110 -116.930634 14,750 263 329 -1408
2018-10-10 16:47:36 GMT 33.877647 -116.916504 14,925 263 328 -1408
2018-10-10 16:47:33 GMT 33.877647 -116.916504 14,950 263 327 -1408
2018-10-10 16:47:29 GMT 33.878159 -116.911980 15,000 263 326 -1408
2018-10-10 16:47:23 GMT 33.879730 -116.897781 15,225 263 323 -1344
2018-10-10 16:47:19 GMT 33.880463 -116.891563 15,275 263 322 -1344
2018-10-10 16:47:12 GMT 33.881882 -116.878395 15,425 263 322 -1344
2018-10-10 16:47:09 GMT 33.882397 -116.873985 15,475 263 322 -1408
2018-10-10 16:47:01 GMT 33.883850 -116.860619 15,675 263 326 -1408
2018-10-10 16:46:58 GMT 33.884537 -116.854530 15,725 263 326 -1408
2018-10-10 16:46:52 GMT 33.885700 -116.843719 15,875 263 328 -1472
2018-10-10 16:46:49 GMT 33.886093 -116.840050 15,925 263 329 -1472
2018-10-10 16:46:46 GMT 33.886688 -116.834831 16,025 263 330 -1600
2018-10-10 16:46:39 GMT 33.888351 -116.819115 16,225 263 333 -1536
2018-10-10 16:46:36 GMT 33.888634 -116.816368 16,250 263 333 -1472
2018-10-10 16:46:29 GMT 33.890030 -116.802551 16,575 264 337 -1408
2018-10-10 16:46:26 GMT 33.890625 -116.796440 16,525 264 336 -1408
2018-10-10 16:46:19 GMT 33.892078 -116.781921 16,725 263 338 -1408
2018-10-10 16:46:14 GMT 33.892822 -116.774651 16,800 263 340 -1472
2018-10-10 16:46:06 GMT 33.894608 -116.760002 16,975 262 342 -1664
2018-10-10 16:46:03 GMT 33.895477 -116.753197 17,100 262 344 -1792
2018-10-10 16:45:56 GMT 33.897217 -116.739822 17,350 262 343 -2240
2018-10-10 16:45:51 GMT 33.898594 -116.729218 17,725 262 344 -2176
2018-10-10 16:45:45 GMT 33.899666 -116.720924 17,750 262 345 -2176
2018-10-10 16:45:42 GMT 33.900642 -116.713142 17,850 262 345 -2176
2018-10-10 16:45:37 GMT 33.901978 -116.703110 18,050 262 345 -2112
2018-10-10 16:45:34 GMT 33.902481 -116.699135 18,150 262 345 -2176
2018-10-10 16:45:31 GMT 33.903488 -116.691338 18,275 262 345 -2240
2018-10-10 16:45:26 GMT 33.904598 -116.682983 18,525 262 346 -2176
2018-10-10 16:45:23 GMT 33.905296 -116.677834 18,550 262 346 -2240
2018-10-10 16:45:20 GMT 33.906181 -116.671204 18,600 262 346 -2176
2018-10-10 16:45:14 GMT 33.907440 -116.661362 19,600 262 347 -2176
2018-10-10 16:45:11 GMT 33.908020 -116.656754 19,000 262 347 -2240
2018-10-10 16:45:08 GMT 33.908978 -116.649513 19,275 262 347 -2176
2018-10-10 16:45:03 GMT 33.910141 -116.640411 19,300 262 346 -2176
2018-10-10 16:45:00 GMT 33.911022 -116.633720 19,375 262 346 -2176
2018-10-10 16:44:57 GMT 33.911636 -116.628784 19,550 262 346 -2240
2018-10-10 16:44:53 GMT 33.912781 -116.619820 19,750 262 347 -2240
2018-10-10 16:44:50 GMT 33.913399 -116.614838 19,750 262 347 -2240
2018-10-10 16:44:46 GMT 33.914188 -116.608948 20,225 262 348 -2176
2018-10-10 16:44:41 GMT 33.915482 -116.598801 20,050 262 348 -2176
2018-10-10 16:44:37 GMT 33.916611 -116.590004 20,225 262 348 -2176
2018-10-10 16:44:31 GMT 33.918148 -116.578560 20,450 262 348 -2304
2018-10-10 16:44:28 GMT 33.918777 -116.573570 20,575 262 348 -2304
2018-10-10 16:44:25 GMT 33.919830 -116.565727 20,700 262 348 -2304
2018-10-10 16:44:20 GMT 33.920975 -116.556587 20,875 262 348 -2176
2018-10-10 16:44:17 GMT 33.921684 -116.550812 20,975 262 348 -2048
2018-10-10 16:44:14 GMT 33.922440 -116.545044 21,075 262 350 -1792
2018-10-10 16:44:09 GMT 33.923538 -116.536018 21,275 262 351 -1536
2018-10-10 16:44:06 GMT 33.924294 -116.530212 21,275 262 351 -1536
2018-10-10 16:44:00 GMT 33.925690 -116.518990 21,475 262 352 -1600
2018-10-10 16:43:57 GMT 33.926239 -116.514549 21,500 262 352 -1600
2018-10-10 16:43:54 GMT 33.926945 -116.508751 21,575 262 352 -1600
2018-10-10 16:43:50 GMT 33.928154 -116.499084 21,775 262 349 -1600
2018-10-10 16:43:47 GMT 33.928757 -116.494431 21,775 262 351 -1536
2018-10-10 16:43:44 GMT 33.929581 -116.487648 21,875 262 350 -1536
2018-10-10 16:43:41 GMT 33.930389 -116.481285 21,975 262 350 -1536
2018-10-10 16:43:38 GMT 33.930771 -116.478226 22,325 262 349 -1536
2018-10-10 16:43:34 GMT 33.932007 -116.468193 22,200 262 349 -1536
2018-10-10 16:43:28 GMT 33.933380 -116.457436 22,400 262 350 -1536
2018-10-10 16:43:25 GMT 33.933975 -116.452385 22,350 262 350 -1536
2018-10-10 16:43:21 GMT 33.935139 -116.442947 22,550 262 351 -1536
2018-10-10 16:43:17 GMT 33.935852 -116.437141 22,625 262 354 -1536
2018-10-10 16:43:14 GMT 33.936630 -116.431091 22,625 262 354 -1536
2018-10-10 16:43:10 GMT 33.937729 -116.421951 22,750 262 355 -1600
2018-10-10 16:43:07 GMT 33.938461 -116.416237 22,875 262 357 -1600
2018-10-10 16:43:04 GMT 33.939102 -116.410965 23,125 262 362 -1664
2018-10-10 16:43:01 GMT 33.939747 -116.405411 22,975 262 359 -1600
2018-10-10 16:42:58 GMT 33.940613 -116.398300 23,075 262 360 -1600
2018-10-10 16:42:54 GMT 33.941620 -116.389778 23,175 262 361 -1664
2018-10-10 16:42:51 GMT 33.942352 -116.384003 23,275 262 363 -1600
2018-10-10 16:42:46 GMT 33.943451 -116.375038 23,400 262 365 -1664
2018-10-10 16:42:43 GMT 33.944275 -116.368362 23,450 263 366 -1728
2018-10-10 16:42:40 GMT 33.945053 -116.361351 23,575 264 367 -1600
2018-10-10 16:42:35 GMT 33.945801 -116.353394 23,675 266 369 -1472
2018-10-10 16:42:32 GMT 33.946152 -116.347458 23,750 278 390 -2560
2018-10-10 16:42:29 GMT 33.946518 -116.339218 23,825 269 373 -1088
2018-10-10 16:42:25 GMT 33.946701 -116.331093 23,875 271 379 -512
2018-10-10 16:42:19 GMT 33.946682 -116.318665 23,925 272 383 -576
2018-10-10 16:42:16 GMT 33.946472 -116.311417 24,000 275 387 -1280
2018-10-10 16:42:13 GMT 33.945332 -116.295944 24,100 277 388 -1856
2018-10-10 16:42:09 GMT 33.945332 -116.295944 24,200 278 388 -2240
2018-10-10 16:42:05 GMT 33.944046 -116.283501 24,425 278 390 -2560
2018-10-10 16:41:59 GMT 33.943237 -116.275749 24,700 278 390 -2368
2018-10-10 16:41:56 GMT 33.942490 -116.268867 24,725 278 391 -2368
2018-10-10 16:41:53 GMT 33.941986 -116.264389 24,800 278 391 -2368
2018-10-10 16:41:50 GMT 33.941330 -116.257896 24,925 278 391 -2368
2018-10-10 16:41:46 GMT 33.940338 -116.249031 25,075 278 392 -2368
2018-10-10 16:41:43 GMT 33.939423 -116.240387 25,250 278 393 -2432
2018-10-10 16:41:39 GMT 33.938690 -116.233894 25,375 278 394 -2432
2018-10-10 16:41:34 GMT 33.937374 -116.221786 25,550 278 394 -2496
2018-10-10 16:41:29 GMT 33.936161 -116.210464 25,725 278 394 -2432
2018-10-10 16:41:25 GMT 33.935349 -116.203064 25,950 278 395 -2496
2018-10-10 16:41:22 GMT 33.934582 -116.195702 26,100 278 396 -2432
2018-10-10 16:41:18 GMT 33.933601 -116.186768 26,250 278 396 -2432
2018-10-10 16:41:14 GMT 33.932903 -116.180016 26,350 278 396 -2432
2018-10-10 16:41:10 GMT 33.931961 -116.171280 26,500 278 397 -2432
2018-10-10 16:41:07 GMT 33.931183 -116.163826 26,775 278 398 -2432
2018-10-10 16:41:03 GMT 33.930405 -116.156372 27,175 278 400 -2368
2018-10-10 16:40:59 GMT 33.929459 -116.147346 27,025 278 399 -2368
2018-10-10 16:40:56 GMT 33.928482 -116.138100 27,150 278 400 -2368
2018-10-10 16:40:52 GMT 33.927784 -116.131493 27,225 278 400 -2368
2018-10-10 16:40:49 GMT 33.926853 -116.122459 27,525 278 401 -2432
2018-10-10 16:40:42 GMT 33.925598 -116.110748 27,625 278 401 -2432
2018-10-10 16:40:39 GMT 33.924591 -116.101669 27,825 278 402 -2432
2018-10-10 16:40:36 GMT 33.923859 -116.094826 27,950 278 402 -2432
2018-10-10 16:40:31 GMT 33.922897 -116.085693 28,125 278 403 -2432
2018-10-10 16:40:25 GMT 33.921112 -116.069046 28,425 278 404 -2496
2018-10-10 16:40:22 GMT 33.919544 -116.054535 28,575 278 405 -2496
2018-10-10 16:40:18 GMT 33.919544 -116.054535 28,800 278 405 -2496
2018-10-10 16:40:14 GMT 33.918659 -116.046524 28,900 278 406 -2560
2018-10-10 16:40:09 GMT 33.917542 -116.036453 29,050 278 406 -2560
2018-10-10 16:40:03 GMT 33.915867 -116.020775 29,325 278 407 -2560
2018-10-10 16:39:58 GMT 33.914982 -116.012482 29,500 278 407 -2496
2018-10-10 16:39:55 GMT 33.913971 -116.003014 29,675 278 410 -2624
2018-10-10 16:39:49 GMT 33.912689 -115.991295 29,875 278 409 -2560
2018-10-10 16:39:45 GMT 33.911499 -115.980705 30,075 278 410 -2624
2018-10-10 16:39:40 GMT 33.910400 -115.970337 30,250 278 410 -2688
2018-10-10 16:39:36 GMT 33.909534 -115.962639 30,625 278 406 0
2018-10-10 16:39:31 GMT 33.907764 -115.946327 30,775 278 409 -3712
2018-10-10 16:39:28 GMT 33.907532 -115.944099 30,825 278 410 -3392
2018-10-10 16:39:25 GMT 33.906693 -115.936424 31,125 278 409 -3712
2018-10-10 16:39:22 GMT 33.905716 -115.927620 31,325 278 408 -3840
2018-10-10 16:39:19 GMT 33.905018 -115.921097 31,450 278 407 -3584
2018-10-10 16:39:16 GMT 33.904552 -115.916573 31,550 278 406 -3200
2018-10-10 16:39:13 GMT 33.903625 -115.908119 31,800 278 405 -1216
2018-10-10 16:39:08 GMT 33.901806 -115.891571 31,950 278 406 -320
2018-10-10 16:39:02 GMT 33.900925 -115.883507 32,000 278 406 -320
2018-10-10 16:38:57 GMT 33.899059 -115.866737 32,000 278 406 0
2018-10-10 16:38:54 GMT 33.898270 -115.859360 32,000 278 406 0
2018-10-10 16:38:51 GMT 33.898270 -115.859360 32,000 278 406 0
2018-10-10 16:38:48 GMT 33.897804 -115.855125 32,000 278 406 0
2018-10-10 16:38:44 GMT 33.896500 -115.843506 32,000 278 406 0
2018-10-10 16:38:40 GMT 33.895432 -115.833626 32,000 278 406 0
2018-10-10 16:38:36 GMT 33.894405 -115.824448 32,000 278 406 0
2018-10-10 16:38:32 GMT 33.893845 -115.819527 32,000 278 406 0
2018-10-10 16:38:28 GMT 33.892914 -115.810837 32,000 278 406 0
2018-10-10 16:38:24 GMT 33.891796 -115.800987 32,000 278 406 0
2018-10-10 16:38:20 GMT 33.890579 -115.789787 32,000 278 406 0
2018-10-10 16:38:17 GMT 33.889889 -115.783539 32,000 278 406 64
2018-10-10 16:38:13 GMT 33.889160 -115.776787 32,000 278 406 0
2018-10-10 16:38:10 GMT 33.887981 -115.766258 32,000 278 407 0
2018-10-10 16:38:04 GMT 33.886551 -115.753296 32,000 278 407 0
2018-10-10 16:38:01 GMT 33.885818 -115.746346 32,000 278 407 0
2018-10-10 16:37:55 GMT 33.883743 -115.727921 32,000 278 407 -64
2018-10-10 16:37:52 GMT 33.883743 -115.727921 32,000 278 407 -64
2018-10-10 16:37:49 GMT 33.882843 -115.719444 32,000 278 407 0
2018-10-10 16:37:46 GMT 33.882111 -115.712936 32,000 278 407 0
2018-10-10 16:37:38 GMT 33.880096 -115.694778 32,000 278 408 0
2018-10-10 16:37:34 GMT 33.879227 -115.686935 32,000 278 407 0
2018-10-10 16:37:28 GMT 33.877808 -115.674149 32,000 278 407 0
2018-10-10 16:37:23 GMT 33.876434 -115.661774 32,000 278 407 0
2018-10-10 16:37:19 GMT 33.874947 -115.648331 32,000 278 407 0
2018-10-10 16:37:16 GMT 33.874947 -115.648331 32,000 278 407 0
2018-10-10 16:37:13 GMT 33.873917 -115.639343 32,000 278 407 0
2018-10-10 16:37:10 GMT 33.873177 -115.632645 32,000 278 407 0
2018-10-10 16:37:05 GMT 33.872154 -115.623436 32,000 278 407 0
2018-10-10 16:37:02 GMT 33.870529 -115.609077 32,000 278 407 0
2018-10-10 16:36:59 GMT 33.870529 -115.609077 32,000 278 408 0
2018-10-10 16:36:53 GMT 33.868801 -115.593567 32,000 278 408 0
2018-10-10 16:36:50 GMT 33.868057 -115.586823 32,000 278 408 0
2018-10-10 16:36:46 GMT 33.866100 -115.569534 32,000 278 408 0
2018-10-10 16:36:42 GMT 33.866100 -115.569534 32,000 278 408 0
2018-10-10 16:36:37 GMT 33.864990 -115.559639 32,000 278 408 0
2018-10-10 16:36:34 GMT 33.864212 -115.552689 32,000 278 408 0
2018-10-10 16:36:30 GMT 33.863434 -115.545738 32,000 278 408 0
2018-10-10 16:36:27 GMT 33.862244 -115.535423 32,000 278 408 0
2018-10-10 16:36:22 GMT 33.860184 -115.517204 32,000 278 407 0
2018-10-10 16:36:18 GMT 33.860184 -115.517204 32,000 278 407 0
2018-10-10 16:36:15 GMT 33.858280 -115.499954 32,000 278 407 0
2018-10-10 16:36:10 GMT 33.858280 -115.499954 32,000 278 407 0
2018-10-10 16:36:05 GMT 33.856838 -115.487366 32,000 278 407 0
2018-10-10 16:35:59 GMT 33.855347 -115.473923 32,000 278 407 0
2018-10-10 16:35:56 GMT 33.854603 -115.467400 32,000 278 407 0
2018-10-10 16:35:53 GMT 33.853626 -115.458641 32,000 278 407 0
2018-10-10 16:35:44 GMT 33.851482 -115.439819 32,000 278 407 0
2018-10-10 16:35:39 GMT 33.850460 -115.430603 32,000 278 407 0
2018-10-10 16:35:35 GMT 33.849201 -115.419388 32,000 278 407 0
2018-10-10 16:35:32 GMT 33.848694 -115.414680 32,000 278 407 0
2018-10-10 16:35:27 GMT 33.847412 -115.403473 32,000 278 407 0
2018-10-10 16:35:24 GMT 33.846405 -115.394783 32,000 278 407 0
2018-10-10 16:35:18 GMT 33.844986 -115.382233 32,000 278 407 64
2018-10-10 16:35:13 GMT 33.843712 -115.370811 32,000 278 407 64
2018-10-10 16:35:08 GMT 33.842422 -115.359581 32,000 278 407 64
2018-10-10 16:35:01 GMT 33.839584 -115.334976 31,975 278 406 -448
2018-10-10 16:34:57 GMT 33.838531 -115.325783 32,025 278 406 -960
2018-10-10 16:34:49 GMT 33.837753 -115.318832 32,000 278 406 -256
2018-10-10 16:34:46 GMT 33.836681 -115.309464 32,050 278 406 -960
2018-10-10 16:34:41 GMT 33.835655 -115.300484 32,200 278 406 -960
2018-10-10 16:34:36 GMT 33.834446 -115.289955 32,175 278 407 -960
2018-10-10 16:34:33 GMT 33.833679 -115.283241 32,225 278 407 -960
2018-10-10 16:34:30 GMT 33.832626 -115.274048 32,300 278 406 -960
2018-10-10 16:34:23 GMT 33.829884 -115.250069 32,750 278 406 -1024
2018-10-10 16:34:19 GMT 33.829884 -115.250069 32,500 278 406 -960
2018-10-10 16:34:11 GMT 33.827602 -115.230270 32,750 278 406 -1024
2018-10-10 16:34:07 GMT 33.826996 -115.225121 32,800 278 407 -960
2018-10-10 16:34:03 GMT 33.825928 -115.215912 32,775 278 407 -960
2018-10-10 16:33:59 GMT 33.824753 -115.205383 32,800 278 407 -960
2018-10-10 16:33:56 GMT 33.824203 -115.200676 32,875 278 407 -960
2018-10-10 16:33:53 GMT 33.823242 -115.192383 32,975 278 406 -1024
2018-10-10 16:33:49 GMT 33.821274 -115.175392 33,025 278 406 -1024
2018-10-10 16:33:40 GMT 33.820038 -115.164635 33,100 278 406 -960
2018-10-10 16:33:37 GMT 33.819214 -115.157738 33,150 278 406 -960
2018-10-10 16:33:33 GMT 33.817921 -115.146561 33,225 278 405 -1024
2018-10-10 16:33:29 GMT 33.817154 -115.139854 33,275 278 405 -1024
2018-10-10 16:33:25 GMT 33.815872 -115.128708 33,375 278 405 -1024
2018-10-10 16:33:20 GMT 33.814800 -115.119324 33,425 278 405 -1024
2018-10-10 16:33:17 GMT 33.813683 -115.109772 33,500 278 405 -1024
2018-10-10 16:33:13 GMT 33.812714 -115.101295 33,700 278 407 -768
2018-10-10 16:33:09 GMT 33.812099 -115.095924 33,775 278 405 -1152
2018-10-10 16:33:05 GMT 33.810974 -115.086105 33,700 278 405 -1152
2018-10-10 16:33:01 GMT 33.809914 -115.076981 33,750 278 405 -1152
2018-10-10 16:32:58 GMT 33.809120 -115.070061 33,825 278 407 -768
2018-10-10 16:32:55 GMT 33.808273 -115.062950 33,875 278 406 -1088
2018-10-10 16:32:48 GMT 33.806606 -115.048370 34,000 279 408 0
2018-10-10 16:32:45 GMT 33.805397 -115.038300 34,000 279 408 0
2018-10-10 16:32:37 GMT 33.803722 -115.023933 34,000 279 408 0
2018-10-10 16:32:33 GMT 33.802460 -115.012955 34,000 279 408 0
2018-10-10 16:32:27 GMT 33.800903 -114.999947 34,000 279 408 0
2018-10-10 16:32:22 GMT 33.799812 -114.990517 34,000 279 408 64
2018-10-10 16:32:16 GMT 33.798042 -114.975700 34,000 278 408 0
2018-10-10 16:32:12 GMT 33.796967 -114.966316 34,000 278 408 0
2018-10-10 16:32:06 GMT 33.795456 -114.953316 34,000 278 408 0
2018-10-10 16:32:02 GMT 33.794224 -114.942513 34,000 278 408 0
2018-10-10 16:31:54 GMT 33.792480 -114.927475 34,000 279 408 0
2018-10-10 16:31:50 GMT 33.791382 -114.918060 34,000 279 408 0
2018-10-10 16:31:43 GMT 33.789474 -114.902115 34,000 279 408 0
2018-10-10 16:31:39 GMT 33.788452 -114.893417 34,000 279 408 0
2018-10-10 16:31:33 GMT 33.786869 -114.880371 34,000 279 408 0
2018-10-10 16:31:30 GMT 33.785706 -114.870522 34,000 279 408 0
2018-10-10 16:31:22 GMT 33.783798 -114.854393 34,000 279 408 0
2018-10-10 16:31:19 GMT 33.781006 -114.830872 34,000 279 408 0
2018-10-10 16:31:11 GMT 33.781006 -114.830872 34,000 279 408 0
2018-10-10 16:31:07 GMT 33.779846 -114.821480 34,000 279 408 0
2018-10-10 16:30:58 GMT 33.774208 -114.773537 34,000 279 408 0
2018-10-10 16:30:47 GMT 33.774208 -114.773537 34,000 279 408 0
2018-10-10 16:30:39 GMT 33.772484 -114.758781 34,000 279 408 64
2018-10-10 16:30:35 GMT 33.771229 -114.748016 34,000 279 408 0
2018-10-10 16:30:26 GMT 33.768665 -114.726273 34,000 279 408 0
2018-10-10 16:30:16 GMT 33.766113 -114.704720 34,000 279 408 0
2018-10-10 16:30:10 GMT 33.764923 -114.694633 34,000 279 409 0
2018-10-10 16:30:06 GMT 33.763546 -114.683189 34,000 279 409 -64
2018-10-10 16:29:54 GMT 33.760242 -114.655785 34,000 279 409 0
2018-10-10 16:29:49 GMT 33.759079 -114.646111 34,000 279 409 0
2018-10-10 16:29:42 GMT 33.757370 -114.631966 34,000 279 410 64
2018-10-10 16:29:36 GMT 33.755493 -114.616646 34,000 279 410 0
2018-10-10 16:29:31 GMT 33.754211 -114.605843 34,000 279 410 0
2018-10-10 16:29:20 GMT 33.751259 -114.581108 34,000 279 410 0
2018-10-10 16:29:13 GMT 33.749268 -114.564476 34,000 279 410 0
2018-10-10 16:29:10 GMT 33.748215 -114.555679 34,000 279 410 0
2018-10-10 16:28:59 GMT 33.745392 -114.532242 34,000 279 410 0
2018-10-10 16:28:48 GMT 33.742218 -114.506348 34,000 279 410 64
2018-10-10 16:28:39 GMT 33.740158 -114.489258 34,000 279 411 0
2018-10-10 16:28:36 GMT 33.739151 -114.481125 34,000 279 411 0
2018-10-10 16:28:28 GMT 33.736965 -114.463287 34,000 279 411 0
2018-10-10 16:28:24 GMT 33.735672 -114.452705 34,000 279 411 0
2018-10-10 16:28:17 GMT 33.734024 -114.439369 34,000 279 411 0
2018-10-10 16:28:13 GMT 33.732880 -114.429893 34,000 279 412 0
2018-10-10 16:28:09 GMT 33.730957 -114.414085 34,000 279 412 0
2018-10-10 16:28:02 GMT 33.729984 -114.406410 34,000 279 412 0
2018-10-10 16:27:56 GMT 33.728165 -114.391273 34,000 279 412 0
2018-10-10 16:27:51 GMT 33.726631 -114.378609 34,000 279 412 0
2018-10-10 16:27:45 GMT 33.725281 -114.367790 34,000 279 412 0
2018-10-10 16:27:40 GMT 33.723495 -114.353104 34,000 279 412 0
2018-10-10 16:27:34 GMT 33.722347 -114.343590 34,000 279 412 0
2018-10-10 16:27:23 GMT 33.719284 -114.318520 34,000 279 412 0
2018-10-10 16:27:19 GMT 33.717880 -114.306793 34,000 279 411 64
2018-10-10 16:27:13 GMT 33.716400 -114.294807 34,000 279 411 64
2018-10-10 16:27:07 GMT 33.714706 -114.280853 34,000 279 411 0
2018-10-10 16:27:02 GMT 33.713379 -114.269974 34,000 279 411 -64
2018-10-10 16:26:57 GMT 33.711731 -114.256470 34,000 279 411 -64
2018-10-10 16:26:51 GMT 33.708660 -114.231720 34,000 279 410 0
2018-10-10 16:26:45 GMT 33.708660 -114.231720 34,000 279 410 0
2018-10-10 16:26:39 GMT 33.706970 -114.217957 34,000 279 410 0
2018-10-10 16:26:34 GMT 33.705776 -114.208092 34,000 279 410 0
2018-10-10 16:26:30 GMT 33.704426 -114.197273 34,000 279 410 0
2018-10-10 16:26:24 GMT 33.702576 -114.182701 34,000 279 410 0
2018-10-10 16:26:17 GMT 33.700981 -114.169868 34,000 279 409 64
2018-10-10 16:26:11 GMT 33.699005 -114.153946 34,000 279 409 0
2018-10-10 16:26:01 GMT 33.696140 -114.130608 34,000 279 409 0
2018-10-10 16:25:50 GMT 33.692963 -114.105240 34,000 279 409 -64
2018-10-10 16:25:39 GMT 33.690086 -114.081917 34,000 279 408 0
2018-10-10 16:25:29 GMT 33.687286 -114.059334 34,000 279 408 0
2018-10-10 16:25:21 GMT 33.685364 -114.043915 34,000 279 407 64
2018-10-10 16:25:17 GMT 33.684223 -114.034714 34,000 279 407 0
2018-10-10 16:25:07 GMT 33.681107 -114.009720 34,000 279 407 0
2018-10-10 16:24:59 GMT 33.679146 -113.993858 34,000 279 407 0
2018-10-10 16:24:56 GMT 33.677994 -113.984726 34,000 279 406 0
2018-10-10 16:24:43 GMT 33.674698 -113.958382 34,000 279 406 0
2018-10-10 16:24:33 GMT 33.671791 -113.935661 34,000 279 406 0
2018-10-10 16:24:23 GMT 33.668629 -113.910767 34,000 279 406 0
2018-10-10 16:24:10 GMT 33.665089 -113.882729 34,000 279 405 0
2018-10-10 16:24:04 GMT 33.663273 -113.868546 34,000 279 405 0
2018-10-10 16:24:01 GMT 33.662567 -113.862976 34,000 279 405 0
2018-10-10 16:23:50 GMT 33.659317 -113.837700 34,000 279 404 0
2018-10-10 16:23:39 GMT 33.656197 -113.813324 34,000 279 404 0
2018-10-10 16:23:32 GMT 33.654602 -113.800705 34,000 279 404 0
2018-10-10 16:23:27 GMT 33.652954 -113.787865 34,000 279 404 0
2018-10-10 16:23:20 GMT 33.651077 -113.772789 34,000 279 404 0
2018-10-10 16:23:13 GMT 33.648880 -113.755974 34,000 280 404 0
2018-10-10 16:23:10 GMT 33.647911 -113.749809 34,000 287 406 64
2018-10-10 16:23:03 GMT 33.645538 -113.736649 34,000 285 406 0
2018-10-10 16:22:58 GMT 33.643257 -113.726234 34,000 287 406 64
2018-10-10 16:22:52 GMT 33.639725 -113.712646 34,000 289 407 0
2018-10-10 16:22:44 GMT 33.635010 -113.695496 34,000 289 407 0
2018-10-10 16:22:41 GMT 33.633545 -113.690170 34,000 289 407 0
2018-10-10 16:22:31 GMT 33.627289 -113.667465 34,000 289 407 0
2018-10-10 16:22:27 GMT 33.624680 -113.658028 34,000 289 406 0
2018-10-10 16:22:22 GMT 33.620678 -113.643494 34,000 289 406 0
2018-10-10 16:22:19 GMT 33.620071 -113.641373 34,000 289 406 0
2018-10-10 16:22:08 GMT 33.613815 -113.618698 34,000 289 406 0
2018-10-10 16:21:57 GMT 33.607456 -113.595428 34,000 289 406 0
2018-10-10 16:21:46 GMT 33.601135 -113.572403 34,000 289 406 0
2018-10-10 16:21:36 GMT 33.594223 -113.547234 34,000 289 405 0
2018-10-10 16:21:31 GMT 33.589325 -113.529579 34,000 289 405 0
2018-10-10 16:21:24 GMT 33.587677 -113.523575 34,000 288 404 0
2018-10-10 16:21:15 GMT 33.583466 -113.506203 34,000 284 403 0
2018-10-10 16:21:12 GMT 33.582039 -113.499245 34,000 283 402 0
2018-10-10 16:21:08 GMT 33.580132 -113.489288 34,000 283 402 64
2018-10-10 16:21:02 GMT 33.577431 -113.474922 34,000 283 402 64
2018-10-10 16:20:53 GMT 33.573761 -113.455307 34,000 283 403 0
2018-10-10 16:20:50 GMT 33.572800 -113.450317 34,000 283 403 0
2018-10-10 16:20:41 GMT 33.569237 -113.431374 34,000 283 403 0
2018-10-10 16:20:38 GMT 33.567982 -113.424622 34,000 283 403 0
2018-10-10 16:20:29 GMT 33.563839 -113.402596 34,000 283 403 0
2018-10-10 16:20:15 GMT 33.556530 -113.363853 34,000 283 403 0
2018-10-10 16:20:07 GMT 33.554901 -113.355141 34,000 283 403 0
2018-10-10 16:19:59 GMT 33.551605 -113.337708 34,000 283 403 0
2018-10-10 16:19:54 GMT 33.550011 -113.329185 34,000 283 403 -64
2018-10-10 16:19:43 GMT 33.545029 -113.302856 34,000 283 403 0
2018-10-10 16:19:37 GMT 33.542679 -113.290459 34,000 283 404 0
2018-10-10 16:19:31 GMT 33.540051 -113.276711 34,000 283 404 0
2018-10-10 16:19:26 GMT 33.537689 -113.264320 34,000 283 403 0
2018-10-10 16:19:21 GMT 33.536407 -113.257561 34,000 283 405 64
2018-10-10 16:19:13 GMT 33.532196 -113.235535 34,000 283 404 0
2018-10-10 16:19:09 GMT 33.531418 -113.231415 34,000 283 405 64
2018-10-10 16:19:02 GMT 33.527992 -113.213554 34,000 283 405 0
2018-10-10 16:18:59 GMT 33.522266 -113.183449 34,000 283 405 64
2018-10-10 16:18:47 GMT 33.522266 -113.183449 34,000 283 405 0
2018-10-10 16:18:38 GMT 33.517891 -113.160469 34,000 283 406 64
2018-10-10 16:18:25 GMT 33.513245 -113.136215 34,000 283 406 0
2018-10-10 16:18:16 GMT 33.508766 -113.112938 34,000 283 407 0
2018-10-10 16:18:02 GMT 33.500977 -113.072113 34,000 283 408 0
2018-10-10 16:17:52 GMT 33.498734 -113.060196 34,000 283 408 0
2018-10-10 16:17:41 GMT 33.494289 -113.036873 34,000 283 409 0
2018-10-10 16:17:30 GMT 33.487213 -113.000046 34,000 283 409 0
2018-10-10 16:17:21 GMT 33.486053 -112.993889 34,000 283 409 0
2018-10-10 16:17:17 GMT 33.484589 -112.986198 34,000 283 409 0
2018-10-10 16:17:13 GMT 33.482975 -112.977791 34,000 283 409 0
2018-10-10 16:17:08 GMT 33.480461 -112.964622 34,000 283 408 0
2018-10-10 16:17:00 GMT 33.476692 -112.945000 34,000 284 408 0
2018-10-10 16:16:57 GMT 33.475433 -112.938408 34,000 284 408 0
2018-10-10 16:16:53 GMT 33.474270 -112.932220 34,000 284 408 0
2018-10-10 16:16:46 GMT 33.470901 -112.914841 34,000 284 408 0
2018-10-10 16:16:42 GMT 33.469803 -112.909126 34,000 289 409 0
2018-10-10 16:16:37 GMT 33.467102 -112.895287 34,000 284 408 0
2018-10-10 16:16:32 GMT 33.465240 -112.885864 34,000 284 408 0
2018-10-10 16:16:27 GMT 33.462753 -112.873154 34,000 284 407 0
2018-10-10 16:16:23 GMT 33.461098 -112.864571 34,000 284 408 0
2018-10-10 16:16:16 GMT 33.458164 -112.849205 34,000 283 408 0
2018-10-10 16:16:10 GMT 33.456024 -112.837997 34,000 285 408 0
2018-10-10 16:16:04 GMT 33.452911 -112.823822 34,000 287 409 0
2018-10-10 16:15:59 GMT 33.449413 -112.810196 34,000 289 409 64
2018-10-10 16:15:49 GMT 33.442612 -112.786194 34,000 289 409 0
2018-10-10 16:15:42 GMT 33.439819 -112.776360 34,000 289 409 0
2018-10-10 16:15:39 GMT 33.437866 -112.769501 34,000 289 409 0
2018-10-10 16:15:35 GMT 33.435493 -112.761147 34,000 289 409 0
2018-10-10 16:15:32 GMT 33.433353 -112.753639 34,000 289 409 0
2018-10-10 16:15:27 GMT 33.430557 -112.743774 34,000 289 409 0
2018-10-10 16:15:20 GMT 33.426498 -112.729446 34,000 289 409 0
2018-10-10 16:15:16 GMT 33.424210 -112.721542 34,000 289 409 0
2018-10-10 16:15:12 GMT 33.422104 -112.714012 34,000 289 409 0
2018-10-10 16:15:09 GMT 33.419449 -112.704842 34,000 289 409 0
2018-10-10 16:15:02 GMT 33.414963 -112.688957 34,000 289 409 0
2018-10-10 16:14:59 GMT 33.413425 -112.683632 34,000 289 409 0
2018-10-10 16:14:53 GMT 33.410522 -112.673363 34,000 289 409 0
2018-10-10 16:14:50 GMT 33.408028 -112.664574 34,000 289 409 0
2018-10-10 16:14:46 GMT 33.405655 -112.656219 34,000 289 409 0
2018-10-10 16:14:43 GMT 33.404118 -112.650894 34,000 289 409 0
2018-10-10 16:14:40 GMT 33.401604 -112.642097 34,000 289 409 64
2018-10-10 16:14:35 GMT 33.399742 -112.635483 34,000 289 409 0
2018-10-10 16:14:32 GMT 33.396809 -112.625221 34,000 289 409 0
2018-10-10 16:14:28 GMT 33.395039 -112.619003 34,000 289 409 0
2018-10-10 16:14:21 GMT 33.390335 -112.602501 34,000 289 409 0
2018-10-10 16:14:14 GMT 33.385914 -112.587051 34,000 289 410 0
2018-10-10 16:14:10 GMT 33.383240 -112.577621 34,000 289 410 0
2018-10-10 16:14:02 GMT 33.378387 -112.560646 34,000 289 411 0
2018-10-10 16:13:57 GMT 33.376419 -112.553757 34,000 289 411 0
2018-10-10 16:13:51 GMT 33.371704 -112.537247 34,000 289 412 0
2018-10-10 16:13:46 GMT 33.368134 -112.524773 34,000 289 412 0
2018-10-10 16:13:40 GMT 33.365067 -112.514008 34,000 289 412 0
2018-10-10 16:13:36 GMT 33.360764 -112.498901 34,000 289 412 0
2018-10-10 16:13:29 GMT 33.358913 -112.492432 34,000 289 413 0
2018-10-10 16:13:25 GMT 33.351746 -112.467430 34,000 289 413 0
2018-10-10 16:13:17 GMT 33.351746 -112.467430 34,000 289 413 0
2018-10-10 16:13:13 GMT 33.349045 -112.457977 34,000 289 413 0
2018-10-10 16:13:08 GMT 33.345135 -112.444397 34,000 289 413 0
2018-10-10 16:13:01 GMT 33.341923 -112.433128 34,000 289 413 0
2018-10-10 16:12:55 GMT 33.337315 -112.417152 34,000 289 413 0
2018-10-10 16:12:50 GMT 33.334854 -112.408539 34,000 289 413 0
2018-10-10 16:12:44 GMT 33.330643 -112.393875 34,000 289 414 0
2018-10-10 16:12:39 GMT 33.328217 -112.385414 34,000 289 414 0
2018-10-10 16:12:36 GMT 33.325745 -112.376785 34,000 290 414 0
2018-10-10 16:12:33 GMT 33.322906 -112.367065 34,000 290 414 0
2018-10-10 16:12:28 GMT 33.321205 -112.360992 34,000 290 414 0
2018-10-10 16:12:24 GMT 33.318146 -112.350418 34,000 290 414 0
2018-10-10 16:12:21 GMT 33.316315 -112.344162 34,000 290 414 0
2018-10-10 16:12:18 GMT 33.314457 -112.337669 34,000 290 414 0
2018-10-10 16:12:14 GMT 33.311619 -112.327919 34,000 290 414 0
2018-10-10 16:12:09 GMT 33.308407 -112.316711 34,000 290 414 0
2018-10-10 16:12:06 GMT 33.307068 -112.312134 34,000 289 415 0
2018-10-10 16:12:02 GMT 33.304169 -112.301964 34,000 289 415 0
2018-10-10 16:11:56 GMT 33.300339 -112.288788 34,000 289 415 0
2018-10-10 16:11:52 GMT 33.298279 -112.281593 34,000 289 415 0
2018-10-10 16:11:44 GMT 33.294067 -112.266869 34,000 289 415 0
2018-10-10 16:11:41 GMT 33.291733 -112.258850 34,000 289 415 0
2018-10-10 16:11:32 GMT 33.284199 -112.232681 34,000 289 415 0
2018-10-10 16:11:23 GMT 33.280056 -112.218338 34,000 290 415 64
2018-10-10 16:11:19 GMT 33.277267 -112.208809 34,000 290 415 64
2018-10-10 16:11:11 GMT 33.272736 -112.193207 34,000 290 416 -64
2018-10-10 16:11:08 GMT 33.270885 -112.186722 34,000 290 416 0
2018-10-10 16:11:01 GMT 33.265903 -112.169571 34,000 290 416 0
2018-10-10 16:10:58 GMT 33.264645 -112.165199 34,000 290 416 0
2018-10-10 16:10:49 GMT 33.258865 -112.145248 34,000 290 416 0
2018-10-10 16:10:46 GMT 33.256313 -112.136551 34,000 290 416 0
2018-10-10 16:10:36 GMT 33.247284 -112.105263 34,000 289 417 0
2018-10-10 16:10:26 GMT 33.244492 -112.095703 34,000 289 417 0
2018-10-10 16:10:15 GMT 33.237926 -112.073044 34,000 290 418 0
2018-10-10 16:10:04 GMT 33.230392 -112.047142 34,000 290 419 0
2018-10-10 16:09:53 GMT 33.220230 -112.012207 34,000 290 419 0
2018-10-10 16:09:43 GMT 33.216843 -112.000397 34,000 290 419 0
2018-10-10 16:09:37 GMT 33.213066 -111.987511 34,000 290 420 0
2018-10-10 16:09:31 GMT 33.209389 -111.974838 34,000 290 420 0
2018-10-10 16:09:26 GMT 33.206177 -111.963867 34,000 290 420 0
2018-10-10 16:09:21 GMT 33.203804 -111.955788 34,000 290 420 0
2018-10-10 16:09:14 GMT 33.199242 -111.940033 34,000 290 421 0
2018-10-10 16:09:11 GMT 33.197067 -111.932610 34,000 290 421 0
2018-10-10 16:09:08 GMT 33.195511 -111.927338 34,000 290 421 0
2018-10-10 16:09:04 GMT 33.191437 -111.913330 34,000 290 421 0
2018-10-10 16:08:59 GMT 33.188828 -111.904373 34,000 290 421 0
2018-10-10 16:08:50 GMT 33.182713 -111.883530 34,000 290 421 0
2018-10-10 16:08:47 GMT 33.181641 -111.879822 34,000 290 421 0
2018-10-10 16:08:39 GMT 33.176605 -111.862740 34,000 290 421 0
2018-10-10 16:08:35 GMT 33.173676 -111.852631 34,000 290 421 0
2018-10-10 16:08:31 GMT 33.171066 -111.843620 34,000 290 421 0
2018-10-10 16:08:28 GMT 33.169830 -111.839447 34,000 290 421 0
2018-10-10 16:08:25 GMT 33.166946 -111.829613 34,000 290 421 0
2018-10-10 16:08:18 GMT 33.162964 -111.815994 34,000 290 421 0
2018-10-10 16:08:12 GMT 33.158321 -111.800179 34,000 290 421 0
2018-10-10 16:08:07 GMT 33.155807 -111.791664 34,000 290 421 0
2018-10-10 16:08:01 GMT 33.152454 -111.780281 34,000 290 421 0
2018-10-10 16:07:58 GMT 33.150238 -111.772598 34,000 290 421 0
2018-10-10 16:07:55 GMT 33.148682 -111.767319 34,000 290 421 0
2018-10-10 16:07:50 GMT 33.145054 -111.755058 34,000 290 421 0
2018-10-10 16:07:45 GMT 33.141701 -111.743683 34,000 290 421 0
2018-10-10 16:07:41 GMT 33.138676 -111.733421 34,000 290 420 0
2018-10-10 16:07:38 GMT 33.136440 -111.725746 34,000 290 420 0
2018-10-10 16:07:34 GMT 33.134953 -111.720695 34,000 290 420 0
2018-10-10 16:07:30 GMT 33.131786 -111.709991 34,000 290 420 0
2018-10-10 16:07:27 GMT 33.130142 -111.704315 34,000 290 420 0
2018-10-10 16:07:23 GMT 33.127808 -111.696457 34,000 290 420 0
2018-10-10 16:07:17 GMT 33.123920 -111.683144 34,000 290 419 0
2018-10-10 16:07:12 GMT 33.120667 -111.672012 34,000 290 419 0
2018-10-10 16:07:06 GMT 33.116821 -111.658943 34,000 290 419 0
2018-10-10 16:07:01 GMT 33.113846 -111.648941 34,000 290 419 0
2018-10-10 16:06:55 GMT 33.109955 -111.635666 34,000 290 418 0
2018-10-10 16:06:50 GMT 33.103271 -111.613075 34,000 290 415 0
2018-10-10 16:06:46 GMT 33.102310 -111.609833 34,000 290 417 0
2018-10-10 16:06:39 GMT 33.099758 -111.601135 34,000 290 416 0
2018-10-10 16:06:35 GMT 33.096359 -111.589645 34,000 290 416 0
2018-10-10 16:06:31 GMT 33.094070 -111.581871 34,000 290 416 0
2018-10-10 16:06:28 GMT 33.092777 -111.577538 34,000 290 416 0
2018-10-10 16:06:23 GMT 33.088959 -111.564590 34,000 290 415 0
2018-10-10 16:06:20 GMT 33.087753 -111.560501 34,000 290 415 0
2018-10-10 16:06:17 GMT 33.085838 -111.554001 34,000 290 415 0
2018-10-10 16:06:12 GMT 33.081509 -111.539368 34,000 290 415 0
2018-10-10 16:06:07 GMT 33.079136 -111.531357 34,000 290 415 0
2018-10-10 16:05:59 GMT 33.074017 -111.513924 34,000 290 414 0
2018-10-10 16:05:56 GMT 33.071960 -111.507057 34,000 290 414 0
2018-10-10 16:05:49 GMT 33.066925 -111.490082 34,000 290 413 0
2018-10-10 16:05:45 GMT 33.065094 -111.483871 34,000 290 413 0
2018-10-10 16:05:40 GMT 33.061214 -111.470757 34,000 290 413 0
2018-10-10 16:05:37 GMT 33.059864 -111.466278 34,000 290 413 0
2018-10-10 16:05:34 GMT 33.057312 -111.457672 34,000 290 413 0
2018-10-10 16:05:27 GMT 33.053513 -111.444817 34,000 290 413 0
2018-10-10 16:05:22 GMT 33.050079 -111.433228 34,000 290 413 0
2018-10-10 16:05:17 GMT 33.046642 -111.421661 34,000 290 412 0
2018-10-10 16:05:13 GMT 33.044685 -111.415047 34,000 290 412 0
2018-10-10 16:05:05 GMT 33.039459 -111.397522 34,000 290 412 0
2018-10-10 16:05:02 GMT 33.037628 -111.391312 34,000 290 412 0
2018-10-10 16:04:56 GMT 33.033051 -111.375931 34,000 290 411 0
2018-10-10 16:04:50 GMT 33.030487 -111.367416 34,000 290 411 0
2018-10-10 16:04:44 GMT 33.025681 -111.351158 34,000 290 411 0
2018-10-10 16:04:40 GMT 33.022934 -111.341988 34,000 290 411 0
2018-10-10 16:04:33 GMT 33.018478 -111.327095 34,000 290 410 0
2018-10-10 16:04:30 GMT 33.017303 -111.323036 34,000 290 410 0
2018-10-10 16:04:21 GMT 33.010098 -111.299011 34,000 290 410 0
2018-10-10 16:04:11 GMT 33.004715 -111.280960 34,000 290 409 0
2018-10-10 16:04:07 GMT 33.003208 -111.275864 34,000 290 409 0
2018-10-10 16:04:00 GMT 32.997761 -111.257591 34,000 290 409 0
2018-10-10 16:03:57 GMT 32.991154 -111.235565 34,000 290 409 0
2018-10-10 16:03:49 GMT 32.991154 -111.235565 34,000 290 408 0
2018-10-10 16:03:46 GMT 32.989571 -111.230240 34,000 290 408 0
2018-10-10 16:03:40 GMT 32.985146 -111.215439 34,000 290 408 0
2018-10-10 16:03:37 GMT 32.983109 -111.208664 34,000 290 408 0
2018-10-10 16:03:29 GMT 32.978165 -111.192184 34,000 290 408 0
2018-10-10 16:03:24 GMT 32.975784 -111.184166 34,000 290 408 0
2018-10-10 16:03:17 GMT 32.971275 -111.169144 34,000 290 407 0
2018-10-10 16:03:13 GMT 32.968853 -111.160904 34,000 290 407 0
2018-10-10 16:03:03 GMT 32.958618 -111.126709 34,000 290 407 0
2018-10-10 16:02:55 GMT 32.956425 -111.119537 34,000 290 407 0
2018-10-10 16:02:51 GMT 32.954983 -111.114716 34,000 290 407 0
2018-10-10 16:02:46 GMT 32.949905 -111.097839 34,000 290 407 0
2018-10-10 16:02:40 GMT 32.947952 -111.091286 34,000 290 407 0
2018-10-10 16:02:33 GMT 32.942642 -111.073593 34,000 290 407 0
2018-10-10 16:02:30 GMT 32.940876 -111.067688 34,000 290 407 0
2018-10-10 16:02:22 GMT 32.935867 -111.051071 34,000 290 407 0
2018-10-10 16:02:19 GMT 32.933987 -111.044762 34,000 290 407 0
2018-10-10 16:02:14 GMT 32.930603 -111.033546 34,000 290 407 0
2018-10-10 16:02:11 GMT 32.928772 -111.027443 34,000 290 407 0
2018-10-10 16:02:06 GMT 32.926212 -111.019035 34,000 290 407 0
2018-10-10 16:02:03 GMT 32.923691 -111.010582 34,000 290 407 0
2018-10-10 16:01:58 GMT 32.921139 -111.002159 34,000 290 407 0
2018-10-10 16:01:55 GMT 32.919415 -110.996498 34,000 290 407 0
2018-10-10 16:01:52 GMT 32.916714 -110.987419 34,000 290 407 0
2018-10-10 16:01:47 GMT 32.914249 -110.979233 34,000 290 407 0
2018-10-10 16:01:44 GMT 32.911926 -110.971634 34,000 290 408 0
2018-10-10 16:01:40 GMT 32.910011 -110.965332 34,000 290 408 0
2018-10-10 16:01:36 GMT 32.907303 -110.956253 34,000 290 408 0
2018-10-10 16:01:32 GMT 32.904842 -110.948235 34,000 290 408 0
2018-10-10 16:01:29 GMT 32.902611 -110.940895 34,000 290 408 0
2018-10-10 16:01:26 GMT 32.900574 -110.934120 34,000 290 408 0
2018-10-10 16:01:23 GMT 32.898140 -110.926155 34,000 290 408 0
2018-10-10 16:01:19 GMT 32.894836 -110.915169 34,000 290 408 0
2018-10-10 16:01:15 GMT 32.893578 -110.910965 34,000 290 408 0
2018-10-10 16:01:12 GMT 32.891483 -110.903954 34,000 290 408 0
2018-10-10 16:01:09 GMT 32.889542 -110.897644 34,000 290 408 0
2018-10-10 16:01:04 GMT 32.886749 -110.888359 34,000 290 408 -64
2018-10-10 16:01:01 GMT 32.884315 -110.880302 34,000 290 408 0
2018-10-10 16:00:58 GMT 32.882675 -110.874847 34,000 290 408 0
2018-10-10 16:00:55 GMT 32.879379 -110.863823 34,000 290 408 0
2018-10-10 16:00:48 GMT 32.875935 -110.852440 34,000 290 408 0
2018-10-10 16:00:44 GMT 32.873108 -110.843155 34,000 290 408 0
2018-10-10 16:00:38 GMT 32.869263 -110.830460 34,000 290 408 0
2018-10-10 16:00:31 GMT 32.865692 -110.818596 34,000 290 409 0
2018-10-10 16:00:27 GMT 32.863312 -110.810799 34,000 290 409 0
2018-10-10 16:00:24 GMT 32.861412 -110.804459 34,000 290 409 0
2018-10-10 16:00:20 GMT 32.858898 -110.796165 34,000 290 410 0
2018-10-10 16:00:14 GMT 32.854980 -110.783279 34,000 290 410 0
2018-10-10 16:00:11 GMT 32.852425 -110.774811 34,000 290 410 0
2018-10-10 16:00:04 GMT 32.847630 -110.759171 34,000 290 410 0
2018-10-10 15:59:58 GMT 32.844467 -110.748802 34,000 290 410 0
2018-10-10 15:59:55 GMT 32.841843 -110.740097 34,000 290 410 0
2018-10-10 15:59:51 GMT 32.839905 -110.733780 34,000 290 410 0
2018-10-10 15:59:47 GMT 32.837173 -110.724884 34,000 290 410 0
2018-10-10 15:59:44 GMT 32.834690 -110.716797 34,000 290 410 0
2018-10-10 15:59:40 GMT 32.832642 -110.710052 34,000 290 410 0
2018-10-10 15:59:36 GMT 32.830124 -110.701759 34,000 290 411 0
2018-10-10 15:59:33 GMT 32.827660 -110.693703 34,000 290 411 0
2018-10-10 15:59:30 GMT 32.825729 -110.687363 34,000 290 411 0
2018-10-10 15:59:25 GMT 32.822479 -110.676712 34,000 290 411 0
2018-10-10 15:59:22 GMT 32.820602 -110.670555 34,000 290 411 0
2018-10-10 15:59:15 GMT 32.816441 -110.656761 34,000 290 412 0
2018-10-10 15:59:10 GMT 32.812904 -110.645050 34,000 290 412 0
2018-10-10 15:59:07 GMT 32.809551 -110.634003 34,000 290 412 0
2018-10-10 15:59:04 GMT 32.809551 -110.634003 34,000 290 412 0
2018-10-10 15:58:59 GMT 32.805771 -110.621666 34,000 290 412 0
2018-10-10 15:58:56 GMT 32.804031 -110.615952 34,000 290 412 0
2018-10-10 15:58:53 GMT 32.802795 -110.611893 34,000 290 412 0
2018-10-10 15:58:50 GMT 32.799824 -110.602112 34,000 290 412 0
2018-10-10 15:58:46 GMT 32.798195 -110.596786 34,000 290 412 0
2018-10-10 15:58:43 GMT 32.795818 -110.588936 34,000 290 412 0
2018-10-10 15:58:39 GMT 32.792633 -110.578491 34,000 290 412 0
2018-10-10 15:58:36 GMT 32.790619 -110.571899 34,000 290 413 0
2018-10-10 15:58:32 GMT 32.788696 -110.565506 34,000 290 413 0
2018-10-10 15:58:28 GMT 32.785812 -110.556137 34,000 290 413 0
2018-10-10 15:58:25 GMT 32.783661 -110.549103 34,000 290 413 0
2018-10-10 15:58:22 GMT 32.781647 -110.542511 34,000 290 413 0
2018-10-10 15:58:16 GMT 32.778641 -110.532722 34,000 290 413 0
2018-10-10 15:58:13 GMT 32.776501 -110.525711 34,000 290 413 0
2018-10-10 15:58:10 GMT 32.774689 -110.519714 34,000 290 413 0
2018-10-10 15:58:07 GMT 32.771797 -110.510353 34,000 290 413 0
2018-10-10 15:58:00 GMT 32.767513 -110.496284 34,000 290 413 0
2018-10-10 15:57:56 GMT 32.764938 -110.487961 34,000 290 413 0
2018-10-10 15:57:48 GMT 32.760361 -110.473022 34,000 291 414 0
2018-10-10 15:57:45 GMT 32.757568 -110.463852 34,000 291 414 0
2018-10-10 15:57:37 GMT 32.750656 -110.441490 34,000 290 413 0
2018-10-10 15:57:33 GMT 32.750656 -110.441490 34,000 290 413 0
2018-10-10 15:57:27 GMT 32.746147 -110.426781 34,000 290 413 0
2018-10-10 15:57:23 GMT 32.743309 -110.417358 34,000 290 413 0
2018-10-10 15:57:20 GMT 32.741447 -110.411423 34,000 290 413 0
2018-10-10 15:57:14 GMT 32.738388 -110.401390 34,000 290 414 0
2018-10-10 15:57:11 GMT 32.736279 -110.394547 34,000 290 414 0
2018-10-10 15:57:08 GMT 32.734276 -110.387932 34,000 290 414 0
2018-10-10 15:57:04 GMT 32.731659 -110.379417 34,000 291 415 64
2018-10-10 15:57:00 GMT 32.729015 -110.370834 34,000 291 415 0
2018-10-10 15:56:57 GMT 32.726120 -110.361458 34,000 291 415 0
2018-10-10 15:56:54 GMT 32.724827 -110.357162 34,000 291 415 0
2018-10-10 15:56:51 GMT 32.722267 -110.348869 34,000 291 415 0
2018-10-10 15:56:46 GMT 32.717606 -110.333664 34,000 291 415 0
2018-10-10 15:56:43 GMT 32.717606 -110.333664 34,000 291 415 0
2018-10-10 15:56:40 GMT 32.715237 -110.325996 34,000 291 415 0
2018-10-10 15:56:32 GMT 32.710487 -110.310638 34,000 291 415 0
2018-10-10 15:56:29 GMT 32.707626 -110.301414 34,000 291 415 0
2018-10-10 15:56:22 GMT 32.701782 -110.282440 34,000 291 415 0
2018-10-10 15:56:16 GMT 32.699661 -110.275597 34,000 291 415 0
2018-10-10 15:56:10 GMT 32.695999 -110.263626 34,000 291 415 0
2018-10-10 15:56:07 GMT 32.693665 -110.256149 34,000 291 415 0
2018-10-10 15:55:59 GMT 32.688721 -110.240166 34,000 291 415 0
2018-10-10 15:55:56 GMT 32.685745 -110.230553 34,000 291 415 0
2018-10-10 15:55:48 GMT 32.681484 -110.216690 34,000 291 415 0
2018-10-10 15:55:45 GMT 32.679199 -110.209457 34,000 291 415 0
2018-10-10 15:55:41 GMT 32.676910 -110.201988 34,000 291 415 0
2018-10-10 15:55:38 GMT 32.674923 -110.195564 34,000 291 415 0
2018-10-10 15:55:35 GMT 32.672287 -110.187050 34,000 291 415 0
2018-10-10 15:55:27 GMT 32.666729 -110.169106 34,000 291 415 0
2018-10-10 15:55:24 GMT 32.664917 -110.163155 34,000 291 415 0
2018-10-10 15:55:16 GMT 32.659607 -110.146072 34,000 291 415 0
2018-10-10 15:55:13 GMT 32.657959 -110.140739 34,000 291 415 0
2018-10-10 15:55:05 GMT 32.652390 -110.122803 34,000 291 415 0
2018-10-10 15:55:02 GMT 32.650345 -110.116249 34,000 291 415 0
2018-10-10 15:54:51 GMT 32.643494 -110.094048 34,000 291 414 0
2018-10-10 15:54:41 GMT 32.636471 -110.071465 34,000 291 414 0
2018-10-10 15:54:38 GMT 32.635071 -110.066971 34,000 291 414 0
2018-10-10 15:54:30 GMT 32.629253 -110.048256 34,000 291 414 0
2018-10-10 15:54:21 GMT 32.623169 -110.028679 34,000 291 413 0
2018-10-10 15:54:11 GMT 32.615204 -110.003029 34,000 291 413 0
2018-10-10 15:54:08 GMT 32.615204 -110.003029 34,000 291 412 0
2018-10-10 15:54:04 GMT 32.611359 -109.990723 34,000 291 412 0
2018-10-10 15:54:00 GMT 32.607700 -109.979088 34,000 291 411 0
2018-10-10 15:53:57 GMT 32.607700 -109.979088 34,000 291 411 0
2018-10-10 15:53:51 GMT 32.603394 -109.965347 34,000 291 411 0
2018-10-10 15:53:47 GMT 32.600906 -109.957336 34,000 291 410 0
2018-10-10 15:53:36 GMT 32.593597 -109.933968 34,000 291 409 0
2018-10-10 15:53:25 GMT 32.586456 -109.911293 34,000 291 408 0
2018-10-10 15:53:20 GMT 32.583401 -109.901451 34,000 291 408 0
2018-10-10 15:53:16 GMT 32.580467 -109.892036 34,000 291 407 0
2018-10-10 15:53:13 GMT 32.579071 -109.887611 34,000 291 407 0
2018-10-10 15:53:09 GMT 32.575287 -109.875473 34,000 291 407 0
2018-10-10 15:53:03 GMT 32.572369 -109.866081 34,000 291 407 0
2018-10-10 15:52:57 GMT 32.567387 -109.850220 34,000 291 407 0
2018-10-10 15:52:53 GMT 32.565170 -109.843124 34,000 291 407 0
2018-10-10 15:52:45 GMT 32.560497 -109.828300 34,000 291 407 0
2018-10-10 15:52:42 GMT 32.557938 -109.820160 34,000 291 407 0
2018-10-10 15:52:32 GMT 32.551941 -109.800934 34,000 291 407 0
2018-10-10 15:52:21 GMT 32.544388 -109.776711 34,000 291 407 0
2018-10-10 15:52:18 GMT 32.542946 -109.772141 34,000 291 407 0
2018-10-10 15:52:10 GMT 32.537498 -109.754593 34,000 291 407 0
2018-10-10 15:52:07 GMT 32.535919 -109.749573 34,000 291 407 0
2018-10-10 15:52:00 GMT 32.530796 -109.733070 34,000 291 407 0
2018-10-10 15:51:57 GMT 32.528793 -109.726791 34,000 291 407 0
2018-10-10 15:51:46 GMT 32.518227 -109.693214 34,000 291 407 0
2018-10-10 15:51:37 GMT 32.516087 -109.686325 34,000 291 407 0
2018-10-10 15:51:28 GMT 32.510265 -109.667992 34,000 291 407 0
2018-10-10 15:51:20 GMT 32.505100 -109.651512 34,000 291 407 0
2018-10-10 15:51:16 GMT 32.501953 -109.641464 34,000 291 407 0
2018-10-10 15:51:05 GMT 32.494583 -109.617905 34,000 291 407 0
2018-10-10 15:51:00 GMT 32.489456 -109.601639 34,000 291 406 0
2018-10-10 15:50:54 GMT 32.487457 -109.595406 34,000 291 406 0
2018-10-10 15:50:49 GMT 32.484200 -109.584976 34,000 291 406 0
2018-10-10 15:50:46 GMT 32.482224 -109.578735 34,000 291 406 0
2018-10-10 15:50:43 GMT 32.480103 -109.572090 34,000 291 406 0
2018-10-10 15:50:32 GMT 32.470230 -109.540810 34,000 291 406 0
2018-10-10 15:50:27 GMT 32.468079 -109.534187 34,000 291 406 0
2018-10-10 15:50:24 GMT 32.468079 -109.534187 34,000 291 406 0
2018-10-10 15:50:21 GMT 32.465858 -109.527077 34,000 291 406 0
2018-10-10 15:50:14 GMT 32.460781 -109.511047 34,000 291 406 0
2018-10-10 15:50:10 GMT 32.458454 -109.503761 34,000 291 406 0
2018-10-10 15:50:03 GMT 32.453800 -109.489243 34,000 291 406 0
2018-10-10 15:49:59 GMT 32.451241 -109.481117 34,000 291 406 0
2018-10-10 15:49:51 GMT 32.445839 -109.464073 34,000 291 406 0
2018-10-10 15:49:45 GMT 32.442764 -109.454262 34,000 291 406 0
2018-10-10 15:49:40 GMT 32.438763 -109.441597 34,000 291 406 0
2018-10-10 15:49:37 GMT 32.437042 -109.436188 34,000 291 406 0
2018-10-10 15:49:33 GMT 32.434574 -109.428253 34,000 291 406 0
2018-10-10 15:49:29 GMT 32.429825 -109.413292 34,000 291 406 0
2018-10-10 15:49:23 GMT 32.428196 -109.408134 34,000 291 406 0
2018-10-10 15:49:20 GMT 32.425591 -109.400009 34,000 291 406 0
2018-10-10 15:49:15 GMT 32.422703 -109.390869 34,000 291 406 0
2018-10-10 15:49:11 GMT 32.420235 -109.383186 34,000 291 406 0
2018-10-10 15:49:08 GMT 32.417675 -109.375114 34,000 291 405 0
2018-10-10 15:49:05 GMT 32.415485 -109.368279 34,000 291 405 0
2018-10-10 15:48:56 GMT 32.410412 -109.352303 34,000 291 405 0
2018-10-10 15:48:51 GMT 32.406223 -109.339020 34,000 291 405 -64
2018-10-10 15:48:46 GMT 32.403580 -109.330719 34,000 291 405 0
2018-10-10 15:48:42 GMT 32.400192 -109.319954 34,000 291 404 0
2018-10-10 15:48:35 GMT 32.396633 -109.308754 34,000 291 404 0
2018-10-10 15:48:32 GMT 32.393700 -109.299667 34,000 291 404 0
2018-10-10 15:48:25 GMT 32.389252 -109.285622 34,000 291 404 0
2018-10-10 15:48:21 GMT 32.386623 -109.277359 34,000 291 403 0
2018-10-10 15:48:14 GMT 32.382477 -109.264359 34,000 291 403 0
2018-10-10 15:48:10 GMT 32.379318 -109.254417 34,000 291 403 0
2018-10-10 15:48:03 GMT 32.375267 -109.241821 34,000 291 403 0
2018-10-10 15:47:59 GMT 32.372131 -109.231895 34,000 291 403 0
2018-10-10 15:47:53 GMT 32.368057 -109.219101 34,000 291 404 0
2018-10-10 15:47:48 GMT 32.364883 -109.209206 34,000 291 404 0
2018-10-10 15:47:44 GMT 32.362835 -109.202812 34,000 291 403 0
2018-10-10 15:47:41 GMT 32.361099 -109.197456 34,000 291 403 0
2018-10-10 15:47:37 GMT 32.357670 -109.186722 34,000 291 404 0
2018-10-10 15:47:31 GMT 32.354225 -109.175964 34,000 291 404 0
2018-10-10 15:47:26 GMT 32.350479 -109.164223 34,000 291 405 0
2018-10-10 15:47:21 GMT 32.347092 -109.153671 34,000 291 405 0
2018-10-10 15:47:14 GMT 32.343330 -109.141884 34,000 291 404 0
2018-10-10 15:47:10 GMT 32.335835 -109.118568 34,000 291 404 0
2018-10-10 15:47:03 GMT 32.335835 -109.118568 34,000 291 404 0
2018-10-10 15:46:59 GMT 32.332905 -109.109482 34,000 291 404 0
2018-10-10 15:46:52 GMT 32.328526 -109.095863 34,000 291 404 0
2018-10-10 15:46:49 GMT 32.325897 -109.087646 34,000 291 404 0
2018-10-10 15:46:42 GMT 32.321640 -109.074463 34,000 291 404 0
2018-10-10 15:46:38 GMT 32.318844 -109.065765 34,000 291 404 0
2018-10-10 15:46:31 GMT 32.314095 -109.050964 34,000 291 404 0
2018-10-10 15:46:27 GMT 32.311707 -109.043533 34,000 291 404 0
2018-10-10 15:46:20 GMT 32.307018 -109.028938 34,000 291 404 0
2018-10-10 15:46:17 GMT 32.304382 -109.020683 34,000 291 404 0
2018-10-10 15:46:08 GMT 32.299759 -109.006241 34,000 291 404 0
2018-10-10 15:46:04 GMT 32.297058 -108.998001 34,000 291 404 0
2018-10-10 15:45:57 GMT 32.292160 -108.982780 34,000 291 404 0
2018-10-10 15:45:54 GMT 32.290310 -108.977036 34,000 291 404 0
2018-10-10 15:45:46 GMT 32.285065 -108.960754 34,000 291 404 0
2018-10-10 15:45:34 GMT 32.275864 -108.932297 34,000 291 404 0
2018-10-10 15:45:25 GMT 32.270245 -108.914818 34,000 291 404 0
2018-10-10 15:45:22 GMT 32.268848 -108.910500 34,000 291 404 0
2018-10-10 15:45:11 GMT 32.261215 -108.886765 34,000 291 404 0
2018-10-10 15:45:00 GMT 32.254028 -108.864517 34,000 291 405 0
2018-10-10 15:44:55 GMT 32.251236 -108.855835 34,000 291 405 0
2018-10-10 15:44:52 GMT 32.248123 -108.846115 34,000 291 405 0
2018-10-10 15:44:40 GMT 32.240685 -108.822998 34,000 291 405 0
2018-10-10 15:44:37 GMT 32.238693 -108.816833 34,000 291 405 0
2018-10-10 15:44:27 GMT 32.231606 -108.794914 34,000 291 404 0
2018-10-10 15:44:18 GMT 32.226345 -108.775917 34,000 286 403 0
2018-10-10 15:44:12 GMT 32.223972 -108.765938 34,000 285 402 0
2018-10-10 15:44:08 GMT 32.221783 -108.755508 34,000 282 401 0
2018-10-10 15:44:05 GMT 32.220749 -108.749924 34,000 282 401 0
2018-10-10 15:44:02 GMT 32.219780 -108.743912 34,000 280 400 -64
2018-10-10 15:43:57 GMT 32.218094 -108.731194 34,000 277 400 0
2018-10-10 15:43:50 GMT 32.216663 -108.717506 34,000 277 401 0
2018-10-10 15:43:45 GMT 32.215576 -108.706253 34,000 277 401 0
2018-10-10 15:43:39 GMT 32.214386 -108.694061 34,000 277 401 0
2018-10-10 15:43:36 GMT 32.213562 -108.685600 34,000 277 401 0
2018-10-10 15:43:33 GMT 32.213169 -108.681686 34,000 277 401 0
2018-10-10 15:43:28 GMT 32.212051 -108.670609 34,000 277 401 0
2018-10-10 15:43:24 GMT 32.210907 -108.659073 34,000 277 401 0
2018-10-10 15:43:17 GMT 32.209717 -108.646927 34,000 277 401 0
2018-10-10 15:43:13 GMT 32.208527 -108.634735 34,000 277 401 0
2018-10-10 15:43:06 GMT 32.207306 -108.622559 34,000 277 401 0
2018-10-10 15:43:01 GMT 32.206100 -108.610123 34,000 277 401 0
2018-10-10 15:42:53 GMT 32.204178 -108.591011 34,000 277 401 0
2018-10-10 15:42:50 GMT 32.203533 -108.584496 34,000 277 401 0
2018-10-10 15:42:40 GMT 32.201393 -108.562973 34,000 277 401 0
2018-10-10 15:42:29 GMT 32.199390 -108.542793 34,000 277 401 0
2018-10-10 15:42:26 GMT 32.198730 -108.536240 34,000 277 401 0
2018-10-10 15:42:20 GMT 32.197174 -108.520645 34,000 277 401 0
2018-10-10 15:42:17 GMT 32.196716 -108.516083 34,000 277 401 0
2018-10-10 15:42:07 GMT 32.194519 -108.493668 34,000 277 401 0
2018-10-10 15:41:59 GMT 32.192734 -108.476089 34,000 277 401 0
2018-10-10 15:41:54 GMT 32.191666 -108.465271 34,000 277 400 0
2018-10-10 15:41:49 GMT 32.190445 -108.453133 34,000 277 400 0
2018-10-10 15:41:45 GMT 32.189621 -108.444893 34,000 277 400 0
2018-10-10 15:41:39 GMT 32.188568 -108.434677 34,000 277 400 0
2018-10-10 15:41:35 GMT 32.187378 -108.422531 34,000 277 400 0
2018-10-10 15:41:29 GMT 32.186356 -108.412582 34,000 277 400 0
2018-10-10 15:41:26 GMT 32.185593 -108.405174 34,000 277 400 0
2018-10-10 15:41:23 GMT 32.184822 -108.397781 34,000 277 400 0
2018-10-10 15:41:16 GMT 32.183285 -108.382591 34,000 277 400 0
2018-10-10 15:41:13 GMT 32.182541 -108.375023 34,000 277 401 0
2018-10-10 15:41:05 GMT 32.180958 -108.359390 34,000 277 401 0
2018-10-10 15:41:02 GMT 32.180099 -108.351181 34,000 277 401 0
2018-10-10 15:40:55 GMT 32.178543 -108.335960 34,000 277 400 0
2018-10-10 15:40:51 GMT 32.177673 -108.327065 34,000 277 400 0
2018-10-10 15:40:44 GMT 32.176254 -108.313423 34,000 277 400 0
2018-10-10 15:40:40 GMT 32.175278 -108.303894 34,000 277 400 0
2018-10-10 15:40:31 GMT 32.173370 -108.285233 34,000 277 400 0
2018-10-10 15:40:28 GMT 32.172672 -108.278503 34,000 277 400 0
2018-10-10 15:40:20 GMT 32.170944 -108.261803 34,000 277 401 0
2018-10-10 15:40:12 GMT 32.169132 -108.243584 34,000 277 401 0
2018-10-10 15:40:06 GMT 32.167786 -108.230545 34,000 277 401 0
2018-10-10 15:40:00 GMT 32.166664 -108.219482 34,000 277 400 0
2018-10-10 15:39:56 GMT 32.165501 -108.207993 34,000 277 400 0
2018-10-10 15:39:48 GMT 32.163940 -108.192589 34,000 277 400 0
2018-10-10 15:39:44 GMT 32.162979 -108.183250 34,000 277 400 0
2018-10-10 15:39:40 GMT 32.161926 -108.173309 34,000 277 400 0
2018-10-10 15:39:29 GMT 32.159588 -108.150314 34,000 277 400 0
2018-10-10 15:39:26 GMT 32.159031 -108.145096 34,000 277 400 0
2018-10-10 15:39:16 GMT 32.156845 -108.123871 34,000 277 400 0
2018-10-10 15:39:05 GMT 32.154465 -108.100693 34,000 277 400 0
2018-10-10 15:38:55 GMT 32.152142 -108.078117 34,000 278 401 0
2018-10-10 15:38:44 GMT 32.149769 -108.055359 34,000 277 400 0
2018-10-10 15:38:33 GMT 32.147160 -108.030243 34,000 278 401 0
2018-10-10 15:38:23 GMT 32.144897 -108.008347 34,000 278 400 0
2018-10-10 15:38:13 GMT 32.142517 -107.985497 34,000 278 399 0
2018-10-10 15:38:02 GMT 32.140091 -107.962425 34,000 278 399 0
2018-10-10 15:37:52 GMT 32.137615 -107.938713 34,000 278 399 0
2018-10-10 15:37:40 GMT 32.135242 -107.916122 34,000 278 399 0
2018-10-10 15:37:28 GMT 32.132492 -107.890030 34,000 278 399 0
2018-10-10 15:37:20 GMT 32.130478 -107.870911 34,000 278 399 0
2018-10-10 15:37:08 GMT 32.127823 -107.846138 34,000 278 399 0
2018-10-10 15:36:57 GMT 32.125443 -107.823891 34,000 278 399 0
2018-10-10 15:36:46 GMT 32.122952 -107.800209 34,000 278 400 0
2018-10-10 15:36:35 GMT 32.120499 -107.776649 34,000 278 400 0
2018-10-10 15:36:25 GMT 32.117973 -107.753120 34,000 278 399 0
2018-10-10 15:36:14 GMT 32.115597 -107.730476 34,000 278 399 0
2018-10-10 15:36:04 GMT 32.113129 -107.707436 34,000 278 399 0
2018-10-10 15:35:53 GMT 32.110615 -107.683731 34,000 278 399 0
2018-10-10 15:35:42 GMT 32.108105 -107.660301 34,000 278 398 0
2018-10-10 15:35:30 GMT 32.105541 -107.636024 34,000 278 398 0
2018-10-10 15:35:20 GMT 32.103149 -107.613663 34,000 278 398 0
2018-10-10 15:35:10 GMT 32.100979 -107.593033 34,000 278 398 0
2018-10-10 15:34:59 GMT 32.098465 -107.570000 34,000 278 398 0
2018-10-10 15:34:49 GMT 32.095951 -107.547012 34,000 278 398 0
2018-10-10 15:34:38 GMT 32.093533 -107.524818 34,000 278 398 -64
2018-10-10 15:34:27 GMT 32.090973 -107.501389 34,000 278 398 0
2018-10-10 15:34:17 GMT 32.088593 -107.479027 34,000 278 398 64
2018-10-10 15:34:05 GMT 32.085800 -107.453430 34,000 278 399 64
2018-10-10 15:33:55 GMT 32.083431 -107.431488 34,000 278 399 -64
2018-10-10 15:33:44 GMT 32.080765 -107.407181 34,000 278 399 -64
2018-10-10 15:33:34 GMT 32.078339 -107.385483 34,000 278 398 0
2018-10-10 15:33:22 GMT 32.075729 -107.361588 34,000 278 399 0
2018-10-10 15:33:12 GMT 32.073303 -107.339447 34,000 278 399 0
2018-10-10 15:33:02 GMT 32.070812 -107.316643 34,000 278 399 0
2018-10-10 15:32:51 GMT 32.068268 -107.292923 34,000 278 399 0
2018-10-10 15:32:41 GMT 32.065750 -107.269852 34,000 278 399 0
2018-10-10 15:32:29 GMT 32.063225 -107.247025 34,000 278 399 0
2018-10-10 15:32:19 GMT 32.060711 -107.224152 34,000 278 400 0
2018-10-10 15:32:08 GMT 32.057873 -107.198479 34,000 278 400 0
2018-10-10 15:31:57 GMT 32.055588 -107.177727 34,000 278 400 0
2018-10-10 15:31:47 GMT 32.053070 -107.155479 34,000 278 401 0
2018-10-10 15:31:36 GMT 32.050507 -107.132797 34,000 278 401 0
2018-10-10 15:31:26 GMT 32.047897 -107.109665 34,000 278 401 -64
2018-10-10 15:31:15 GMT 32.045258 -107.085869 34,000 278 401 0
2018-10-10 15:31:04 GMT 32.042633 -107.062485 34,000 278 401 0
2018-10-10 15:30:53 GMT 32.040024 -107.039078 34,000 278 401 0
2018-10-10 15:30:43 GMT 32.037506 -107.016342 34,000 278 402 0
2018-10-10 15:30:31 GMT 32.034782 -106.992546 34,000 278 402 0
2018-10-10 15:30:21 GMT 32.032269 -106.969955 34,000 278 402 0
2018-10-10 15:30:11 GMT 32.029709 -106.947197 34,000 278 402 0
2018-10-10 15:30:00 GMT 32.026886 -106.922073 34,000 278 402 0
2018-10-10 15:29:49 GMT 32.024460 -106.900375 34,000 278 402 0
2018-10-10 15:29:39 GMT 32.021896 -106.877640 34,000 278 402 0
2018-10-10 15:29:27 GMT 32.019058 -106.853134 34,000 278 402 0
2018-10-10 15:29:17 GMT 32.016586 -106.831657 34,000 278 402 0
2018-10-10 15:29:06 GMT 32.013840 -106.807762 34,000 278 402 0
2018-10-10 15:28:55 GMT 32.011093 -106.783707 34,000 278 402 0
2018-10-10 15:28:48 GMT 32.008438 -106.760468 34,000 278 402 0
2018-10-10 15:28:33 GMT 32.005325 -106.733551 34,000 278 402 0
2018-10-10 15:28:26 GMT 32.003593 -106.718109 34,000 278 403 0
2018-10-10 15:28:13 GMT 32.000473 -106.690758 34,000 278 403 0
2018-10-10 15:28:01 GMT 31.997772 -106.666862 34,000 278 403 0
2018-10-10 15:27:50 GMT 31.994980 -106.642746 34,000 278 403 0
2018-10-10 15:27:40 GMT 31.992371 -106.620338 34,000 278 403 0
2018-10-10 15:27:29 GMT 31.989716 -106.597542 34,000 278 403 0
2018-10-10 15:27:19 GMT 31.987015 -106.574081 34,000 278 403 0
2018-10-10 15:27:08 GMT 31.984274 -106.550621 34,000 278 403 0
2018-10-10 15:26:57 GMT 31.981567 -106.527390 34,000 278 403 0
2018-10-10 15:26:47 GMT 31.978874 -106.504379 34,000 278 403 0
2018-10-10 15:26:38 GMT 31.975801 -106.478485 34,000 278 403 0
2018-10-10 15:26:24 GMT 31.973101 -106.455162 34,000 278 404 0
2018-10-10 15:26:14 GMT 31.970444 -106.432526 34,000 278 404 0
2018-10-10 15:26:03 GMT 31.967468 -106.406876 34,000 278 404 0
2018-10-10 15:25:51 GMT 31.964722 -106.383141 34,000 278 403 0
2018-10-10 15:25:44 GMT 31.962662 -106.365730 34,000 278 403 0
2018-10-10 15:25:39 GMT 31.961609 -106.356613 34,000 278 403 0
2018-10-10 15:25:30 GMT 31.959135 -106.335098 34,000 278 403 64
2018-10-10 15:25:22 GMT 31.957306 -106.319420 34,000 278 402 0
2018-10-10 15:25:18 GMT 31.956345 -106.310959 34,000 277 402 0
2018-10-10 15:25:10 GMT 31.954926 -106.292892 34,000 275 400 0
2018-10-10 15:24:59 GMT 31.954330 -106.269547 34,000 270 400 0
2018-10-10 15:24:48 GMT 31.955154 -106.245811 34,000 266 398 -64
2018-10-10 15:24:37 GMT 31.957413 -106.222038 34,000 263 400 0
2018-10-10 15:24:27 GMT 31.959833 -106.200684 34,000 263 400 0
2018-10-10 15:24:19 GMT 31.962021 -106.181320 34,000 263 400 0
2018-10-10 15:24:16 GMT 31.962395 -106.177650 34,000 263 400 0
2018-10-10 15:24:05 GMT 31.965048 -106.154388 34,000 263 399 0
2018-10-10 15:23:55 GMT 31.967701 -106.130959 34,000 263 399 0
2018-10-10 15:23:44 GMT 31.970123 -106.109032 34,000 263 399 0
2018-10-10 15:23:36 GMT 31.972092 -106.091621 34,000 263 398 64
2018-10-10 15:23:33 GMT 31.972775 -106.085388 34,000 263 398 64
2018-10-10 15:23:27 GMT 31.974197 -106.072723 34,000 263 398 0
2018-10-10 15:23:23 GMT 31.975388 -106.061958 34,000 263 399 0
2018-10-10 15:23:17 GMT 31.976732 -106.049957 34,000 263 399 0
2018-10-10 15:23:12 GMT 31.977943 -106.039200 34,000 263 398 0
2018-10-10 15:23:07 GMT 31.979246 -106.027596 34,000 263 398 0
2018-10-10 15:23:02 GMT 31.980410 -106.017059 34,000 263 398 0
2018-10-10 15:22:50 GMT 31.983110 -105.992615 34,000 263 398 0
2018-10-10 15:22:44 GMT 31.984497 -105.980164 34,000 263 397 0
2018-10-10 15:22:39 GMT 31.985670 -105.969635 34,000 263 397 0
2018-10-10 15:22:29 GMT 31.988251 -105.946487 34,000 263 397 0
2018-10-10 15:22:17 GMT 31.990906 -105.922707 34,000 263 398 0
2018-10-10 15:22:08 GMT 31.993212 -105.901703 34,000 263 398 0
2018-10-10 15:22:03 GMT 31.994236 -105.892448 34,000 263 398 0
2018-10-10 15:21:57 GMT 31.995804 -105.878540 34,000 263 398 0
2018-10-10 15:21:51 GMT 31.997452 -105.863487 34,000 263 398 0
2018-10-10 15:21:46 GMT 31.998276 -105.855965 34,000 263 398 0
2018-10-10 15:21:42 GMT 31.999590 -105.844193 34,000 263 398 0
2018-10-10 15:21:35 GMT 32.000984 -105.831299 34,000 263 398 0
2018-10-10 15:21:30 GMT 32.002396 -105.818169 34,000 263 398 0
2018-10-10 15:21:24 GMT 32.003403 -105.808945 34,000 263 399 0
2018-10-10 15:21:20 GMT 32.004803 -105.796265 34,000 263 399 0
2018-10-10 15:21:14 GMT 32.005966 -105.785484 34,000 263 399 0
2018-10-10 15:21:08 GMT 32.007477 -105.771751 34,000 263 399 0
2018-10-10 15:21:03 GMT 32.008575 -105.761627 34,000 263 399 0
2018-10-10 15:20:58 GMT 32.009857 -105.749619 34,000 263 399 0
2018-10-10 15:20:52 GMT 32.011047 -105.738846 34,000 263 399 0
2018-10-10 15:20:45 GMT 32.012650 -105.724236 34,000 263 399 0
2018-10-10 15:20:41 GMT 32.013519 -105.716270 34,000 263 399 0
2018-10-10 15:20:36 GMT 32.015030 -105.702484 34,000 263 399 0
2018-10-10 15:20:31 GMT 32.016068 -105.693016 34,000 263 399 0
2018-10-10 15:20:24 GMT 32.017559 -105.679283 34,000 263 399 0
2018-10-10 15:20:20 GMT 32.018536 -105.670036 34,000 263 399 0
2018-10-10 15:20:13 GMT 32.020119 -105.655403 34,000 263 399 0
2018-10-10 15:20:09 GMT 32.021049 -105.646996 34,000 263 399 0
2018-10-10 15:19:59 GMT 32.023518 -105.623962 34,000 263 399 0
2018-10-10 15:19:52 GMT 32.025333 -105.607590 34,000 263 399 0
2018-10-10 15:19:48 GMT 32.026031 -105.600922 34,000 263 399 0
2018-10-10 15:19:41 GMT 32.027847 -105.584389 34,000 263 399 0
2018-10-10 15:19:37 GMT 32.028534 -105.577682 34,000 263 399 0
2018-10-10 15:19:30 GMT 32.030914 -105.555984 34,000 263 399 0
2018-10-10 15:19:19 GMT 32.033012 -105.536575 34,000 263 400 0
2018-10-10 15:19:08 GMT 32.035480 -105.513481 34,000 263 400 0
2018-10-10 15:18:57 GMT 32.038101 -105.489349 34,000 263 400 0
2018-10-10 15:18:54 GMT 32.038460 -105.485901 34,000 263 400 0
2018-10-10 15:18:44 GMT 32.040939 -105.462540 34,000 263 400 -64
2018-10-10 15:18:33 GMT 32.043255 -105.440552 34,000 263 400 0
2018-10-10 15:18:22 GMT 32.045769 -105.416786 34,000 263 400 0
2018-10-10 15:18:13 GMT 32.048309 -105.393051 34,000 263 400 0
2018-10-10 15:18:01 GMT 32.050735 -105.370369 34,000 263 400 0
2018-10-10 15:17:52 GMT 32.052845 -105.350533 34,000 263 400 0
2018-10-10 15:17:49 GMT 32.053436 -105.344933 34,000 263 400 0
2018-10-10 15:17:42 GMT 32.055870 -105.321609 34,000 263 400 0
2018-10-10 15:17:28 GMT 32.058571 -105.296165 34,000 263 400 0
2018-10-10 15:17:20 GMT 32.060074 -105.281929 34,000 263 400 0
2018-10-10 15:17:17 GMT 32.061081 -105.272423 34,000 263 399 0
2018-10-10 15:17:08 GMT 32.062805 -105.256256 34,000 263 399 0
2018-10-10 15:16:58 GMT 32.065136 -105.234055 34,000 263 399 0
2018-10-10 15:16:47 GMT 32.067554 -105.210571 34,000 263 399 0
2018-10-10 15:16:35 GMT 32.070164 -105.185631 34,000 263 399 0
2018-10-10 15:16:27 GMT 32.072205 -105.166245 34,000 263 398 0
2018-10-10 15:16:14 GMT 32.075043 -105.138992 34,000 264 397 0
2018-10-10 15:16:05 GMT 32.077053 -105.119652 34,000 264 397 0
2018-10-10 15:16:02 GMT 32.077698 -105.113617 34,000 264 397 0
2018-10-10 15:15:55 GMT 32.079517 -105.095772 34,000 264 397 0
2018-10-10 15:15:51 GMT 32.079987 -105.091461 34,000 264 397 0
2018-10-10 15:15:43 GMT 32.081753 -105.074028 34,000 264 397 0
2018-10-10 15:15:40 GMT 32.082458 -105.067581 34,000 264 397 0
2018-10-10 15:15:33 GMT 32.084106 -105.051270 34,000 264 397 0
2018-10-10 15:15:29 GMT 32.084839 -105.044182 34,000 264 397 0
2018-10-10 15:15:21 GMT 32.086735 -105.026329 34,000 264 397 0
2018-10-10 15:15:18 GMT 32.087341 -105.020554 34,000 264 397 0
2018-10-10 15:15:11 GMT 32.089005 -105.004471 34,000 264 397 0
2018-10-10 15:15:08 GMT 32.089901 -104.995888 34,000 264 397 0
2018-10-10 15:15:00 GMT 32.091297 -104.982155 34,000 264 397 0
2018-10-10 15:14:57 GMT 32.092319 -104.972237 34,000 264 397 0
2018-10-10 15:14:50 GMT 32.093719 -104.958504 34,000 264 397 0
2018-10-10 15:14:46 GMT 32.094650 -104.949257 34,000 264 397 0
2018-10-10 15:14:39 GMT 32.096001 -104.935966 34,000 264 397 0
2018-10-10 15:14:35 GMT 32.097107 -104.925201 34,000 264 396 0
2018-10-10 15:14:24 GMT 32.099487 -104.902077 34,000 264 396 0
2018-10-10 15:14:18 GMT 32.100559 -104.891350 34,000 264 396 0
2018-10-10 15:14:12 GMT 32.102051 -104.876778 34,000 264 396 0
2018-10-10 15:14:07 GMT 32.102921 -104.868179 34,000 264 396 0
2018-10-10 15:14:02 GMT 32.104424 -104.853401 34,000 264 396 0
2018-10-10 15:13:57 GMT 32.105301 -104.844620 34,000 264 396 0
2018-10-10 15:13:51 GMT 32.106674 -104.831100 34,000 264 396 -64
2018-10-10 15:13:46 GMT 32.107544 -104.822311 34,000 264 396 -64
2018-10-10 15:13:40 GMT 32.109009 -104.807541 34,000 264 396 -64
2018-10-10 15:13:35 GMT 32.109871 -104.799370 34,000 264 395 0
2018-10-10 15:13:29 GMT 32.111454 -104.783562 34,000 264 395 0
2018-10-10 15:13:25 GMT 32.112167 -104.776283 34,000 264 395 0
2018-10-10 15:13:17 GMT 32.114059 -104.757217 34,000 264 395 0
2018-10-10 15:13:14 GMT 32.114388 -104.754021 34,000 264 395 0
2018-10-10 15:13:04 GMT 32.116669 -104.731544 34,000 264 395 64
2018-10-10 15:12:55 GMT 32.118671 -104.712036 34,000 264 396 64
2018-10-10 15:12:52 GMT 32.119125 -104.707565 34,000 264 396 64
2018-10-10 15:12:45 GMT 32.121090 -104.688217 34,000 264 398 0
2018-10-10 15:12:42 GMT 32.121510 -104.684349 34,000 264 398 0
2018-10-10 15:12:32 GMT 32.123749 -104.662796 34,000 263 400 0
2018-10-10 15:12:21 GMT 32.126118 -104.640350 34,000 264 400 0
2018-10-10 15:12:10 GMT 32.128632 -104.615181 34,000 264 401 -64
2018-10-10 15:12:01 GMT 32.130775 -104.594162 34,000 264 400 -64
2018-10-10 15:11:49 GMT 32.133194 -104.569664 34,000 264 400 0
2018-10-10 15:11:38 GMT 32.135429 -104.546455 34,000 264 400 0
2018-10-10 15:11:28 GMT 32.137848 -104.521965 34,000 264 399 0
2018-10-10 15:11:17 GMT 32.140224 -104.497749 34,000 264 399 0
2018-10-10 15:11:03 GMT 32.142971 -104.469666 34,000 264 399 0
2018-10-10 15:10:55 GMT 32.144760 -104.451248 34,000 264 399 0
2018-10-10 15:10:43 GMT 32.147301 -104.425163 34,000 264 398 0
2018-10-10 15:10:32 GMT 32.149567 -104.401871 34,000 264 397 0
2018-10-10 15:10:21 GMT 32.151947 -104.377975 34,000 264 397 0
2018-10-10 15:10:10 GMT 32.154236 -104.354309 34,000 264 397 0
2018-10-10 15:09:58 GMT 32.156754 -104.328751 34,000 264 397 0
2018-10-10 15:09:50 GMT 32.158192 -104.313896 34,000 264 397 0
2018-10-10 15:09:47 GMT 32.158813 -104.307663 34,000 264 397 0
2018-10-10 15:09:40 GMT 32.160324 -104.292610 34,000 264 397 0
2018-10-10 15:09:37 GMT 32.161079 -104.284920 34,000 264 397 0
2018-10-10 15:09:26 GMT 32.163437 -104.261024 34,000 264 397 0
2018-10-10 15:09:18 GMT 32.164894 -104.245789 34,000 264 397 0
2018-10-10 15:09:15 GMT 32.165733 -104.237381 34,000 264 397 0
2018-10-10 15:09:08 GMT 32.167038 -104.224045 34,000 264 397 0
2018-10-10 15:09:04 GMT 32.168015 -104.213951 34,000 264 397 0
2018-10-10 15:08:56 GMT 32.169643 -104.197197 34,000 264 397 0
2018-10-10 15:08:53 GMT 32.170395 -104.189011 34,000 264 397 -64
2018-10-10 15:08:47 GMT 32.171494 -104.178024 34,000 264 397 0
2018-10-10 15:08:42 GMT 32.172718 -104.164909 34,000 264 397 0
2018-10-10 15:08:36 GMT 32.173645 -104.155228 34,000 264 396 0
2018-10-10 15:08:31 GMT 32.174953 -104.141312 34,000 264 396 0
2018-10-10 15:08:25 GMT 32.175934 -104.131439 34,000 264 396 0
2018-10-10 15:08:19 GMT 32.177216 -104.117706 34,000 264 396 0
2018-10-10 15:08:08 GMT 32.179466 -104.094116 34,000 264 396 64
2018-10-10 15:07:59 GMT 32.181236 -104.075897 34,000 264 396 0
2018-10-10 15:07:55 GMT 32.182121 -104.066650 34,000 264 396 64
2018-10-10 15:07:46 GMT 32.184029 -104.046242 34,000 264 397 0
2018-10-10 15:07:37 GMT 32.185730 -104.028221 34,000 264 396 -64
2018-10-10 15:07:33 GMT 32.186554 -104.019821 34,000 264 396 -64
2018-10-10 15:07:26 GMT 32.187973 -104.004822 34,000 264 396 0
2018-10-10 15:07:23 GMT 32.188568 -103.998177 34,000 264 395 0
2018-10-10 15:07:15 GMT 32.190315 -103.980385 34,000 264 395 0
2018-10-10 15:07:11 GMT 32.191406 -103.969063 34,000 264 395 0
2018-10-10 15:07:06 GMT 32.192184 -103.960655 34,000 264 395 0
2018-10-10 15:07:02 GMT 32.193237 -103.949562 34,000 264 396 0
2018-10-10 15:06:55 GMT 32.194317 -103.937950 34,000 264 396 0
2018-10-10 15:06:49 GMT 32.195847 -103.922096 34,000 264 396 0
2018-10-10 15:06:44 GMT 32.196644 -103.913513 34,000 264 396 0
2018-10-10 15:06:40 GMT 32.197586 -103.903198 34,000 264 396 0
2018-10-10 15:06:32 GMT 32.198975 -103.888847 34,000 264 396 0
2018-10-10 15:06:28 GMT 32.199764 -103.880501 34,000 264 395 0
2018-10-10 15:06:18 GMT 32.201889 -103.857773 34,000 264 395 0
2018-10-10 15:06:12 GMT 32.203079 -103.845352 34,000 264 395 0
2018-10-10 15:06:07 GMT 32.204086 -103.834862 34,000 264 395 0
2018-10-10 15:05:56 GMT 32.206421 -103.809982 34,000 264 396 0
2018-10-10 15:05:46 GMT 32.208424 -103.788345 34,000 264 396 0
2018-10-10 15:05:41 GMT 32.209541 -103.776352 34,000 264 396 0
2018-10-10 15:05:35 GMT 32.210655 -103.763847 34,000 264 396 0
2018-10-10 15:05:32 GMT 32.210907 -103.760651 34,000 265 396 0
2018-10-10 15:05:22 GMT 32.213169 -103.735542 34,000 264 396 0
2018-10-10 15:05:11 GMT 32.215267 -103.712730 34,000 264 396 0
2018-10-10 15:05:02 GMT 32.217129 -103.693222 34,000 264 396 0
2018-10-10 15:04:51 GMT 32.219421 -103.669571 34,000 264 397 0
2018-10-10 15:04:47 GMT 32.220062 -103.663124 34,000 264 397 64
2018-10-10 15:04:39 GMT 32.221783 -103.643951 34,000 264 398 0
2018-10-10 15:04:33 GMT 32.222763 -103.633209 34,000 264 398 -64
2018-10-10 15:04:28 GMT 32.223953 -103.619804 34,000 265 398 0
2018-10-10 15:04:17 GMT 32.226067 -103.596085 34,000 265 399 0
2018-10-10 15:04:14 GMT 32.226425 -103.591736 34,000 265 399 0
2018-10-10 15:04:08 GMT 32.227787 -103.576408 34,000 264 399 -64
2018-10-10 15:04:04 GMT 32.228531 -103.568611 34,000 264 398 0
2018-10-10 15:03:57 GMT 32.229950 -103.553062 34,000 264 398 0
2018-10-10 15:03:50 GMT 32.231327 -103.538635 34,000 264 398 0
2018-10-10 15:03:44 GMT 32.232677 -103.524788 34,000 264 399 0
2018-10-10 15:03:40 GMT 32.233189 -103.519348 34,000 264 399 0
2018-10-10 15:03:33 GMT 32.234913 -103.500519 34,000 264 400 0
2018-10-10 15:03:30 GMT 32.235352 -103.495552 34,000 264 400 0
2018-10-10 15:03:21 GMT 32.236912 -103.477928 34,000 264 401 64
2018-10-10 15:03:18 GMT 32.237656 -103.469688 34,000 264 401 0
2018-10-10 15:03:11 GMT 32.239147 -103.453148 34,000 264 401 0
2018-10-10 15:03:07 GMT 32.239746 -103.446823 34,000 264 402 0
2018-10-10 15:03:00 GMT 32.241257 -103.430069 34,000 264 402 0
2018-10-10 15:02:56 GMT 32.241989 -103.422050 34,000 264 402 0
2018-10-10 15:02:48 GMT 32.243729 -103.403320 34,000 264 402 -64
2018-10-10 15:02:44 GMT 32.244499 -103.395027 34,000 264 402 -64
2018-10-10 15:02:38 GMT 32.245712 -103.381516 34,000 264 402 0
2018-10-10 15:02:33 GMT 32.246796 -103.369759 34,000 265 402 0
2018-10-10 15:02:26 GMT 32.247898 -103.357300 34,000 265 403 0
2018-10-10 15:02:21 GMT 32.248924 -103.345924 34,000 265 403 0
2018-10-10 15:02:14 GMT 32.250134 -103.332191 34,000 265 403 0
2018-10-10 15:02:10 GMT 32.250916 -103.322952 34,000 265 404 64
2018-10-10 15:02:03 GMT 32.252274 -103.307640 34,000 264 404 0
2018-10-10 15:02:00 GMT 32.253113 -103.298454 34,000 264 404 0
2018-10-10 15:01:52 GMT 32.254532 -103.283127 34,000 264 404 0
2018-10-10 15:01:47 GMT 32.255440 -103.273056 34,000 265 404 0
2018-10-10 15:01:42 GMT 32.256638 -103.259232 34,000 265 404 0
2018-10-10 15:01:37 GMT 32.257675 -103.247833 34,000 265 404 0
2018-10-10 15:01:31 GMT 32.258789 -103.234901 34,000 265 405 0
2018-10-10 15:01:24 GMT 32.259979 -103.221275 34,000 265 405 0
2018-10-10 15:01:20 GMT 32.260887 -103.210335 34,000 265 405 0
2018-10-10 15:01:14 GMT 32.262051 -103.197159 34,000 265 405 0
2018-10-10 15:01:08 GMT 32.262936 -103.186394 34,000 265 405 0
2018-10-10 15:01:01 GMT 32.264240 -103.171883 34,000 264 405 0
2018-10-10 15:00:57 GMT 32.265106 -103.162224 34,000 264 405 0
2018-10-10 15:00:50 GMT 32.266472 -103.146881 34,000 265 405 0
2018-10-10 15:00:46 GMT 32.267174 -103.139198 34,000 265 405 0
2018-10-10 15:00:40 GMT 32.268616 -103.122047 34,000 265 405 0
2018-10-10 15:00:36 GMT 32.269264 -103.114372 34,000 265 405 0
2018-10-10 15:00:28 GMT 32.270802 -103.096825 34,000 265 405 0
2018-10-10 15:00:25 GMT 32.271454 -103.089592 34,000 265 404 0
2018-10-10 15:00:14 GMT 32.273502 -103.066559 34,000 265 404 0
2018-10-10 15:00:03 GMT 32.275726 -103.041542 34,000 265 405 0
2018-10-10 14:59:52 GMT 32.277786 -103.017624 34,000 265 405 0
2018-10-10 14:59:40 GMT 32.279892 -102.993477 34,000 265 405 0
2018-10-10 14:59:29 GMT 32.281883 -102.970200 34,000 265 404 0
2018-10-10 14:59:19 GMT 32.283920 -102.947006 34,000 265 404 0
2018-10-10 14:59:07 GMT 32.286163 -102.920929 34,000 265 404 64
2018-10-10 14:58:57 GMT 32.288269 -102.896408 34,000 265 404 0
2018-10-10 14:58:45 GMT 32.290421 -102.871857 34,000 265 403 -64
2018-10-10 14:58:33 GMT 32.292572 -102.846642 34,000 265 404 0
2018-10-10 14:58:23 GMT 32.294586 -102.823189 34,000 265 404 0
2018-10-10 14:58:11 GMT 32.296738 -102.797752 34,000 265 403 0
2018-10-10 14:58:00 GMT 32.298828 -102.773232 34,000 265 403 0
2018-10-10 14:57:48 GMT 32.300922 -102.748512 34,000 265 402 0
2018-10-10 14:57:37 GMT 32.302925 -102.724464 34,000 265 402 0
2018-10-10 14:57:27 GMT 32.304878 -102.701538 34,000 265 401 0
2018-10-10 14:57:16 GMT 32.307037 -102.676193 34,000 265 401 0
2018-10-10 14:57:05 GMT 32.309052 -102.651802 34,000 265 400 0
2018-10-10 14:56:54 GMT 32.311024 -102.627884 34,000 265 400 0
2018-10-10 14:56:42 GMT 32.313080 -102.603516 34,000 265 399 0
2018-10-10 14:56:31 GMT 32.315166 -102.578560 34,000 265 400 0
2018-10-10 14:56:20 GMT 32.317078 -102.555748 34,000 265 400 0
2018-10-10 14:56:09 GMT 32.319122 -102.531883 34,000 265 400 0
2018-10-10 14:55:58 GMT 32.321136 -102.507607 34,000 265 399 0
2018-10-10 14:55:51 GMT 32.322571 -102.490448 34,000 265 399 0
2018-10-10 14:55:47 GMT 32.323105 -102.483932 34,000 265 399 0
2018-10-10 14:55:35 GMT 32.325085 -102.459450 34,000 265 398 0
2018-10-10 14:55:25 GMT 32.326992 -102.436241 34,000 265 398 0
2018-10-10 14:55:20 GMT 32.328094 -102.423065 34,000 265 398 0
2018-10-10 14:55:13 GMT 32.328995 -102.411972 34,000 265 398 0
2018-10-10 14:55:10 GMT 32.329788 -102.402466 34,000 265 398 0
2018-10-10 14:55:02 GMT 32.330978 -102.388184 34,000 265 398 0
2018-10-10 14:54:57 GMT 32.331894 -102.376923 34,000 265 398 0
2018-10-10 14:54:51 GMT 32.332901 -102.364563 34,000 265 398 0
2018-10-10 14:54:47 GMT 32.333633 -102.355446 34,000 265 398 0
2018-10-10 14:54:41 GMT 32.334915 -102.339401 34,000 265 398 0
2018-10-10 14:54:35 GMT 32.335835 -102.328117 34,000 265 398 -64
2018-10-10 14:54:30 GMT 32.336861 -102.315559 34,000 265 398 0
2018-10-10 14:54:19 GMT 32.338760 -102.292160 34,000 265 398 0
2018-10-10 14:54:11 GMT 32.339996 -102.277000 34,000 265 398 0
2018-10-10 14:54:08 GMT 32.340725 -102.268364 34,000 265 398 0
2018-10-10 14:54:04 GMT 32.341236 -102.262085 34,000 265 398 0
2018-10-10 14:53:57 GMT 32.342728 -102.243706 34,000 265 398 0
2018-10-10 14:53:53 GMT 32.343189 -102.237595 34,000 265 398 0
2018-10-10 14:53:45 GMT 32.344635 -102.219658 34,000 265 398 0
2018-10-10 14:53:40 GMT 32.345444 -102.209213 34,000 265 398 0
2018-10-10 14:53:33 GMT 32.346909 -102.191254 34,000 265 399 -64
2018-10-10 14:53:24 GMT 32.348373 -102.172577 34,000 265 399 0
2018-10-10 14:53:21 GMT 32.348686 -102.169098 34,000 265 399 0
2018-10-10 14:53:11 GMT 32.350525 -102.145714 34,000 265 399 0
2018-10-10 14:53:00 GMT 32.352596 -102.120499 34,000 265 399 0
2018-10-10 14:52:49 GMT 32.354271 -102.099480 34,000 265 399 0
2018-10-10 14:52:39 GMT 32.356274 -102.074310 34,000 265 399 0
2018-10-10 14:52:28 GMT 32.358181 -102.050598 34,000 265 399 0
2018-10-10 14:52:16 GMT 32.359955 -102.027611 34,000 265 399 0
2018-10-10 14:52:05 GMT 32.361832 -102.003883 34,000 265 400 64
2018-10-10 14:51:55 GMT 32.363815 -101.978462 34,000 265 400 0
2018-10-10 14:51:44 GMT 32.365444 -101.957550 34,000 265 400 0
2018-10-10 14:51:33 GMT 32.367279 -101.934067 34,000 265 400 0
2018-10-10 14:51:22 GMT 32.369156 -101.910385 34,000 265 400 -64
2018-10-10 14:51:12 GMT 32.370895 -101.887535 34,000 265 400 0
2018-10-10 14:51:01 GMT 32.372799 -101.863609 34,000 265 400 0
2018-10-10 14:50:50 GMT 32.374603 -101.840073 34,000 265 400 0
2018-10-10 14:50:39 GMT 32.376526 -101.815689 34,000 265 400 0
2018-10-10 14:50:27 GMT 32.378448 -101.790253 34,000 265 400 0
2018-10-10 14:50:17 GMT 32.380280 -101.766525 34,000 265 400 0
2018-10-10 14:50:05 GMT 32.382202 -101.741257 34,000 265 400 0
2018-10-10 14:49:53 GMT 32.384205 -101.715515 34,000 265 400 0
2018-10-10 14:49:44 GMT 32.385834 -101.694611 34,000 265 400 0
2018-10-10 14:49:38 GMT 32.386669 -101.683739 34,000 265 400 0
2018-10-10 14:49:34 GMT 32.387512 -101.672867 34,000 265 400 0
2018-10-10 14:49:31 GMT 32.388115 -101.665016 34,000 265 400 0
2018-10-10 14:49:22 GMT 32.389465 -101.646965 34,000 265 400 0
2018-10-10 14:49:18 GMT 32.389931 -101.640404 34,000 265 400 0
2018-10-10 14:49:11 GMT 32.391232 -101.623199 34,000 265 400 0
2018-10-10 14:49:08 GMT 32.391632 -101.617767 34,000 265 400 0
2018-10-10 14:49:00 GMT 32.393047 -101.599037 34,000 265 400 0
2018-10-10 14:48:57 GMT 32.393375 -101.594666 34,000 265 400 0
2018-10-10 14:48:49 GMT 32.394817 -101.575722 34,000 265 400 0
2018-10-10 14:48:46 GMT 32.395157 -101.571129 34,000 265 400 0
2018-10-10 14:48:39 GMT 32.396587 -101.552406 34,000 265 400 0
2018-10-10 14:48:36 GMT 32.396988 -101.547180 34,000 265 400 0
2018-10-10 14:48:26 GMT 32.398682 -101.524551 34,000 265 400 0
2018-10-10 14:48:17 GMT 32.400146 -101.505157 34,000 265 400 0
2018-10-10 14:48:04 GMT 32.402172 -101.477463 34,000 265 400 0
2018-10-10 14:47:53 GMT 32.403946 -101.453964 34,000 265 400 0
2018-10-10 14:47:42 GMT 32.405663 -101.430885 34,000 265 400 0
2018-10-10 14:47:32 GMT 32.407516 -101.405838 34,000 265 400 0
2018-10-10 14:47:20 GMT 32.409210 -101.383430 34,000 265 400 0
2018-10-10 14:47:12 GMT 32.410675 -101.363380 34,000 266 400 0
2018-10-10 14:47:09 GMT 32.411018 -101.358574 34,000 266 400 0
2018-10-10 14:46:58 GMT 32.412689 -101.335037 34,000 265 400 0
2018-10-10 14:46:48 GMT 32.414383 -101.312180 34,000 265 400 0
2018-10-10 14:46:37 GMT 32.416000 -101.290413 34,000 265 399 0
2018-10-10 14:46:26 GMT 32.417816 -101.265160 34,000 266 398 0
2018-10-10 14:46:17 GMT 32.419395 -101.243500 34,000 265 397 0
2018-10-10 14:46:13 GMT 32.419876 -101.237473 34,000 265 397 0
2018-10-10 14:46:04 GMT 32.421261 -101.218666 34,000 266 397 0
2018-10-10 14:45:53 GMT 32.423168 -101.192711 34,000 265 397 0
2018-10-10 14:45:42 GMT 32.424751 -101.170914 34,000 266 397 0
2018-10-10 14:45:32 GMT 32.426426 -101.147758 34,000 266 398 0
2018-10-10 14:45:21 GMT 32.428116 -101.124374 34,000 266 398 0
2018-10-10 14:45:10 GMT 32.429718 -101.100693 34,000 266 398 0
2018-10-10 14:45:00 GMT 32.431366 -101.077072 34,000 266 398 0
2018-10-10 14:44:49 GMT 32.433128 -101.052528 34,000 266 398 0
2018-10-10 14:44:37 GMT 32.434753 -101.029945 34,000 266 399 0
2018-10-10 14:44:28 GMT 32.436356 -101.007584 34,000 266 399 -64
2018-10-10 14:44:16 GMT 32.438156 -100.982574 34,000 266 399 64
2018-10-10 14:44:06 GMT 32.439835 -100.959312 34,000 266 400 0
2018-10-10 14:43:55 GMT 32.441574 -100.934914 34,000 266 401 0
2018-10-10 14:43:44 GMT 32.443138 -100.912170 34,000 266 401 0
2018-10-10 14:43:33 GMT 32.444817 -100.888794 34,000 266 402 0
2018-10-10 14:43:20 GMT 32.446838 -100.858780 34,000 266 402 0
2018-10-10 14:43:11 GMT 32.448212 -100.839081 34,000 266 403 0
2018-10-10 14:42:59 GMT 32.450043 -100.812912 34,000 266 404 0
2018-10-10 14:42:49 GMT 32.451553 -100.791153 34,000 266 404 0
2018-10-10 14:42:41 GMT 32.452560 -100.776382 34,000 266 404 0
2018-10-10 14:42:38 GMT 32.453156 -100.767593 34,000 266 405 0
2018-10-10 14:42:32 GMT 32.454025 -100.755447 34,000 266 405 0
2018-10-10 14:42:26 GMT 32.454849 -100.743530 34,000 266 405 0
2018-10-10 14:42:20 GMT 32.455799 -100.729218 34,000 266 405 0
2018-10-10 14:42:16 GMT 32.456638 -100.717499 34,000 266 406 0
2018-10-10 14:42:08 GMT 32.457642 -100.702660 34,000 266 406 0
2018-10-10 14:42:05 GMT 32.458099 -100.695412 34,000 266 406 0
2018-10-10 14:41:54 GMT 32.459713 -100.670807 34,000 266 407 -64
2018-10-10 14:41:43 GMT 32.461349 -100.646408 34,000 266 407 64
2018-10-10 14:41:32 GMT 32.463017 -100.622040 34,000 266 408 0
2018-10-10 14:41:20 GMT 32.464737 -100.596695 34,000 266 407 0
2018-10-10 14:41:12 GMT 32.465950 -100.578545 34,000 266 406 0
2018-10-10 14:41:09 GMT 32.466370 -100.572548 34,000 266 406 0
2018-10-10 14:41:01 GMT 32.467621 -100.554237 34,000 266 405 0
2018-10-10 14:40:58 GMT 32.467999 -100.548500 34,000 266 404 0
2018-10-10 14:40:51 GMT 32.469070 -100.532242 34,000 266 403 0
2018-10-10 14:40:48 GMT 32.469536 -100.524956 34,000 266 402 0
2018-10-10 14:40:40 GMT 32.470699 -100.508087 34,000 266 401 0
2018-10-10 14:40:36 GMT 32.471237 -100.499802 34,000 266 400 0
2018-10-10 14:40:30 GMT 32.472336 -100.484146 34,000 266 399 0
2018-10-10 14:40:26 GMT 32.472794 -100.477386 34,000 266 398 0
2018-10-10 14:40:19 GMT 32.473846 -100.461784 34,000 266 398 0
2018-10-10 14:40:15 GMT 32.474422 -100.453545 34,000 266 398 0
2018-10-10 14:40:12 GMT 32.474842 -100.446823 34,000 266 398 0
2018-10-10 14:40:07 GMT 32.475540 -100.436623 34,000 266 398 0
2018-10-10 14:40:04 GMT 32.475960 -100.429893 34,000 266 398 0
2018-10-10 14:40:01 GMT 32.476471 -100.422325 34,000 266 398 0
2018-10-10 14:39:58 GMT 32.476936 -100.415154 34,000 266 398 0
2018-10-10 14:39:52 GMT 32.477680 -100.404053 34,000 266 398 0
2018-10-10 14:39:47 GMT 32.478474 -100.391945 34,000 266 398 0
2018-10-10 14:39:41 GMT 32.480759 -100.357193 34,000 266 399 0
2018-10-10 14:39:30 GMT 32.480759 -100.357193 34,000 266 398 0
2018-10-10 14:39:20 GMT 32.482315 -100.332260 34,000 266 399 64
2018-10-10 14:39:13 GMT 32.483185 -100.319183 34,000 266 399 0
2018-10-10 14:39:08 GMT 32.483963 -100.307045 34,000 266 399 0
2018-10-10 14:39:03 GMT 32.484665 -100.296150 34,000 266 399 0
2018-10-10 14:38:57 GMT 32.485565 -100.282433 34,000 266 400 0
2018-10-10 14:38:52 GMT 32.486069 -100.274414 34,000 266 400 0
2018-10-10 14:38:46 GMT 32.486992 -100.259995 34,000 266 400 -64
2018-10-10 14:38:42 GMT 32.487503 -100.252602 34,000 266 400 0
2018-10-10 14:38:35 GMT 32.488525 -100.236679 34,000 266 400 64
2018-10-10 14:38:32 GMT 32.489132 -100.227768 34,000 266 400 0
2018-10-10 14:38:24 GMT 32.490189 -100.212234 34,000 266 401 0
2018-10-10 14:38:20 GMT 32.490810 -100.202652 34,000 266 401 0
2018-10-10 14:38:13 GMT 32.491833 -100.187523 34,000 266 402 128
2018-10-10 14:38:09 GMT 32.492298 -100.180290 34,000 266 403 0
2018-10-10 14:38:02 GMT 32.493393 -100.163834 34,000 266 404 -128
2018-10-10 14:37:57 GMT 32.494125 -100.152191 34,000 266 404 -64
2018-10-10 14:37:53 GMT 32.494812 -100.141449 34,000 266 404 0
2018-10-10 14:37:47 GMT 32.495602 -100.129951 34,000 266 405 0
2018-10-10 14:37:40 GMT 32.497147 -100.105721 34,000 266 405 0
2018-10-10 14:37:29 GMT 32.498165 -100.090889 34,000 266 406 64
2018-10-10 14:37:22 GMT 32.499252 -100.073807 34,000 266 407 64
2018-10-10 14:37:18 GMT 32.499794 -100.066277 34,000 266 408 0
2018-10-10 14:37:15 GMT 32.500118 -100.061401 34,000 266 408 0
2018-10-10 14:37:07 GMT 32.501358 -100.042274 34,000 266 409 -64
2018-10-10 14:37:04 GMT 32.501724 -100.036667 34,000 266 409 0
2018-10-10 14:36:56 GMT 32.502914 -100.017715 34,000 266 409 0
2018-10-10 14:36:53 GMT 32.503239 -100.012581 34,000 266 409 0
2018-10-10 14:36:46 GMT 32.504517 -99.992943 34,000 266 410 0
2018-10-10 14:36:43 GMT 32.504700 -99.989815 34,000 266 410 64
2018-10-10 14:36:40 GMT 32.505203 -99.982452 34,000 266 410 0
2018-10-10 14:36:35 GMT 32.505981 -99.969490 34,000 266 411 0
2018-10-10 14:36:29 GMT 32.506729 -99.958488 34,000 266 411 0
2018-10-10 14:36:23 GMT 32.507706 -99.943298 34,000 266 411 -64
2018-10-10 14:36:18 GMT 32.508358 -99.932762 34,000 266 411 0
2018-10-10 14:36:11 GMT 32.509476 -99.915215 34,000 266 412 0
2018-10-10 14:36:08 GMT 32.509804 -99.910507 34,000 266 412 0
2018-10-10 14:36:01 GMT 32.510918 -99.893471 34,000 266 412 0
2018-10-10 14:35:58 GMT 32.511383 -99.885826 34,000 266 413 0
2018-10-10 14:35:54 GMT 32.512390 -99.869843 34,000 266 414 0
2018-10-10 14:35:51 GMT 32.512390 -99.869843 34,000 266 414 0
2018-10-10 14:35:47 GMT 32.512920 -99.861465 34,000 266 414 0
2018-10-10 14:35:43 GMT 32.513477 -99.852943 34,000 266 415 0
2018-10-10 14:35:38 GMT 32.514084 -99.843422 34,000 266 415 64
2018-10-10 14:35:35 GMT 32.514645 -99.833939 34,000 266 416 0
2018-10-10 14:35:31 GMT 32.515015 -99.828278 34,000 266 416 0
2018-10-10 14:35:27 GMT 32.515594 -99.818756 34,000 266 417 0
2018-10-10 14:35:22 GMT 32.516506 -99.804398 34,000 266 418 0
2018-10-10 14:35:17 GMT 32.517250 -99.792122 34,000 266 418 0
2018-10-10 14:35:14 GMT 32.517609 -99.786400 34,000 266 418 0
2018-10-10 14:35:10 GMT 32.517948 -99.780464 34,000 266 418 64
2018-10-10 14:35:06 GMT 32.518524 -99.770912 34,000 266 419 0
2018-10-10 14:35:00 GMT 32.519440 -99.756302 34,000 266 419 0
2018-10-10 14:34:55 GMT 32.520081 -99.745804 34,000 266 419 64
2018-10-10 14:34:50 GMT 32.520927 -99.732315 34,000 266 419 0
2018-10-10 14:34:45 GMT 32.521580 -99.721832 34,000 266 419 0
2018-10-10 14:34:38 GMT 32.522465 -99.707428 34,000 266 420 0
2018-10-10 14:34:35 GMT 32.523163 -99.695992 34,000 266 420 0
2018-10-10 14:34:27 GMT 32.523926 -99.682693 34,000 267 420 0
2018-10-10 14:34:24 GMT 32.524513 -99.672623 34,000 267 420 0
2018-10-10 14:34:18 GMT 32.525345 -99.658630 34,000 267 420 0
2018-10-10 14:34:13 GMT 32.526001 -99.647903 34,000 266 420 -64
2018-10-10 14:34:09 GMT 32.526562 -99.638931 34,000 266 420 -64
2018-10-10 14:34:06 GMT 32.526840 -99.634392 34,000 266 420 -64
2018-10-10 14:34:01 GMT 32.527630 -99.622955 34,000 266 420 0
2018-10-10 14:33:56 GMT 32.528469 -99.610123 34,000 266 420 0
2018-10-10 14:33:50 GMT 32.529354 -99.595886 34,000 266 420 0
2018-10-10 14:33:45 GMT 32.530144 -99.582603 34,000 266 420 256
2018-10-10 14:33:39 GMT 32.530796 -99.572289 33,950 266 419 768
2018-10-10 14:33:34 GMT 32.531708 -99.557007 33,850 266 419 1024
2018-10-10 14:33:31 GMT 32.532055 -99.551041 33,800 266 418 1024
2018-10-10 14:33:25 GMT 32.532852 -99.538055 33,700 266 418 960
2018-10-10 14:33:20 GMT 32.533493 -99.527344 33,600 266 418 1024
2018-10-10 14:33:17 GMT 32.533916 -99.520943 33,575 266 418 960
2018-10-10 14:33:13 GMT 32.534454 -99.511795 33,525 266 418 832
2018-10-10 14:33:06 GMT 32.535553 -99.494278 33,400 266 417 1088
2018-10-10 14:33:03 GMT 32.535870 -99.489052 33,350 266 417 1088
2018-10-10 14:32:58 GMT 32.536709 -99.474976 33,175 266 416 832
2018-10-10 14:32:55 GMT 32.537128 -99.467918 33,200 266 416 1024
2018-10-10 14:32:51 GMT 32.537548 -99.461304 33,150 266 416 896
2018-10-10 14:32:44 GMT 32.538616 -99.444092 33,050 267 416 1216
2018-10-10 14:32:40 GMT 32.539177 -99.434341 32,925 267 419 1344
2018-10-10 14:32:36 GMT 32.539597 -99.427727 32,775 267 418 1344
2018-10-10 14:32:33 GMT 32.540131 -99.418633 32,700 267 418 1344
2018-10-10 14:32:25 GMT 32.541092 -99.402206 32,600 267 419 1344
2018-10-10 14:32:22 GMT 32.541550 -99.393753 32,525 267 419 1344
2018-10-10 14:32:18 GMT 32.541924 -99.387817 32,475 267 418 1280
2018-10-10 14:32:10 GMT 32.543106 -99.366776 32,325 267 420 1344
2018-10-10 14:32:05 GMT 32.543793 -99.355133 32,175 267 420 1152
2018-10-10 14:32:00 GMT 32.544483 -99.343872 32,100 266 419 896
2018-10-10 14:31:57 GMT 32.544937 -99.336784 32,100 266 419 704
2018-10-10 14:31:53 GMT 32.545715 -99.327225 32,025 264 417 256
2018-10-10 14:31:49 GMT 32.546448 -99.319260 32,025 264 416 192
2018-10-10 14:31:45 GMT 32.547230 -99.310692 32,000 264 416 64
2018-10-10 14:31:42 GMT 32.547882 -99.303627 32,000 264 416 64
2018-10-10 14:31:38 GMT 32.549377 -99.286690 32,000 265 416 0
2018-10-10 14:31:35 GMT 32.549377 -99.286690 32,000 264 416 0
2018-10-10 14:31:32 GMT 32.549885 -99.281258 32,000 264 416 0
2018-10-10 14:31:28 GMT 32.550629 -99.272629 32,000 265 416 128
2018-10-10 14:31:24 GMT 32.551575 -99.261749 32,000 265 416 64
2018-10-10 14:31:20 GMT 32.552258 -99.254074 32,000 264 417 -128
2018-10-10 14:31:17 GMT 32.552864 -99.247009 32,000 265 417 -128
2018-10-10 14:31:14 GMT 32.553268 -99.242523 32,000 264 417 -128
2018-10-10 14:31:09 GMT 32.554367 -99.230492 32,000 264 417 0
2018-10-10 14:31:06 GMT 32.555191 -99.221397 32,000 264 417 128
2018-10-10 14:31:02 GMT 32.555794 -99.214394 32,000 264 417 192
2018-10-10 14:30:58 GMT 32.556541 -99.206429 32,000 264 417 -64
2018-10-10 14:30:53 GMT 32.557846 -99.192154 32,000 264 419 -128
2018-10-10 14:30:49 GMT 32.558716 -99.182541 31,975 265 422 128
2018-10-10 14:30:44 GMT 32.560135 -99.166496 31,975 265 425 -64
2018-10-10 14:30:37 GMT 32.560913 -99.157486 32,000 264 426 0
2018-10-10 14:30:33 GMT 32.561939 -99.145897 32,000 265 426 0
2018-10-10 14:30:27 GMT 32.563110 -99.133156 32,000 265 427 0
2018-10-10 14:30:21 GMT 32.564209 -99.119644 32,000 265 428 -64
2018-10-10 14:30:18 GMT 32.565338 -99.106598 32,000 265 428 64
2018-10-10 14:30:15 GMT 32.565338 -99.106598 32,000 265 428 -64
2018-10-10 14:30:10 GMT 32.566360 -99.094261 32,000 265 428 64
2018-10-10 14:30:06 GMT 32.567276 -99.082779 32,000 265 428 0
2018-10-10 14:29:59 GMT 32.569389 -99.057106 32,000 264 430 -64
2018-10-10 14:29:55 GMT 32.569389 -99.057106 32,000 264 429 0
2018-10-10 14:29:47 GMT 32.571575 -99.032333 32,000 265 430 64
2018-10-10 14:29:43 GMT 32.571575 -99.032333 32,000 265 430 0
2018-10-10 14:29:37 GMT 32.572998 -99.016151 32,000 265 430 64
2018-10-10 14:29:33 GMT 32.573776 -99.007034 32,000 265 430 0
2018-10-10 14:29:25 GMT 32.575378 -98.988518 32,000 265 431 0
2018-10-10 14:29:22 GMT 32.575954 -98.981491 32,000 264 431 0
2018-10-10 14:29:15 GMT 32.577393 -98.964348 32,000 265 431 64
2018-10-10 14:29:12 GMT 32.578079 -98.956604 32,000 265 431 0
2018-10-10 14:29:08 GMT 32.578793 -98.948647 32,000 265 432 0
2018-10-10 14:29:04 GMT 32.579865 -98.936928 32,000 265 431 64
2018-10-10 14:29:00 GMT 32.580376 -98.930817 32,000 265 431 64
2018-10-10 14:28:53 GMT 32.581818 -98.912712 32,000 265 432 0
2018-10-10 14:28:49 GMT 32.582424 -98.905426 32,000 265 431 0
2018-10-10 14:28:43 GMT 32.583847 -98.888763 32,000 265 432 64
2018-10-10 14:28:38 GMT 32.584797 -98.877907 32,000 265 432 0
2018-10-10 14:28:32 GMT 32.585960 -98.864288 32,000 264 431 0
2018-10-10 14:28:29 GMT 32.586704 -98.855598 32,000 265 431 0
2018-10-10 14:28:21 GMT 32.588196 -98.838722 32,000 264 431 64
2018-10-10 14:28:18 GMT 32.589020 -98.829765 32,000 265 431 64
2018-10-10 14:28:11 GMT 32.590431 -98.813332 32,000 265 432 -64
2018-10-10 14:28:07 GMT 32.591084 -98.805092 32,000 265 431 -64
2018-10-10 14:27:59 GMT 32.592636 -98.787033 32,000 265 431 0
2018-10-10 14:27:56 GMT 32.593315 -98.779533 32,000 265 431 0
2018-10-10 14:27:46 GMT 32.595520 -98.754181 32,000 264 431 0
2018-10-10 14:27:39 GMT 32.597031 -98.737534 32,000 265 430 0
2018-10-10 14:27:36 GMT 32.598312 -98.722977 32,000 265 429 -64
2018-10-10 14:27:26 GMT 32.599548 -98.707817 32,000 265 426 448
2018-10-10 14:27:22 GMT 32.600254 -98.699715 31,975 265 426 960
2018-10-10 14:27:15 GMT 32.602303 -98.675835 31,775 265 425 576
2018-10-10 14:27:05 GMT 32.603699 -98.659187 31,675 265 423 1344
2018-10-10 14:27:02 GMT 32.604309 -98.652283 31,650 265 423 1536
2018-10-10 14:26:52 GMT 32.606232 -98.630417 31,475 265 422 960
2018-10-10 14:26:45 GMT 32.608337 -98.605812 31,275 265 422 1472
2018-10-10 14:26:41 GMT 32.608337 -98.605812 31,250 265 422 1472
2018-10-10 14:26:31 GMT 32.610580 -98.580048 31,000 265 423 1344
2018-10-10 14:26:23 GMT 32.611954 -98.564171 30,850 265 423 1152
2018-10-10 14:26:20 GMT 32.612682 -98.555382 30,775 265 422 1344
2018-10-10 14:26:13 GMT 32.613968 -98.539230 30,600 265 423 1344
2018-10-10 14:26:08 GMT 32.614792 -98.528854 30,500 265 423 1344
2018-10-10 14:26:05 GMT 32.615520 -98.519394 30,425 265 423 1280
2018-10-10 14:26:00 GMT 32.616219 -98.509918 30,325 266 423 1280
2018-10-10 14:25:57 GMT 32.617664 -98.489632 30,025 266 422 1344
2018-10-10 14:25:51 GMT 32.617664 -98.489632 30,125 266 422 1344
2018-10-10 14:25:47 GMT 32.618454 -98.478317 30,050 266 422 1344
2018-10-10 14:25:44 GMT 32.618729 -98.474632 29,950 265 421 1344
2018-10-10 14:25:41 GMT 32.619370 -98.465683 29,900 265 421 1280
2018-10-10 14:25:37 GMT 32.620010 -98.457382 29,825 265 421 1152
2018-10-10 14:25:30 GMT 32.621429 -98.440414 29,675 265 421 1216
2018-10-10 14:25:26 GMT 32.622025 -98.433327 29,600 265 420 1344
2018-10-10 14:25:22 GMT 32.623062 -98.420685 29,575 265 420 1344
2018-10-10 14:25:18 GMT 32.623528 -98.415192 29,450 265 420 1216
2018-10-10 14:25:14 GMT 32.624458 -98.404259 29,350 265 419 1216
2018-10-10 14:25:11 GMT 32.625000 -98.397842 29,300 265 418 1216
2018-10-10 14:25:05 GMT 32.626328 -98.381912 29,150 265 418 1408
2018-10-10 14:25:02 GMT 32.626511 -98.379601 29,125 265 418 1344
2018-10-10 14:24:58 GMT 32.627670 -98.366203 29,000 265 417 1280
2018-10-10 14:24:55 GMT 32.628204 -98.360268 28,900 265 416 1408
2018-10-10 14:24:52 GMT 32.628662 -98.355049 28,875 265 416 1344
2018-10-10 14:24:47 GMT 32.629715 -98.342796 28,775 265 416 1344
2018-10-10 14:24:43 GMT 32.630421 -98.334641 28,650 265 416 1280
2018-10-10 14:24:40 GMT 32.630932 -98.328537 28,625 265 415 1216
2018-10-10 14:24:36 GMT 32.631767 -98.318832 28,550 265 414 1216
2018-10-10 14:24:33 GMT 32.632370 -98.312035 28,475 265 414 1280
2018-10-10 14:24:28 GMT 32.633163 -98.302582 28,375 265 413 1280
2018-10-10 14:24:23 GMT 32.634384 -98.287979 28,250 265 412 1344
2018-10-10 14:24:20 GMT 32.634933 -98.281448 28,150 265 411 1408
2018-10-10 14:24:16 GMT 32.635529 -98.273361 28,100 264 411 1344
2018-10-10 14:24:12 GMT 32.636284 -98.264854 27,975 262 411 1344
2018-10-10 14:24:08 GMT 32.637360 -98.255455 27,925 261 410 1344
2018-10-10 14:24:04 GMT 32.638733 -98.245682 27,825 260 410 1408
2018-10-10 14:23:59 GMT 32.640289 -98.236229 27,675 255 410 1280
2018-10-10 14:23:54 GMT 32.644245 -98.217216 27,550 255 410 1280
2018-10-10 14:23:51 GMT 32.644245 -98.217216 27,525 253 410 1344
2018-10-10 14:23:48 GMT 32.645550 -98.211830 27,475 253 410 1344
2018-10-10 14:23:42 GMT 32.649460 -98.197762 27,325 250 410 1408
2018-10-10 14:23:39 GMT 32.650528 -98.194176 27,300 249 409 1408
2018-10-10 14:23:36 GMT 32.652531 -98.187897 27,200 248 409 1472
2018-10-10 14:23:31 GMT 32.656082 -98.177727 27,050 248 409 1472
2018-10-10 14:23:28 GMT 32.658966 -98.169655 26,975 248 409 1472
2018-10-10 14:23:25 GMT 32.660431 -98.165535 26,925 248 408 1536
2018-10-10 14:23:18 GMT 32.666107 -98.149658 26,750 248 406 1536
2018-10-10 14:23:15 GMT 32.672699 -98.131203 26,575 248 406 1536
2018-10-10 14:23:10 GMT 32.672699 -98.131203 26,500 248 406 1664
2018-10-10 14:23:07 GMT 32.673851 -98.127922 26,450 248 406 1664
2018-10-10 14:23:03 GMT 32.677437 -98.117828 26,325 248 406 1664
2018-10-10 14:22:59 GMT 32.680553 -98.109032 26,200 248 405 1664
2018-10-10 14:22:52 GMT 32.685471 -98.095329 26,000 248 404 1728
2018-10-10 14:22:47 GMT 32.689167 -98.084930 25,900 248 404 1664
2018-10-10 14:22:44 GMT 32.691055 -98.079620 25,800 248 403 1600
2018-10-10 14:22:41 GMT 32.693684 -98.072258 25,700 248 403 1600
2018-10-10 14:22:37 GMT 32.696522 -98.064301 25,600 248 403 1856
2018-10-10 14:22:33 GMT 32.699844 -98.054955 25,450 248 403 1792
2018-10-10 14:22:29 GMT 32.701595 -98.050064 25,375 248 402 1664
2018-10-10 14:22:24 GMT 32.705135 -98.040085 25,275 248 402 1536
2018-10-10 14:22:19 GMT 32.709000 -98.029305 25,100 248 401 1728
2018-10-10 14:22:16 GMT 32.711792 -98.021393 24,825 248 400 1472
2018-10-10 14:22:08 GMT 32.717052 -98.006622 24,825 248 399 1408
2018-10-10 14:22:03 GMT 32.721195 -97.994965 24,725 248 398 1536
2018-10-10 14:21:58 GMT 32.724655 -97.985306 24,550 248 397 1536
2018-10-10 14:21:54 GMT 32.727573 -97.977081 24,450 248 395 1344
2018-10-10 14:21:47 GMT 32.732758 -97.962563 24,275 248 393 1472
2018-10-10 14:21:43 GMT 32.735229 -97.955582 24,200 248 391 1472
2018-10-10 14:21:36 GMT 32.740585 -97.940536 24,000 248 389 1472
2018-10-10 14:21:31 GMT 32.743332 -97.932846 23,925 248 389 1472
2018-10-10 14:21:25 GMT 32.748196 -97.919128 23,750 248 386 1472
2018-10-10 14:21:18 GMT 32.751938 -97.908562 23,600 248 385 1472
2018-10-10 14:21:14 GMT 32.755596 -97.898270 23,475 248 382 1536
2018-10-10 14:21:10 GMT 32.758438 -97.890312 23,375 248 381 1472
2018-10-10 14:21:03 GMT 32.763016 -97.877365 23,200 248 379 1536
2018-10-10 14:20:57 GMT 32.766491 -97.867615 23,075 248 378 1600
2018-10-10 14:20:51 GMT 32.771027 -97.854782 22,875 248 376 1664
2018-10-10 14:20:48 GMT 32.772720 -97.850006 22,850 248 376 1600
2018-10-10 14:20:41 GMT 32.777939 -97.835228 22,600 248 373 1792
2018-10-10 14:20:37 GMT 32.779861 -97.829735 22,500 248 372 1856
2018-10-10 14:20:30 GMT 32.785343 -97.814247 22,250 248 371 1920
2018-10-10 14:20:26 GMT 32.787323 -97.808640 22,150 248 370 2048
2018-10-10 14:20:19 GMT 32.795029 -97.786842 21,725 248 370 2176
2018-10-10 14:20:07 GMT 32.799866 -97.773155 21,450 248 370 2240
2018-10-10 14:20:04 GMT 32.801880 -97.767334 21,350 248 370 2240
2018-10-10 14:19:54 GMT 32.808426 -97.748825 20,975 248 369 2240
2018-10-10 14:19:43 GMT 32.815975 -97.727310 20,575 248 368 2048
2018-10-10 14:19:35 GMT 32.821609 -97.711304 20,250 248 366 2240
2018-10-10 14:19:32 GMT 32.823074 -97.707184 20,175 248 366 2048
2018-10-10 14:19:21 GMT 32.830124 -97.687241 19,875 248 364 1792
2018-10-10 14:19:10 GMT 32.837902 -97.665039 19,425 248 360 2112
2018-10-10 14:19:00 GMT 32.844513 -97.646202 19,050 248 358 2112
2018-10-10 14:18:52 GMT 32.849400 -97.632416 18,650 248 357 2112
2018-10-10 14:18:48 GMT 32.851776 -97.625717 18,650 248 356 2240
2018-10-10 14:18:38 GMT 32.858337 -97.607079 18,200 248 356 2560
2018-10-10 14:18:29 GMT 32.863174 -97.593369 17,750 248 355 2496
2018-10-10 14:18:26 GMT 32.865692 -97.586174 17,750 248 355 2432
2018-10-10 14:18:19 GMT 32.869884 -97.574234 17,450 248 355 2496
2018-10-10 14:18:15 GMT 32.872814 -97.565994 17,275 248 354 2240
2018-10-10 14:18:07 GMT 32.877472 -97.552711 17,050 248 352 2176
2018-10-10 14:18:04 GMT 32.879745 -97.546234 16,875 248 351 2368
2018-10-10 14:17:58 GMT 32.883152 -97.536453 16,650 248 350 2304
2018-10-10 14:17:52 GMT 32.887573 -97.523788 16,400 248 348 2112
2018-10-10 14:17:45 GMT 32.890694 -97.514763 16,250 248 347 2496
2018-10-10 14:17:40 GMT 32.894348 -97.504379 15,950 248 347 2560
2018-10-10 14:17:37 GMT 32.896420 -97.498390 15,800 248 346 2496
2018-10-10 14:17:29 GMT 32.901073 -97.485001 15,525 248 343 2048
2018-10-10 14:17:23 GMT 32.904427 -97.475243 15,350 248 341 1472
2018-10-10 14:17:19 GMT 32.906891 -97.468124 15,250 248 337 1536
2018-10-10 14:17:13 GMT 32.910278 -97.458344 15,125 248 334 1984
2018-10-10 14:17:08 GMT 32.913620 -97.448837 14,900 248 331 2112
2018-10-10 14:17:04 GMT 32.916412 -97.440765 14,725 248 329 1920
2018-10-10 14:16:54 GMT 32.923187 -97.421150 14,325 248 323 2624
2018-10-10 14:16:44 GMT 32.927582 -97.408356 13,975 248 321 2688
2018-10-10 14:16:30 GMT 32.935059 -97.387016 13,475 248 315 2176
2018-10-10 14:16:21 GMT 32.940308 -97.372322 13,100 248 310 2496
2018-10-10 14:16:18 GMT 32.941681 -97.368362 13,000 248 311 2496
2018-10-10 14:16:11 GMT 32.946579 -97.354691 12,625 247 309 2880
2018-10-10 14:16:08 GMT 32.947487 -97.352211 12,550 247 309 2944
2018-10-10 14:16:01 GMT 32.951675 -97.340660 11,975 247 309 3904
2018-10-10 14:15:57 GMT 32.953629 -97.335350 11,950 247 310 3904
2018-10-10 14:15:50 GMT 32.957520 -97.324692 10,000 245 314 3712
2018-10-10 14:15:47 GMT 32.960037 -97.317772 11,250 248 313 3648
2018-10-10 14:15:39 GMT 32.964523 -97.305359 10,775 245 314 3712
2018-10-10 14:15:35 GMT 32.966385 -97.300636 10,600 244 316 3776
2018-10-10 14:15:29 GMT 32.971458 -97.289093 10,225 240 315 1984
2018-10-10 14:15:25 GMT 32.974548 -97.282784 10,100 238 312 1280
2018-10-10 14:15:18 GMT 32.979607 -97.273338 10,025 235 305 128
2018-10-10 14:15:14 GMT 32.982742 -97.268112 10,025 234 302 256
2018-10-10 14:15:07 GMT 32.991943 -97.252884 10,000 240 292 0
2018-10-10 14:15:02 GMT 32.991943 -97.252884 10,000 241 290 64
2018-10-10 14:14:56 GMT 32.996063 -97.243507 9,950 250 282 704
2018-10-10 14:14:50 GMT 32.998444 -97.236252 9,875 254 278 1216
2018-10-10 14:14:45 GMT 33.000549 -97.227249 9,700 261 274 2048
2018-10-10 14:14:39 GMT 33.001602 -97.220436 9,550 263 271 2112
2018-10-10 14:14:34 GMT 33.002743 -97.210678 9,400 263 267 2112
2018-10-10 14:14:31 GMT 33.002975 -97.208488 9,275 263 265 2112
2018-10-10 14:14:28 GMT 33.003479 -97.204117 9,175 264 262 1920
2018-10-10 14:14:24 GMT 33.004047 -97.198402 9,050 264 258 1984
2018-10-10 14:14:21 GMT 33.004559 -97.193130 8,975 264 257 2112
2018-10-10 14:14:15 GMT 33.005302 -97.184502 8,650 265 253 2752
2018-10-10 14:14:12 GMT 33.005676 -97.179901 8,500 265 252 2880
2018-10-10 14:14:07 GMT 33.006187 -97.173401 8,250 266 250 2880
2018-10-10 14:14:04 GMT 33.006409 -97.169846 8,125 267 250 2880
2018-10-10 14:13:59 GMT 33.006775 -97.162704 7,875 267 248 3072
2018-10-10 14:13:56 GMT 33.007072 -97.157646 7,675 267 248 3200
2018-10-10 14:13:51 GMT 33.007446 -97.150810 7,400 266 247 3264
2018-10-10 14:13:48 GMT 33.007629 -97.148117 7,300 266 247 3200
2018-10-10 14:13:43 GMT 33.008057 -97.141441 7,050 265 247 3008
2018-10-10 14:13:37 GMT 33.008698 -97.133751 6,750 264 245 3008
2018-10-10 14:13:33 GMT 33.009338 -97.126610 6,475 263 245 3136
2018-10-10 14:13:30 GMT 33.009796 -97.122490 6,325 264 244 3264
2018-10-10 14:13:26 GMT 33.010208 -97.118317 6,150 267 244 3136
2018-10-10 14:13:23 GMT 33.010471 -97.112694 5,925 274 243 3136
2018-10-10 14:13:19 GMT 33.010162 -97.108154 5,750 280 242 3200
2018-10-10 14:13:15 GMT 33.009613 -97.104088 5,575 287 242 3328
2018-10-10 14:13:12 GMT 33.008331 -97.098541 5,325 294 242 3072
2018-10-10 14:13:09 GMT 33.007141 -97.094917 5,200 298 242 2880
2018-10-10 14:13:05 GMT 33.005630 -97.091347 5,075 303 241 2624
2018-10-10 14:13:00 GMT 33.002605 -97.085899 4,875 311 240 2368
2018-10-10 14:12:57 GMT 33.000603 -97.083046 4,750 316 239 2240
2018-10-10 14:12:54 GMT 32.998260 -97.080246 4,625 321 238 2240
2018-10-10 14:12:48 GMT 32.991440 -97.074318 4,325 342 236 3328
2018-10-10 14:12:44 GMT 32.988640 -97.072731 4,175 340 237 2880
2018-10-10 14:12:37 GMT 32.980682 -97.069374 3,775 342 236 3328
2018-10-10 14:12:32 GMT 32.976955 -97.067848 3,600 342 235 3008
2018-10-10 14:12:26 GMT 32.970062 -97.065086 3,375 342 232 2560
2018-10-10 14:12:22 GMT 32.966015 -97.063423 3,150 342 227 2304
2018-10-10 14:12:15 GMT 32.958286 -97.060341 2,875 342 219 1792
2018-10-10 14:12:11 GMT 32.955494 -97.059219 2,800 342 214 1728
2018-10-10 14:12:04 GMT 32.948975 -97.056641 2,625 343 197 1472
2018-10-10 14:12:00 GMT 32.945251 -97.055183 2,500 343 199 1536
2018-10-10 14:11:55 GMT 32.940552 -97.053391 2,300 346 191 1344
2018-10-10 14:11:49 GMT 32.935684 -97.051956 2,250 349 183 1344
2018-10-10 14:11:43 GMT 32.930866 -97.050926 2,050 353 178 2368

Making use of Plane Finder data

You are free to use the raw flight data, aircraft information and images provided in this report for your own purposes provided the data is correctly attributed to Plane Finder. We ask that you please credit Plane Finder and link to planefinder.net in close proximity to the content.

Optionally one of the following logos (no smaller then 150x24px) can be used and must link to planefinder.net

Embedding the Plane Finder map

You are welcome to embed the Plane Finder playback map on your website to offer visitors a more interactive experience. We suggest using the following HTML code:

<iframe src="//planefinder.net/data/report/AA2402-N939NN-7700-squawk-2018-10-10/map" width="800" height="600" seamless="seamless"></iframe>

Where our data comes from

Plane Finder has a global network of data feeds and antenna radars that receive data broadcast directly from aircraft. The primary technologies used are ADS-B and MLAT. We also show feeds from the FAA and a FLARM glider feed.

Click here to find out more about the Plane Finder network.

How we collect our data